GFSCGP_925_thetae_000.txt.gz
Theta_e
325 323 321 320 321 321 323 322 321 322 323 323 321 321 323 320 317 320 316 316 315 316 316 319 319 320 319 318 320 326 327 329 330 330 332 335 335 334 334 334 332 332 330 329
325 322 319 320 323 324 323 322 322 324 323 323 321 324 321 319 318 317 316 317 318 317 316 317 319 320 319 319 319 320 322 326 328 330 332 333 334 334 333 333 333 332 332 331
322 320 320 325 325 324 323 323 324 325 324 323 323 324 320 320 319 317 318 318 318 318 318 317 318 319 320 320 319 319 320 321 326 328 330 331 333 333 333 333 333 333 332 332
319 320 323 324 324 323 324 323 324 324 324 327 322 325 321 320 321 319 318 319 319 317 317 318 318 319 319 319 319 319 319 320 322 325 328 330 330 331 332 332 332 332 332 333
320 320 323 324 324 322 325 323 322 322 321 322 323 324 320 320 322 321 319 320 319 317 317 317 318 319 319 318 316 317 319 320 320 320 321 323 327 330 330 331 332 331 330 331
318 318 320 322 320 321 321 321 321 321 320 325 322 322 320 321 321 321 320 320 319 318 316 317 319 319 318 317 317 317 316 316 316 318 322 323 323 323 323 325 327 328 328 329
318 317 314 316 318 317 319 321 327 328 327 327 320 321 320 319 320 320 320 320 320 317 316 316 317 317 317 317 317 317 317 316 316 316 316 316 317 320 324 326 328 329 329 329
324 323 317 316 319 321 319 323 328 335 331 325 320 324 324 317 317 317 319 319 319 317 315 316 316 317 317 317 317 317 317 317 316 316 316 315 315 315 315 315 316 317 321 323
327 324 316 316 316 315 323 325 320 325 325 326 325 326 321 316 316 315 318 319 318 318 315 316 316 316 316 316 316 316 316 316 316 315 315 316 316 315 315 315 315 315 315 315
327 325 320 316 315 314 315 315 321 323 327 328 325 324 322 317 316 316 319 319 318 318 315 315 315 316 316 316 316 316 316 316 316 316 315 316 316 316 316 316 316 315 315 314
325 328 324 319 321 321 317 318 318 317 320 324 325 323 319 319 317 316 318 319 318 316 315 315 315 316 316 316 316 315 315 314 314 314 314 314 315 315 315 315 314 314 314 314
325 328 328 327 319 319 318 320 319 322 323 320 317 318 318 316 318 319 320 319 315 315 316 315 315 316 316 316 315 314 313 313 314 314 314 314 314 314 314 314 313 313 313 313
326 328 330 328 324 322 325 323 320 320 321 325 321 319 318 317 318 320 319 318 315 316 316 314 313 314 313 313 315 314 313 314 313 313 313 313 313 313 312 312 311 311 311 311
322 325 326 325 322 322 325 324 323 322 322 322 321 320 319 319 319 319 317 317 315 315 314 313 311 310 311 312 313 313 313 312 312 311 310 310 311 310 309 308 308 308 308 309
323 324 321 321 320 319 319 320 319 321 321 322 319 319 319 317 317 317 318 315 316 315 313 311 310 309 310 312 313 311 310 307 305 306 306 307 308 306 306 305 305 305 306 307
319 321 319 318 315 314 315 314 314 316 318 319 319 319 317 317 319 319 318 317 316 314 311 310 309 308 310 311 309 307 305 304 304 304 304 305 304 303 303 303 303 304 304 304
319 317 315 316 315 316 317 316 316 316 315 315 317 316 316 317 319 319 318 318 316 312 309 308 309 309 308 307 306 303 301 300 301 301 300 300 298 298 298 299 300 300 300 300
318 317 316 317 317 320 318 317 317 318 317 315 316 316 317 319 317 316 314 316 314 309 309 308 307 306 305 304 302 299 297 297 297 297 296 296 296 296 296 296 297 297 297 298
311 315 316 319 320 319 319 319 319 319 318 317 316 315 317 314 312 312 312 309 308 307 306 306 304 302 301 299 297 296 295 295 294 294 292 293 293 293 293 294 294 294 295 296
315 312 315 313 319 325 321 316 314 316 317 318 317 317 318 313 314 312 308 309 307 307 305 302 300 299 298 296 294 293 293 291 291 289 289 290 290 291 291 291 292 292 293 293
317 315 316 317 319 320 318 314 315 320 320 319 318 317 318 314 311 309 308 307 305 303 301 299 297 296 294 293 291 290 289 288 288 288 288 288 288 289 289 289 290 290 290 292
319 319 319 319 320 319 317 316 319 316 316 317 317 314 312 310 310 308 306 304 302 300 298 295 294 293 291 289 288 288 287 287 287 287 287 287 287 287 287 288 288 288 289 289
315 316 319 319 319 317 317 316 313 311 314 313 312 311 310 310 309 306 304 302 300 297 294 291 290 289 288 288 287 287 287 286 286 286 286 286 286 286 287 287 287 287 288 288
315 314 316 316 316 315 314 313 308 308 308 308 307 308 307 307 306 305 302 300 299 294 291 289 289 288 287 287 286 286 286 286 286 286 286 286 286 286 286 286 286 287 287 288
315 314 316 315 315 314 314 311 308 308 305 304 303 304 304 303 302 300 300 298 294 291 289 288 287 287 286 286 285 285 285 286 285 285 285 285 285 285 285 286 286 286 287 288
313 314 315 316 312 312 312 310 306 306 306 304 302 299 299 300 300 299 297 293 290 288 287 287 286 286 285 285 285 285 285 285 285 285 285 285 285 285 285 285 285 286 286 287

GFSCGP_925_thetae_003.txt.gz
Theta_e
329 329 329 322 317 318 319 320 318 319 321 322 321 319 318 317 314 313 313 314 314 315 315 319 320 319 319 319 319 320 323 328 328 330 332 333 333 334 334 333 333 331 330 329
328 330 321 317 319 319 318 320 319 321 321 320 319 321 319 316 315 314 316 316 315 316 316 316 318 319 319 320 319 319 320 321 327 328 329 331 333 334 334 334 334 333 333 332
331 326 320 320 321 322 321 321 323 324 321 321 322 321 318 316 315 316 316 316 316 316 317 316 316 318 318 318 319 320 319 321 323 328 330 331 333 333 333 333 333 333 332 332
325 318 321 321 323 320 321 321 322 323 320 323 319 323 318 317 318 317 316 315 315 315 316 316 316 317 318 317 317 317 319 320 321 321 322 327 329 329 330 331 331 331 332 332
321 319 319 322 322 319 324 322 321 320 320 319 321 321 318 318 319 318 317 316 315 314 315 316 315 317 317 317 317 316 316 316 317 320 321 322 323 323 324 325 325 326 327 327
317 317 318 320 319 320 319 319 319 319 318 323 319 320 319 320 319 317 317 316 315 314 314 314 317 317 317 317 317 317 317 316 316 315 316 316 315 315 316 317 317 318 320 323
316 315 313 316 317 315 317 318 324 325 324 325 318 318 317 317 319 319 317 316 315 313 313 314 314 315 316 316 316 316 316 316 316 316 316 316 315 315 315 315 315 315 315 315
320 320 315 315 317 318 315 318 325 334 329 326 319 320 320 316 318 317 317 316 314 313 313 314 314 314 315 316 316 316 316 316 316 316 316 316 316 316 316 316 315 315 315 315
322 322 315 315 314 316 320 322 319 322 322 323 323 322 317 314 316 317 317 316 315 313 313 314 314 314 315 315 315 315 315 315 315 315 315 315 315 316 315 315 315 315 314 313
323 322 318 316 315 314 315 315 321 320 325 326 322 322 320 316 314 315 317 316 315 313 313 312 313 315 315 315 314 313 313 313 314 314 314 314 315 315 314 314 314 313 312 311
325 324 323 319 319 319 318 317 315 316 317 322 322 320 316 316 313 314 316 316 314 313 313 312 312 314 314 313 313 313 313 314 313 313 313 313 314 313 313 312 311 309 308 308
325 322 325 325 318 318 317 319 316 319 323 317 315 318 315 316 313 317 318 316 313 313 313 312 313 312 312 313 312 312 312 312 310 310 310 310 310 310 309 307 306 306 306 307
325 325 327 325 321 320 323 322 319 318 318 322 320 318 315 315 317 317 316 314 313 314 313 311 308 308 310 311 310 310 308 306 306 305 306 306 307 306 305 305 304 304 304 305
320 321 322 324 321 320 324 323 322 319 319 319 320 320 317 318 319 319 317 314 312 313 312 308 306 306 310 309 307 307 305 303 303 303 303 303 303 302 301 300 300 301 301 302
319 319 318 318 318 317 318 318 318 321 320 320 318 317 317 315 314 314 315 312 312 311 308 307 306 306 307 306 304 302 301 300 299 299 299 300 298 297 297 297 297 298 299 299
316 318 315 315 314 313 313 312 312 314 316 317 317 318 316 314 313 317 314 313 312 309 307 307 309 305 304 303 301 299 297 296 296 295 296 295 294 294 294 294 295 296 296 296
316 313 313 314 314 315 318 316 314 313 313 313 314 314 313 316 317 318 317 313 311 306 308 308 305 303 302 300 297 296 295 294 294 293 292 291 291 291 292 292 293 293 293 293
316 314 313 315 315 320 317 315 315 315 316 314 314 313 314 316 315 312 313 310 307 308 306 304 301 300 299 296 295 295 294 292 291 291 289 288 288 289 289 290 290 290 291 291
309 312 314 316 317 316 318 315 317 318 317 314 315 315 315 313 312 308 307 307 306 305 303 301 299 298 296 294 293 292 291 289 288 288 287 287 287 287 288 288 288 289 289 290
312 309 312 306 314 320 318 315 314 313 316 317 317 317 317 315 316 311 307 306 306 304 301 299 298 296 294 292 291 289 288 287 287 287 287 287 287 287 287 287 287 287 288 288
313 312 313 314 316 315 314 314 314 318 315 315 317 316 318 314 311 306 305 304 301 300 298 297 295 293 292 290 288 287 287 286 286 286 286 286 286 286 286 286 286 286 287 287
316 313 315 314 315 316 314 315 318 313 311 311 311 313 312 310 308 306 303 301 300 298 296 293 292 291 289 287 287 286 286 286 286 286 286 285 285 285 285 285 286 286 286 286
315 314 317 315 314 312 311 311 310 309 310 309 309 308 309 308 308 305 302 301 299 296 293 290 289 288 287 286 286 286 285 285 285 285 285 285 285 285 285 285 285 285 285 285
313 312 314 315 314 313 312 306 306 306 306 306 307 307 306 308 306 304 303 300 299 294 290 288 288 286 286 286 285 285 285 285 285 285 285 285 284 285 285 284 285 285 284 285
311 312 313 312 312 311 310 309 308 306 305 305 304 303 303 304 302 300 299 299 294 290 288 287 286 286 286 285 285 285 285 285 285 285 284 284 284 284 284 284 284 284 285 286
309 312 312 312 310 309 309 308 305 306 305 303 301 299 299 299 299 299 298 293 290 288 287 286 286 285 285 285 285 284 284 285 285 284 284 284 284 284 284 283 284 284 285 286

GFSCGP_925_thetae_006.txt.gz
Theta_e
332 333 333 329 321 319 319 319 318 316 316 319 318 319 318 316 312 311 312 313 314 315 315 316 317 318 319 319 319 319 321 323 326 329 331 331 332 333 333 333 333 332 332 331
332 335 329 325 321 318 318 318 317 317 319 321 319 318 317 313 314 314 314 314 316 316 315 314 316 316 316 317 319 319 320 322 325 326 329 331 332 332 332 332 333 333 333 333
333 332 328 323 320 322 319 318 318 322 320 319 321 320 317 316 316 316 316 315 315 316 316 314 314 316 315 315 315 316 319 321 322 326 327 329 331 332 332 332 332 332 332 332
330 322 326 325 321 317 319 317 320 322 320 322 319 322 316 316 317 317 315 314 314 315 314 314 314 315 315 315 316 316 315 315 316 319 321 321 322 323 323 324 325 325 325 326
329 323 324 322 320 317 320 320 321 319 318 318 319 320 317 315 318 317 315 314 313 313 314 314 314 315 315 316 316 316 316 315 315 315 315 314 314 314 315 315 315 315 315 315
320 317 317 318 318 318 319 318 316 315 316 321 318 320 319 318 318 317 315 313 313 313 313 313 314 315 315 316 316 316 315 315 315 315 315 315 315 315 315 314 314 315 315 314
321 315 313 316 316 315 316 317 322 324 322 323 317 318 319 316 316 318 316 313 312 312 313 313 312 313 314 315 315 315 315 314 314 314 315 315 315 315 314 314 314 314 312 311
322 321 313 313 316 317 316 317 322 329 326 325 317 319 318 313 315 315 315 313 312 312 312 313 312 313 314 314 314 313 313 313 313 313 314 314 314 314 314 313 313 312 310 309
319 320 315 315 313 316 317 320 318 322 320 322 321 319 317 315 316 316 315 313 312 312 312 312 312 313 314 313 312 313 313 313 313 313 313 313 313 312 311 310 309 307 306 305
319 319 317 315 314 313 317 315 320 318 326 325 321 320 320 318 318 317 316 314 312 311 312 312 311 313 312 311 312 313 312 311 311 310 310 309 310 309 308 307 306 305 304 303
319 318 321 316 317 318 316 316 314 316 318 322 322 320 314 314 315 317 316 314 313 311 311 311 311 311 311 312 311 310 309 308 307 306 306 306 306 305 305 303 302 301 301 302
324 319 321 322 317 316 316 317 314 317 319 315 314 318 313 314 311 313 315 314 312 311 311 310 308 310 310 310 309 307 306 306 304 304 304 303 303 302 300 299 298 298 298 298
322 323 324 326 321 319 321 318 316 315 316 320 320 319 313 314 311 315 315 314 312 312 310 306 306 308 308 307 306 304 303 302 301 301 300 300 298 296 295 295 294 294 295 296
319 319 322 327 323 320 323 323 318 317 318 317 318 319 317 316 317 317 316 314 311 312 308 305 305 306 306 305 303 301 300 299 298 297 297 296 294 292 291 291 291 291 292 293
317 319 318 318 317 317 319 320 320 320 318 318 317 317 316 314 312 312 310 311 312 309 307 306 306 304 304 302 300 299 298 297 295 294 294 292 290 289 289 289 289 290 290 290
315 318 315 313 313 313 314 313 313 315 318 318 317 317 314 313 311 315 315 311 311 307 306 308 306 301 301 300 298 297 296 294 292 292 290 288 288 287 287 287 288 288 288 288
315 313 312 313 313 315 317 315 313 311 310 311 312 311 312 314 315 314 314 311 309 305 308 306 302 301 300 297 296 295 293 291 289 289 287 287 287 287 286 287 287 287 287 287
313 312 312 314 315 320 317 312 313 313 314 312 312 312 313 315 311 309 308 309 305 308 305 302 300 299 297 295 294 292 290 288 287 287 287 286 286 286 286 286 286 286 286 286
309 310 313 316 316 316 317 316 316 318 317 314 315 315 316 313 309 310 307 306 305 303 301 300 299 297 295 292 291 289 287 287 286 286 286 286 286 286 285 285 285 285 285 285
309 308 312 307 315 320 316 315 313 313 314 315 316 316 316 314 314 311 306 305 303 301 300 299 297 295 292 289 288 287 286 286 286 286 286 286 285 285 285 285 285 285 285 285
311 310 313 314 314 313 311 312 313 317 312 312 312 312 311 314 310 306 304 302 300 300 298 296 294 292 289 287 287 286 286 285 285 285 285 285 285 285 285 285 284 284 284 284
313 311 312 311 314 314 312 314 318 311 311 309 308 308 309 307 306 304 302 301 300 298 295 293 292 289 288 287 286 286 285 285 285 285 285 285 285 284 284 284 284 284 284 284
315 313 315 312 312 311 309 310 309 308 308 309 309 308 308 307 306 305 303 302 300 296 292 290 289 288 287 286 286 285 285 284 284 284 285 285 284 284 284 284 283 283 284 283
312 310 313 314 312 310 309 308 307 307 307 306 306 306 306 306 306 303 301 299 297 293 290 289 288 286 286 286 285 284 284 284 284 284 284 284 283 284 284 283 283 283 283 283
309 312 312 311 311 309 307 307 306 305 305 305 304 304 303 303 303 301 299 298 295 290 289 287 286 286 285 285 285 284 284 284 284 284 283 283 283 283 283 283 283 283 283 284
308 310 312 312 309 309 308 307 306 305 305 303 302 302 299 299 299 298 297 294 291 288 287 286 285 285 285 284 284 284 284 284 284 283 283 283 283 283 283 283 282 283 284 284

GFSCGP_925_thetae_009.txt.gz
Theta_e
332 333 333 327 325 325 321 319 319 315 314 316 316 317 317 315 314 310 311 313 314 314 314 314 315 315 317 318 318 319 321 323 324 327 329 329 330 331 331 332 332 332 331 331
334 333 330 326 322 319 319 319 319 316 317 316 318 317 315 314 313 311 312 313 315 315 313 313 314 314 314 315 316 318 320 322 325 324 328 330 330 331 331 331 331 331 331 332
332 332 330 329 329 324 320 319 319 318 318 317 318 319 318 315 315 315 315 314 314 314 314 312 312 313 314 314 314 314 315 317 319 325 327 328 329 328 322 322 322 321 322 322
331 328 331 329 325 328 331 317 318 319 319 322 317 322 316 314 317 316 314 313 314 314 314 313 312 313 314 314 314 314 314 314 314 314 315 314 314 315 314 314 314 314 314 314
329 329 332 333 327 318 322 317 317 318 318 317 318 319 318 314 317 316 313 312 312 313 313 313 312 313 314 314 314 314 314 315 315 315 315 315 314 314 314 314 315 314 313 311
323 323 328 329 321 316 317 317 315 315 315 320 317 319 319 315 317 316 314 312 312 313 312 312 313 313 313 314 314 314 314 313 314 314 314 314 314 314 314 313 312 311 309 308
320 321 317 316 317 315 315 317 322 323 322 323 315 317 320 316 313 316 315 312 311 312 312 311 311 312 313 312 313 313 313 313 313 313 313 313 313 312 311 310 308 307 306 305
324 327 315 312 316 316 315 318 321 325 324 321 314 318 317 313 311 314 314 311 310 311 311 311 311 311 311 311 312 312 312 312 312 312 312 311 310 309 308 307 306 305 304 303
322 322 313 313 313 315 316 319 316 321 319 321 319 317 316 315 315 314 313 312 311 311 311 310 310 311 310 311 311 311 311 310 309 308 308 308 307 306 305 304 302 300 299 299
317 318 316 314 313 312 315 313 320 317 326 325 319 318 320 319 318 315 314 312 311 311 311 310 309 309 310 311 311 309 307 306 306 306 305 304 303 302 300 299 297 296 296 296
315 316 319 315 316 315 313 314 313 315 316 321 321 319 313 315 315 316 315 312 311 310 311 310 307 309 310 310 308 306 306 305 304 303 302 302 299 297 295 293 292 291 291 292
320 315 319 319 316 314 315 314 312 317 318 313 313 317 311 312 312 314 314 313 311 310 309 308 307 308 308 307 306 304 303 302 301 300 299 297 295 293 290 289 289 289 289 289
321 321 324 324 320 318 319 316 313 313 314 316 318 318 311 309 310 313 314 313 312 310 308 306 306 307 306 305 303 301 300 299 298 297 296 293 290 288 288 288 288 288 288 288
318 319 319 322 322 319 321 320 315 316 317 317 316 318 317 315 316 317 315 314 311 310 308 306 306 305 304 302 301 299 298 296 295 294 292 289 288 287 287 287 287 287 287 287
315 319 317 316 316 318 319 321 317 316 315 318 317 316 316 315 314 312 312 311 311 311 305 306 306 303 301 300 298 297 296 294 292 291 288 287 287 287 286 286 286 286 286 286
313 317 314 313 313 313 314 314 318 318 318 316 317 316 312 312 312 314 314 311 311 308 305 307 304 300 300 298 296 295 293 291 288 288 287 287 286 286 286 286 286 286 286 286
313 312 311 314 313 315 314 313 311 310 310 312 312 311 312 314 314 314 314 310 310 306 306 306 302 300 299 296 294 293 291 288 287 287 286 286 286 286 286 285 285 285 285 285
312 312 311 313 314 318 313 312 313 312 313 311 314 314 314 314 312 310 309 310 307 305 306 302 300 298 295 294 293 291 288 287 286 286 286 285 285 285 285 285 285 284 284 284
309 312 314 318 316 315 317 315 313 316 317 314 315 315 314 312 310 310 307 305 305 303 301 300 299 296 294 293 291 288 287 286 285 285 285 285 285 285 285 284 284 284 284 284
309 309 314 311 317 322 316 314 313 311 319 313 314 314 315 311 313 310 306 304 301 301 300 298 297 294 293 289 287 286 286 285 285 285 285 285 285 285 284 284 284 284 283 283
311 311 314 316 316 315 311 312 312 317 312 312 310 311 310 310 310 307 303 302 301 299 298 297 295 292 289 287 286 286 285 285 284 284 285 285 284 284 284 284 284 283 283 283
311 311 313 312 315 318 311 313 316 310 309 308 308 308 309 309 307 305 303 301 299 296 295 294 292 289 287 286 286 285 285 284 284 284 284 284 284 284 283 284 283 283 283 282
316 312 313 312 312 309 309 310 308 307 307 308 309 308 307 307 306 305 303 300 298 296 293 291 290 288 286 286 285 285 284 284 284 284 284 283 283 283 284 283 283 283 282 282
311 308 312 313 310 310 309 307 307 308 309 307 306 306 306 306 305 304 301 299 296 293 291 290 288 287 286 286 285 284 284 284 284 283 283 283 283 283 283 283 283 282 282 282
309 310 311 311 310 308 307 307 307 307 305 305 304 304 304 302 302 301 299 297 295 292 290 288 287 285 285 285 284 284 284 284 283 283 283 283 282 283 283 283 282 282 282 283
307 310 312 311 308 307 307 306 305 305 305 304 303 302 299 299 299 298 297 297 292 290 288 286 285 285 284 284 284 284 284 283 283 282 282 282 282 283 282 282 282 282 283 283

GFSCGP_925_thetae_012.txt.gz
Theta_e
329 332 332 328 328 324 321 320 322 316 314 315 314 314 315 314 314 312 310 313 313 313 312 313 313 314 315 316 318 320 323 324 323 326 328 328 329 329 329 329 329 330 330 329
334 332 328 325 324 325 320 320 319 318 316 315 315 316 315 313 313 311 310 312 314 313 312 311 312 313 313 313 314 316 318 322 326 325 328 329 330 328 320 318 318 319 318 318
332 331 327 327 323 326 322 322 323 323 316 315 315 317 316 314 314 312 312 312 313 313 312 311 311 312 313 313 313 314 314 315 317 321 323 323 317 314 314 313 313 313 312 311
330 329 330 329 330 326 330 320 319 319 319 321 316 321 316 313 315 314 312 313 313 313 313 311 311 311 312 312 313 314 314 314 314 314 314 314 313 312 312 313 312 311 310 308
330 331 332 332 331 326 330 320 320 319 317 316 317 318 316 313 316 315 312 312 312 312 311 311 311 311 312 313 313 313 314 314 314 314 314 314 313 312 312 310 309 308 307 306
325 324 329 331 326 322 319 317 315 313 314 320 317 318 317 315 314 315 313 310 312 312 311 310 311 311 311 312 312 313 313 312 313 313 312 311 310 309 308 307 306 305 304 303
322 326 322 320 324 316 318 319 323 323 322 323 315 316 317 314 313 314 314 311 310 311 310 310 309 309 310 311 312 312 312 311 311 311 309 308 307 306 305 303 302 301 300 299
327 329 320 314 325 323 319 317 320 326 323 320 313 318 316 314 311 310 313 311 310 311 309 310 308 309 309 311 311 311 310 309 308 307 306 305 304 303 301 299 298 296 295 295
325 326 314 316 314 322 315 320 316 319 317 320 319 315 315 315 313 313 311 311 311 310 309 309 308 308 309 310 309 308 307 306 305 305 304 302 301 299 297 294 292 291 291 291
318 317 315 312 312 311 314 313 320 317 326 326 320 317 319 316 317 315 312 311 310 310 309 308 307 307 309 308 306 305 305 304 303 302 301 299 296 294 292 291 289 289 289 289
313 314 317 313 314 314 313 315 313 315 316 321 321 318 312 313 312 314 312 311 310 310 310 308 306 308 308 306 305 303 303 302 300 300 297 296 293 290 289 288 288 288 288 288
316 313 316 316 315 311 311 313 313 318 318 312 313 317 311 310 310 312 312 311 309 309 309 306 305 307 306 303 302 300 299 298 297 297 294 291 289 288 288 287 287 287 287 287
318 318 322 323 320 317 317 313 311 311 312 313 317 317 311 308 311 313 312 311 310 309 307 305 305 305 304 302 300 298 297 296 295 293 290 288 287 287 287 287 287 287 286 286
319 317 318 323 321 318 320 316 312 314 316 315 314 317 316 314 315 314 313 313 311 308 307 306 305 303 302 299 298 296 295 293 292 290 288 287 287 286 286 286 286 286 286 285
315 320 318 314 317 318 318 319 314 315 315 319 318 315 315 314 314 313 311 312 311 309 306 307 305 301 299 297 296 295 294 291 289 288 287 286 286 286 286 286 285 285 285 285
312 317 314 313 312 313 317 318 314 314 314 315 315 315 312 311 311 313 313 312 311 310 305 306 303 300 298 296 295 294 291 289 287 287 286 286 286 286 285 285 285 285 285 284
312 311 313 316 313 314 313 311 316 315 314 315 317 314 311 315 314 314 314 312 312 308 304 305 301 299 297 295 294 292 290 287 286 286 286 286 285 285 285 285 284 284 284 284
312 311 311 311 314 313 312 312 309 311 311 310 313 313 313 313 311 310 309 309 308 307 305 302 299 297 295 294 292 290 287 286 286 286 285 285 285 285 285 284 284 284 284 283
309 311 313 315 313 313 317 312 313 315 317 314 314 314 312 311 310 310 307 306 304 303 301 300 299 296 294 292 289 287 286 286 285 285 285 285 284 284 284 284 284 284 283 283
309 310 313 312 318 319 315 314 311 313 319 313 313 313 313 311 312 310 307 304 302 300 300 297 295 294 292 289 288 286 286 285 284 284 284 284 284 284 284 283 283 283 283 282
312 311 314 316 317 315 312 312 311 317 315 312 310 310 310 310 308 306 303 301 300 298 297 295 294 292 289 288 287 286 285 284 284 284 284 284 284 283 283 283 283 283 283 282
312 312 313 313 316 318 310 312 315 310 308 308 307 307 308 307 307 305 302 300 297 295 294 294 291 289 288 286 286 285 284 284 284 284 284 283 283 283 283 283 283 283 282 282
315 311 312 312 313 309 308 311 307 307 307 307 307 306 307 307 307 305 303 299 297 295 293 292 290 288 286 285 285 284 284 284 284 283 283 283 283 283 283 283 283 282 281 281
310 308 312 312 311 310 308 307 306 307 307 306 305 305 305 306 303 303 301 298 296 293 291 290 288 287 286 285 284 284 284 284 283 283 283 283 282 282 282 282 282 282 281 281
308 308 310 310 309 308 307 307 306 305 304 304 303 303 302 302 301 300 298 296 294 292 290 289 287 285 285 284 284 284 284 283 283 282 282 282 282 282 282 282 281 282 282 282
306 309 311 312 307 307 306 305 304 304 303 300 302 302 299 299 298 297 296 296 293 291 288 286 285 285 284 284 284 284 283 283 282 282 281 281 282 282 281 281 281 281 282 282

GFSCGP_925_thetae_015.txt.gz
Theta_e
321 331 332 329 327 325 319 322 326 322 316 316 317 316 317 316 314 314 311 314 315 315 312 311 311 313 315 316 318 322 324 324 325 326 327 329 327 323 320 319 318 318 317 317
325 332 328 325 325 323 321 323 321 319 315 316 318 319 318 315 315 314 312 314 315 314 313 311 311 311 312 313 314 315 317 323 326 328 328 327 317 314 313 312 311 310 309 308
326 327 327 327 327 328 322 323 321 325 318 316 316 320 317 315 313 311 311 314 314 315 314 312 311 311 312 312 313 313 314 314 316 321 316 314 313 313 312 310 309 307 307 306
324 328 328 328 327 327 330 321 322 322 325 328 316 325 318 317 314 313 313 314 314 314 313 312 311 311 311 312 313 314 314 314 314 314 314 313 311 310 308 307 306 305 305 304
327 331 329 330 328 325 328 323 324 323 321 316 317 321 320 313 315 316 314 314 314 314 313 312 311 310 310 312 312 313 313 313 312 312 312 310 308 307 306 305 305 304 302 301
326 327 328 329 325 325 315 317 317 315 317 322 318 321 322 317 316 314 313 313 314 313 313 311 310 310 310 311 312 311 311 310 310 309 308 307 306 304 303 302 301 300 298 298
323 331 327 327 323 319 319 326 331 326 324 325 314 317 320 315 313 315 315 313 313 313 313 312 310 309 309 310 310 310 309 308 307 306 305 304 302 301 298 297 296 295 294 295
325 329 324 321 327 326 326 326 325 328 325 322 313 321 319 313 313 311 313 313 313 313 312 311 310 309 309 309 308 307 306 305 305 304 302 300 298 296 294 292 291 292 292 292
323 325 318 316 317 325 321 327 317 319 316 322 321 318 316 314 314 312 312 313 314 313 311 311 308 308 308 307 306 305 304 303 303 300 298 296 294 292 290 289 289 289 289 289
319 319 316 312 313 312 320 317 326 318 326 327 322 318 322 316 314 314 312 313 313 312 311 310 308 307 307 305 304 303 302 301 299 297 295 293 291 290 289 288 288 288 288 288
312 315 316 313 316 315 316 319 315 317 318 324 322 321 312 313 311 313 313 312 312 312 311 309 307 307 305 303 302 300 299 299 297 295 293 291 289 288 288 288 287 287 287 287
312 313 320 316 314 313 313 316 315 321 318 313 315 320 310 310 309 310 312 311 311 311 310 308 307 305 302 300 299 298 297 296 294 292 290 288 288 288 287 287 287 286 286 286
316 317 321 322 319 316 315 311 312 312 312 314 319 320 311 311 313 312 312 311 310 310 309 307 306 304 301 298 297 296 295 294 292 290 289 288 287 287 287 286 286 286 286 286
317 316 319 325 321 317 319 314 311 315 317 316 315 316 315 315 315 313 312 312 310 309 308 307 306 304 300 297 296 295 293 292 290 289 288 287 287 286 286 286 286 285 285 285
317 320 317 314 317 317 317 317 312 315 316 320 318 315 314 314 314 313 312 311 311 309 308 307 306 302 298 295 295 294 292 290 288 288 287 286 286 286 286 286 285 285 285 284
313 318 313 313 314 316 319 316 315 314 313 314 314 315 311 310 311 312 312 310 310 310 307 308 304 300 297 295 294 293 290 288 287 286 286 285 285 285 285 285 284 284 284 284
315 311 315 318 312 312 317 313 315 315 312 315 317 317 310 314 313 312 311 311 311 309 307 307 303 300 296 295 294 291 289 287 286 285 285 285 285 285 285 284 284 284 284 283
315 312 312 312 312 315 314 310 313 315 311 311 311 309 312 312 310 309 308 309 308 307 305 304 300 297 294 293 291 290 287 286 285 285 285 284 284 284 284 284 284 284 283 283
308 312 313 315 313 313 315 312 311 314 315 309 313 312 311 309 309 310 307 305 304 304 303 301 299 295 293 292 290 288 286 285 285 285 284 284 284 284 283 283 283 283 283 283
309 312 315 313 317 316 314 313 310 313 318 313 313 312 311 310 313 311 305 303 301 300 299 297 295 293 292 289 288 286 285 285 284 284 284 284 284 283 283 283 283 283 283 282
313 311 312 316 316 315 312 312 310 318 316 312 311 311 310 310 309 306 303 301 298 297 296 294 293 292 290 287 286 286 285 284 284 284 284 284 283 283 283 283 283 283 282 282
314 314 314 313 316 317 310 312 315 311 308 308 307 307 308 306 305 304 302 300 297 295 294 293 290 289 287 287 286 285 284 284 284 283 283 283 283 283 283 283 282 282 281 281
314 311 313 312 313 309 308 310 307 306 307 307 306 305 305 305 305 303 302 299 296 294 293 292 290 287 286 285 285 284 284 284 283 283 283 283 283 282 282 282 282 281 281 281
309 308 311 311 310 309 307 306 306 306 306 305 304 304 304 305 303 302 300 298 296 293 290 290 289 287 285 285 284 284 283 283 283 283 282 282 282 282 282 282 281 281 281 281
308 308 309 309 308 308 308 307 304 303 302 302 301 302 301 301 301 299 298 297 294 291 290 290 288 286 285 284 284 283 283 283 282 282 282 282 281 282 281 281 281 281 281 282
305 308 311 312 307 308 307 304 303 303 302 301 301 300 298 299 298 297 296 296 293 290 289 287 286 285 284 283 283 283 283 282 282 282 281 281 281 281 281 280 280 281 281 282

GFSCGP_925_thetae_018.txt.gz
Theta_e
320 321 327 329 328 327 327 326 329 328 326 324 326 328 324 324 324 322 321 320 321 320 317 316 316 317 317 318 320 324 328 329 329 330 331 328 323 321 317 315 313 312 312 312
320 323 325 327 328 326 327 327 328 327 322 322 327 328 327 326 324 322 322 320 321 319 318 316 316 316 316 316 316 318 322 327 329 330 327 321 318 315 314 312 311 310 309 308
320 321 323 328 327 328 328 327 327 328 324 326 325 329 327 321 318 317 317 320 320 319 318 317 317 316 316 316 316 316 316 318 318 318 317 316 316 315 313 311 310 308 307 306
318 321 325 329 328 326 330 326 326 328 332 334 324 333 328 324 322 319 318 320 320 319 318 317 317 316 316 315 315 315 315 315 315 316 316 315 314 312 310 309 308 307 305 303
319 324 328 330 328 327 326 327 327 329 331 327 330 330 328 320 322 320 320 320 319 319 318 317 316 315 315 315 315 314 313 313 312 312 312 311 310 309 307 306 305 304 303 301
318 322 327 328 326 326 325 327 323 321 322 333 329 327 328 323 321 320 319 320 319 318 318 317 315 314 314 314 314 312 311 310 310 309 308 308 307 305 305 303 302 300 299 298
316 318 328 327 328 323 326 329 336 335 334 332 320 323 327 322 319 320 320 320 319 318 318 316 316 315 314 314 313 311 310 308 307 306 305 304 303 301 300 299 298 297 296 295
322 330 329 328 328 326 327 329 332 333 333 330 319 327 324 318 317 317 319 320 319 319 318 317 316 315 314 313 311 310 308 306 304 302 301 299 299 298 297 295 295 294 293 293
321 325 323 325 323 325 327 331 322 324 322 326 326 324 321 319 319 317 317 320 320 319 318 317 315 314 313 311 309 308 307 305 302 300 298 297 296 294 294 293 292 292 291 291
318 326 322 319 324 320 327 325 329 324 329 329 326 326 326 322 320 318 317 320 320 319 317 316 314 314 312 309 307 305 304 302 299 297 296 294 293 292 291 291 291 290 290 290
320 322 319 316 327 328 325 326 325 323 324 328 327 326 320 320 319 318 318 319 320 318 317 315 314 312 309 307 305 303 302 300 297 295 294 293 291 291 290 290 290 289 289 289
321 320 325 327 316 320 325 327 328 330 326 323 323 325 316 317 316 315 318 318 319 318 317 315 313 310 307 306 303 302 300 298 296 294 292 291 290 290 290 289 289 288 288 288
319 322 325 324 322 317 323 326 327 325 320 324 327 326 316 318 320 317 318 318 318 317 316 314 313 310 307 304 302 300 299 296 294 292 291 291 290 290 289 289 288 288 287 287
318 321 322 326 324 322 324 324 323 326 327 325 323 324 320 320 321 319 318 317 317 316 315 314 313 310 307 303 301 298 297 295 292 291 290 290 289 289 288 288 287 287 287 287
321 323 322 321 321 321 322 323 321 324 325 326 326 323 321 321 320 321 319 317 317 316 315 314 313 311 306 302 299 297 294 292 290 290 289 289 288 288 287 287 287 287 286 286
320 324 319 319 318 321 321 321 322 324 325 324 322 323 319 318 317 316 319 318 317 316 314 313 312 310 305 301 298 296 293 290 289 289 288 287 287 287 287 287 286 286 286 286
323 323 322 325 316 319 323 322 320 319 320 321 323 322 317 316 316 317 317 316 316 315 314 313 312 308 303 300 298 295 292 289 289 288 287 287 286 286 286 286 286 286 286 286
322 320 319 322 317 329 323 314 319 321 320 319 319 318 318 318 317 315 315 315 314 313 312 312 309 304 300 297 295 291 290 289 288 287 287 286 286 286 286 286 286 286 286 286
318 318 323 321 321 320 316 314 316 320 321 317 318 315 316 314 314 313 311 310 310 310 310 308 306 301 297 295 292 291 289 287 287 287 286 286 285 285 285 285 285 285 285 285
313 321 324 321 322 324 317 315 313 316 320 315 316 316 315 315 319 317 310 307 307 306 305 303 299 296 295 292 290 290 287 287 287 286 285 285 285 285 285 285 285 285 284 284
317 321 327 325 326 318 314 314 313 319 321 315 315 315 315 316 314 310 306 305 304 302 300 297 296 296 293 290 288 287 286 287 286 285 285 285 285 284 284 284 284 284 284 284
321 323 323 322 322 323 313 313 318 317 315 315 315 314 313 311 309 308 306 303 301 299 297 296 295 293 290 288 287 286 287 285 285 284 284 284 284 284 284 284 284 284 283 283
321 320 318 318 319 313 311 313 311 314 313 312 311 310 310 309 309 308 306 303 301 298 296 295 294 291 288 286 286 287 286 284 284 284 284 284 284 284 284 284 283 283 283 283
312 311 316 314 312 312 310 309 310 311 310 309 309 309 309 309 308 307 306 304 301 298 296 294 292 290 288 287 285 285 284 284 284 284 284 284 284 284 284 283 283 283 283 283
314 312 314 313 311 311 310 310 309 308 307 307 306 307 307 307 306 305 304 303 301 297 294 293 293 291 288 285 285 284 284 283 284 284 284 284 284 284 283 283 282 282 282 283
311 314 317 319 314 315 313 309 308 308 308 307 306 304 303 304 304 303 303 301 299 296 293 292 290 288 285 285 284 283 283 283 283 283 284 283 283 283 282 282 282 282 282 282

GFSCGP_925_thetae_021.txt.gz
Theta_e
317 320 322 321 327 326 328 330 330 330 327 328 329 328 326 325 325 326 325 323 323 323 321 320 320 321 321 324 328 330 330 331 332 332 332 327 323 320 317 314 313 312 312 311
318 320 319 318 322 329 327 329 330 327 326 327 327 326 326 326 326 327 326 323 323 322 320 320 319 319 319 319 322 327 329 331 331 326 324 321 319 316 314 313 311 310 308 308
317 317 317 317 324 329 328 330 327 327 327 326 326 328 328 327 327 327 324 323 323 322 321 320 320 319 319 318 319 320 320 320 320 320 319 318 317 316 313 311 310 308 306 304
316 315 314 319 323 329 332 326 326 326 330 332 329 331 328 327 325 322 321 322 323 322 320 320 319 319 319 318 318 318 318 318 318 318 318 317 314 312 311 310 308 307 305 302
314 317 316 322 321 327 328 326 325 327 329 331 332 333 329 328 326 324 322 322 323 321 320 320 319 318 318 318 317 316 315 314 314 314 313 312 311 310 308 308 306 304 303 301
314 316 320 321 322 326 326 326 327 327 329 334 330 331 329 328 325 324 322 322 322 320 320 319 318 318 318 317 315 314 313 312 311 310 310 309 308 307 306 305 303 302 300 299
316 314 318 321 327 328 327 330 335 334 334 331 327 331 329 322 321 322 322 322 321 320 320 319 318 318 317 316 314 312 311 310 308 307 307 306 305 304 302 301 300 299 298 296
322 323 319 319 330 330 331 329 329 333 331 329 323 327 326 322 320 320 321 322 321 320 319 318 318 317 317 315 313 311 310 307 306 304 303 302 301 300 299 298 297 296 295 294
323 323 315 324 328 327 329 330 325 327 327 330 328 326 322 321 321 320 321 322 321 320 320 319 318 317 316 314 313 311 308 306 304 302 301 300 298 297 296 295 295 294 293 292
320 324 315 325 324 323 328 326 330 327 330 330 328 327 327 323 322 320 320 322 321 320 320 319 318 316 315 312 311 309 307 304 302 300 299 298 296 295 294 294 293 292 292 291
321 318 319 324 329 329 328 330 330 327 328 330 330 327 324 322 321 321 320 322 322 321 320 318 317 316 313 311 309 307 304 302 300 299 298 296 295 294 294 293 292 291 291 290
321 324 323 325 319 325 328 328 329 330 330 326 326 326 320 320 320 319 321 321 321 320 319 318 317 315 312 310 308 306 304 301 299 297 296 295 294 293 293 292 291 290 290 290
322 324 329 325 322 322 328 328 329 328 326 329 328 327 320 322 321 319 320 321 321 320 319 317 316 314 311 309 307 305 303 300 297 296 295 294 293 292 291 291 290 290 289 289
321 322 324 328 328 326 328 329 328 329 330 329 327 325 322 323 323 321 320 320 321 320 319 317 316 314 311 308 306 303 301 298 295 294 294 293 292 291 290 290 289 289 289 289
323 324 323 322 323 325 327 328 328 330 330 329 327 325 324 323 323 322 321 320 320 319 318 317 316 314 311 308 304 302 299 296 294 293 292 291 290 290 289 289 289 288 288 288
323 324 323 323 322 322 323 324 326 326 327 326 325 326 325 323 321 322 321 320 320 319 318 317 316 314 311 307 304 300 297 294 293 292 291 290 289 289 289 288 288 288 288 288
323 324 324 326 321 322 325 323 323 323 323 324 326 325 325 320 320 320 321 320 319 318 317 316 316 314 310 306 302 299 296 293 292 291 290 289 288 288 288 288 288 288 288 288
324 324 325 328 322 330 324 318 321 322 322 323 324 323 321 320 319 319 318 318 318 317 316 315 314 312 307 303 300 296 293 292 291 290 289 288 288 288 287 287 288 288 288 287
323 325 326 326 325 324 323 317 319 322 323 321 321 321 319 319 316 315 314 315 315 314 314 313 311 307 303 299 296 294 292 290 289 289 289 288 287 287 287 287 287 287 287 287
323 323 326 324 325 328 320 317 315 320 323 321 321 320 319 317 320 318 312 311 311 310 310 309 305 301 299 297 294 293 291 289 289 288 287 287 287 287 287 286 287 286 286 286
323 325 327 329 329 327 317 316 316 320 324 316 318 318 317 318 318 313 310 309 308 307 304 302 300 299 296 294 293 292 289 289 287 287 287 286 286 286 286 286 286 286 286 285
322 326 327 328 330 330 316 315 319 319 316 316 317 317 316 313 311 310 308 306 304 302 300 300 299 296 294 292 292 290 289 287 287 286 286 286 286 286 286 286 286 285 285 285
326 323 324 325 326 316 314 315 314 316 317 316 315 314 312 311 310 308 306 304 302 300 299 298 297 294 292 290 289 289 288 286 286 286 286 286 286 286 286 286 285 285 284 284
316 313 319 316 315 315 313 312 313 315 314 313 312 311 311 310 309 308 306 304 302 300 298 298 296 293 291 289 287 287 286 286 286 286 286 286 286 286 286 285 285 284 284 284
315 314 317 316 314 313 312 313 312 312 311 310 310 310 310 309 308 307 307 305 303 300 298 297 296 294 291 289 287 286 285 285 285 286 286 286 286 285 285 285 284 284 283 284
313 316 317 319 316 317 315 312 310 310 310 309 308 308 308 307 307 306 306 305 302 299 297 296 295 293 289 287 286 286 285 285 285 285 285 285 285 285 284 284 284 283 284 284

GFSCGP_925_thetae_024.txt.gz
Theta_e
315 317 320 319 319 321 323 326 329 327 328 328 328 326 326 325 324 322 322 321 319 319 318 320 321 323 327 329 330 330 330 331 331 331 329 322 318 315 313 312 311 309 309 308
314 317 315 316 318 320 323 328 329 328 327 328 327 328 326 324 323 322 322 321 319 319 317 319 320 321 323 327 330 331 331 328 328 326 323 319 316 314 312 310 308 307 305 305
314 315 315 315 317 319 320 326 328 328 327 326 325 327 325 323 322 322 322 323 319 319 318 317 317 319 319 322 322 323 324 323 321 319 318 315 314 313 311 309 307 306 304 301
313 313 314 317 317 318 321 321 327 328 330 332 325 328 325 324 324 324 322 320 319 318 317 316 317 318 319 318 318 319 319 319 318 318 317 316 312 311 309 308 306 304 302 301
314 314 314 316 317 317 320 322 326 328 330 331 332 332 328 325 325 325 319 318 319 318 317 317 317 318 318 317 316 316 315 315 314 314 313 311 310 308 307 306 304 302 301 298
313 313 314 314 315 316 316 322 325 329 330 335 329 332 328 326 324 321 318 318 319 317 317 317 318 318 317 315 314 312 312 311 311 310 310 309 308 306 304 302 301 300 298 296
313 313 312 314 316 315 318 324 328 335 337 336 327 328 328 320 320 321 319 319 318 317 317 317 316 316 316 314 313 311 310 308 307 306 305 304 303 301 300 299 298 296 296 294
315 313 316 313 315 321 322 319 331 335 334 327 324 329 325 320 318 319 319 319 318 317 317 316 315 316 316 314 312 310 307 306 304 303 302 301 300 298 297 296 295 294 294 293
320 318 316 315 316 321 321 321 324 328 323 327 324 325 318 319 319 318 319 319 318 317 317 316 315 316 315 313 311 308 306 304 302 301 299 298 297 296 295 295 294 293 292 292
313 319 317 318 320 323 325 324 331 328 329 333 328 325 323 320 319 318 320 319 318 317 316 315 315 315 314 312 310 307 304 302 301 300 298 296 295 295 294 293 292 292 291 291
313 314 321 317 322 322 328 331 328 327 328 332 328 325 319 319 319 318 317 319 318 317 317 316 314 315 313 311 309 306 303 301 300 298 297 295 294 294 293 292 291 290 290 290
313 317 321 322 321 323 327 328 328 327 332 328 324 322 318 317 318 317 316 320 318 317 316 315 314 312 311 310 307 304 302 300 298 297 295 294 294 293 292 291 290 290 290 289
318 322 326 325 326 327 329 328 327 327 326 328 326 322 319 317 317 318 317 319 318 317 316 314 313 310 310 308 307 304 301 299 297 296 295 294 293 292 291 290 290 289 289 289
322 322 322 332 330 327 330 328 327 327 329 327 325 320 321 320 318 317 317 318 318 317 316 314 313 309 310 308 305 303 300 297 295 294 294 293 292 291 290 290 289 289 288 288
321 327 325 326 326 327 327 328 328 329 328 328 326 320 319 320 318 317 316 317 318 317 316 314 313 309 308 307 304 302 298 296 294 293 292 291 290 290 289 289 289 288 288 288
318 325 323 323 326 327 328 327 327 327 327 327 326 324 320 319 317 317 316 317 318 317 316 314 313 309 307 305 303 300 297 294 293 292 291 290 289 289 289 288 288 288 288 288
322 324 325 324 322 322 324 322 326 327 325 326 327 324 322 318 319 318 316 316 317 316 315 314 312 309 307 304 301 298 295 293 292 291 290 289 289 288 288 288 287 287 288 288
321 323 326 329 321 325 322 317 320 321 321 322 321 321 321 317 315 314 315 315 315 314 314 313 311 309 306 303 299 296 293 292 291 290 289 289 288 287 287 287 287 287 287 287
320 324 326 326 323 323 321 317 319 320 321 319 319 320 316 314 313 312 311 311 311 311 311 311 308 305 302 300 295 293 292 291 290 290 289 288 287 287 287 287 286 286 286 286
322 324 324 319 324 327 319 316 314 317 321 316 318 317 316 315 316 313 310 309 309 309 308 305 303 300 299 295 294 292 290 290 289 288 288 287 287 286 286 286 286 286 286 286
325 325 327 326 326 324 317 315 315 321 321 314 315 316 315 314 313 310 308 307 306 304 302 301 300 298 295 294 293 291 289 289 288 287 287 286 286 286 286 286 286 286 285 285
324 325 326 325 328 326 315 314 318 318 316 315 314 314 311 310 309 307 306 304 302 300 300 299 295 294 294 293 292 290 289 288 287 286 286 286 286 286 286 286 286 285 285 284
325 323 325 325 326 316 313 314 314 315 314 314 312 310 310 309 307 305 303 301 300 299 298 296 294 293 292 291 290 289 287 287 286 286 286 286 286 286 286 285 285 285 284 284
319 314 317 318 314 314 313 312 313 314 312 311 309 309 308 307 306 304 302 300 299 298 297 295 293 291 289 289 288 288 287 286 286 286 286 286 286 286 285 285 285 284 284 283
314 312 316 314 313 312 312 312 311 310 309 309 308 307 307 306 305 304 302 300 298 298 298 295 293 291 289 288 287 286 286 285 285 285 285 285 285 285 285 284 284 284 284 284
312 314 316 317 314 313 312 310 309 309 308 307 307 306 305 304 304 303 302 301 299 297 297 296 294 291 288 287 286 285 285 285 285 285 285 284 284 284 284 283 283 283 283 283

GFSCGP_925_thetae_027.txt.gz
Theta_e
313 314 315 314 317 317 317 319 322 324 323 326 327 327 326 323 322 319 318 315 315 316 316 320 323 325 327 329 329 330 332 332 332 329 325 322 315 315 314 313 311 309 308 308
313 316 313 314 314 319 319 320 321 322 324 325 327 328 326 324 322 323 320 318 316 316 316 317 320 325 328 329 329 330 331 331 329 327 322 318 313 311 310 308 306 305 305 303
313 312 312 314 315 317 318 320 320 321 323 324 326 329 327 323 322 320 320 319 318 317 317 314 314 320 322 324 325 325 327 327 325 323 318 314 311 309 308 306 305 303 302 300
314 312 312 315 316 315 318 316 316 319 324 329 326 335 324 324 322 319 317 316 318 316 316 315 314 316 318 319 321 321 321 321 320 319 315 312 311 309 308 306 303 301 300 299
314 313 313 313 314 315 316 315 317 318 323 328 328 332 326 321 323 323 321 315 317 316 316 316 315 316 317 317 317 317 318 317 316 315 314 311 309 308 306 303 301 299 298 297
313 312 313 312 312 313 314 315 317 319 322 329 328 332 327 325 324 321 319 317 316 316 316 316 316 316 314 314 313 313 313 312 313 312 310 308 306 304 302 301 299 297 296 295
313 314 312 313 315 313 315 316 319 322 324 326 325 330 329 321 317 320 316 317 316 316 317 316 315 313 312 311 311 310 310 308 308 308 306 305 303 301 300 298 297 296 295 293
312 312 313 312 313 314 315 315 317 320 323 324 328 331 324 325 316 317 318 317 316 317 316 316 314 313 312 310 309 308 306 305 305 304 302 301 300 299 297 296 295 294 293 292
315 315 314 313 312 312 315 317 314 322 322 328 328 322 317 316 316 318 318 317 317 316 316 315 314 313 311 309 308 306 304 303 302 301 300 298 297 296 295 294 293 292 291 291
313 315 312 311 314 313 317 316 318 320 325 334 326 321 320 319 317 319 318 317 316 316 315 315 314 312 311 309 306 304 303 301 299 298 297 296 295 295 294 294 292 291 290 290
313 314 316 313 318 319 319 321 319 321 320 330 327 324 316 317 317 319 318 317 316 316 315 314 313 312 310 308 305 303 301 300 298 297 296 295 294 294 293 293 291 290 290 289
314 317 318 318 320 319 321 322 321 320 328 326 321 320 315 314 315 317 317 317 316 315 314 313 312 309 308 306 304 302 300 299 297 296 295 294 294 293 292 291 291 290 289 289
314 316 324 324 323 322 322 322 321 323 328 330 323 320 316 313 314 314 317 316 316 314 314 313 310 308 307 304 302 301 299 297 296 295 294 294 293 293 292 291 290 289 289 288
314 318 320 330 329 322 323 326 328 328 330 329 323 321 319 316 316 314 317 316 316 315 315 312 310 307 306 304 302 300 298 296 295 294 294 293 292 291 290 289 289 289 288 288
320 321 323 323 321 324 326 328 328 329 329 329 321 321 319 316 315 315 316 316 316 315 314 312 309 307 305 303 301 298 297 295 294 294 293 292 291 290 289 289 288 288 288 288
318 322 323 328 326 325 327 327 327 327 327 327 326 326 316 315 313 314 316 317 316 315 314 312 309 306 304 301 298 296 295 294 294 293 292 290 290 289 288 288 288 287 287 287
319 322 328 324 325 326 327 326 326 326 324 325 328 323 316 317 316 315 314 317 316 315 313 312 309 306 303 300 297 295 294 293 292 291 290 290 289 288 288 287 287 287 287 287
319 321 325 326 319 324 321 316 322 326 324 322 323 321 317 315 311 311 312 315 315 314 313 312 308 305 301 298 296 295 293 292 291 290 289 289 288 287 287 287 286 286 286 286
317 322 325 322 322 321 320 315 317 319 320 318 322 318 314 312 312 311 309 310 311 311 311 308 305 301 298 296 295 294 292 291 290 289 289 288 287 287 286 286 286 286 286 286
320 322 323 314 321 325 318 315 313 315 320 315 314 315 315 313 316 312 308 308 306 305 304 300 298 296 295 293 294 292 291 290 289 288 288 287 287 286 286 286 286 286 285 285
324 325 326 322 324 320 317 314 313 320 318 314 313 314 313 313 311 307 305 303 301 300 299 298 295 294 293 293 293 291 289 289 288 287 287 287 286 286 286 286 286 285 285 285
323 326 326 322 326 322 314 313 316 314 314 313 310 310 309 308 307 305 303 301 300 298 296 295 293 292 293 292 292 289 288 288 287 287 286 286 286 286 286 286 285 285 284 284
322 320 325 323 322 316 313 314 313 313 313 311 309 307 307 306 305 303 301 299 298 296 294 293 292 291 292 291 291 288 287 287 286 286 286 286 286 286 286 285 284 284 283 283
318 316 319 319 316 314 312 311 312 312 310 308 307 306 305 304 302 301 300 299 297 295 293 291 290 289 288 289 289 288 287 286 286 286 285 285 285 285 285 284 284 283 283 283
315 313 316 314 312 312 311 311 309 308 307 307 306 306 304 303 302 300 299 297 296 295 292 291 290 288 287 287 287 286 286 286 285 285 285 285 285 284 284 283 283 283 283 283
310 313 316 318 312 312 311 309 308 308 308 306 306 304 303 303 302 300 298 297 296 294 293 291 290 289 287 287 286 285 285 285 285 285 284 284 284 284 283 282 282 282 282 283

GFSCGP_925_thetae_030.txt.gz
Theta_e
313 314 314 313 315 316 317 316 317 318 319 322 323 324 323 323 321 319 318 317 314 314 315 317 321 323 326 327 327 325 323 328 330 327 324 322 317 315 316 316 314 313 309 307
313 316 313 311 312 316 318 319 318 316 316 320 322 324 323 323 323 322 322 318 314 315 315 316 322 326 328 328 329 330 328 324 325 327 323 319 315 312 311 308 306 305 304 303
313 311 311 313 314 315 315 318 317 317 316 316 316 321 323 323 323 321 321 320 314 316 316 316 317 323 326 327 329 329 328 326 325 324 319 314 311 307 305 304 303 301 301 300
313 311 312 313 314 314 316 315 317 316 317 319 321 327 323 323 324 322 322 317 316 317 316 314 315 317 321 324 327 327 326 325 322 321 318 314 308 306 305 303 301 300 299 298
313 312 313 313 312 314 315 313 314 316 316 318 317 322 324 323 324 324 322 318 316 316 316 315 316 316 318 320 321 322 322 321 319 319 316 310 308 306 303 301 300 298 297 296
313 311 312 312 311 312 314 315 316 316 318 323 317 320 321 325 323 322 321 315 315 316 315 314 314 314 314 316 317 317 317 316 315 313 311 309 306 304 301 299 298 297 296 295
313 313 311 313 314 313 312 315 318 319 319 317 314 320 318 321 321 320 320 316 315 315 315 314 313 310 309 310 312 314 314 312 312 310 308 307 304 302 300 298 297 296 294 293
306 307 312 312 313 314 314 314 318 315 313 313 323 326 322 320 319 319 315 316 315 316 316 315 312 310 308 307 308 309 310 307 308 307 304 303 301 300 298 298 296 294 293 291
309 310 312 311 311 312 313 316 312 316 317 322 321 323 320 320 316 315 315 316 316 316 316 314 311 309 307 306 305 306 305 304 304 302 300 299 299 298 297 295 294 292 291 290
311 311 313 312 312 312 312 312 314 316 313 322 326 323 317 318 317 316 316 317 317 316 315 313 311 308 306 305 305 304 303 302 300 299 299 298 297 296 295 294 292 291 290 290
310 314 313 313 313 315 314 313 314 312 315 322 330 327 318 319 317 317 316 317 316 316 315 313 310 308 305 304 303 302 301 299 297 297 296 296 295 294 294 293 291 290 290 289
312 316 316 314 314 312 312 313 313 315 313 317 321 320 315 313 317 317 316 316 316 315 314 312 310 306 304 302 301 300 298 297 296 296 295 294 294 293 293 292 291 290 289 289
314 316 317 321 316 317 314 316 314 315 319 317 321 319 314 311 314 316 315 315 315 314 313 312 308 306 303 300 299 299 298 296 295 295 294 294 293 293 292 291 290 289 288 288
313 316 317 323 324 322 322 317 318 316 319 316 321 322 318 314 314 315 314 315 314 314 313 311 308 306 302 300 298 298 297 296 295 294 294 293 293 292 290 289 289 288 288 288
314 319 315 315 316 319 322 323 322 320 318 319 317 320 321 315 313 315 315 315 314 314 313 311 308 305 301 299 297 297 296 295 294 294 293 292 291 290 289 288 288 288 287 287
317 318 316 321 326 322 325 323 322 322 320 317 325 326 316 312 311 313 314 315 315 314 313 310 307 304 301 298 296 295 294 294 294 293 293 291 290 289 288 288 287 287 287 287
318 319 320 328 324 325 328 320 327 320 325 328 330 322 316 316 314 314 314 315 315 314 312 310 307 305 301 297 296 294 294 293 293 293 291 290 289 288 287 287 287 287 286 286
317 318 324 327 319 324 320 315 323 325 324 323 322 318 316 315 311 310 311 314 314 313 312 309 307 303 299 296 295 294 294 293 292 291 290 289 288 287 287 287 286 286 286 285
320 318 327 325 321 320 318 315 319 325 324 319 322 315 313 311 312 312 308 311 311 311 310 308 305 299 296 294 294 294 292 292 291 289 289 288 287 287 286 286 286 286 285 285
318 318 325 316 319 325 319 315 312 314 320 315 315 314 313 312 318 314 306 307 306 305 304 300 297 295 294 292 294 292 291 290 289 289 288 287 287 286 286 286 286 285 285 284
323 321 324 320 322 319 317 314 312 320 316 314 313 312 313 314 311 306 301 300 299 298 296 295 295 293 291 293 293 290 290 289 289 288 287 287 286 286 286 286 285 284 284 283
322 322 324 323 322 320 313 312 316 312 312 311 310 309 308 307 305 302 300 299 297 295 294 293 292 290 291 292 292 289 289 288 288 287 286 286 286 286 286 285 284 284 283 283
323 319 323 319 320 314 312 313 313 311 312 310 307 307 307 305 303 301 299 296 295 294 292 292 291 289 291 292 292 288 287 287 287 286 286 286 286 286 285 284 283 283 282 282
316 315 319 320 317 315 312 311 312 310 308 306 305 305 305 303 301 299 297 295 293 292 290 290 289 288 288 290 290 289 287 286 286 286 285 285 285 285 284 283 283 282 282 282
315 315 315 315 312 312 311 310 309 306 306 305 303 304 302 301 300 298 296 294 292 290 290 289 288 287 287 288 287 287 286 286 285 285 285 285 284 284 283 283 282 282 282 283
310 315 319 320 313 313 311 308 307 307 306 305 303 302 301 300 299 297 296 294 292 290 290 289 287 287 286 287 286 286 285 285 285 284 284 284 284 283 283 282 282 282 282 282

GFSCGP_925_thetae_033.txt.gz
Theta_e
312 313 313 312 313 315 315 316 315 316 315 316 318 320 320 319 319 321 319 318 317 315 313 315 317 320 321 321 323 324 323 328 331 329 323 320 317 317 320 318 314 315 313 307
312 314 312 310 311 314 316 317 316 315 315 314 315 316 316 313 315 319 320 320 318 314 314 314 317 322 324 325 325 324 324 327 326 325 322 320 314 311 310 307 306 305 304 303
313 311 310 311 313 313 313 314 314 315 314 314 315 315 312 313 316 319 320 320 319 317 314 314 316 322 325 326 327 325 323 323 323 323 320 313 309 305 302 302 302 301 302 301
313 311 311 311 312 312 314 312 313 315 317 316 315 317 314 315 317 319 320 320 319 314 314 315 316 319 323 326 327 325 323 322 320 319 318 315 307 303 301 301 300 300 299 298
313 312 312 313 312 313 313 313 314 316 316 314 314 314 313 315 316 319 319 320 316 313 314 315 318 319 322 324 325 324 321 320 318 319 319 315 307 304 301 300 299 298 297 296
312 311 311 311 311 311 313 314 315 317 316 317 314 316 313 311 316 319 319 318 316 315 314 315 315 316 316 319 321 320 319 317 317 317 315 313 306 302 299 298 298 296 295 294
313 314 312 311 313 311 311 316 317 318 320 316 312 315 314 310 315 318 318 316 315 312 314 314 314 312 310 313 315 316 316 313 314 313 310 307 305 303 301 299 298 296 294 293
309 308 310 311 313 312 313 313 317 318 317 314 314 316 314 312 312 311 312 314 312 313 314 316 314 311 310 309 312 312 312 310 309 308 306 305 303 301 299 298 296 295 293 291
310 308 309 310 310 311 313 315 311 314 316 319 316 314 310 313 314 314 314 313 313 314 315 315 311 309 308 307 308 310 308 307 307 305 303 301 300 299 297 296 295 293 291 290
307 308 310 312 311 311 311 310 314 315 315 317 314 317 314 311 311 310 313 314 313 314 315 312 309 307 305 305 306 307 307 304 302 301 300 298 298 297 296 294 293 292 290 289
308 312 312 313 313 314 314 314 313 310 312 314 314 316 316 314 311 310 313 314 315 315 313 310 308 305 302 302 302 301 302 300 298 298 297 297 295 295 294 294 292 290 289 289
310 314 314 312 312 312 312 313 313 313 310 311 317 316 313 311 310 314 316 316 315 314 312 309 306 303 301 299 299 298 298 297 297 296 295 295 294 294 293 292 290 289 289 288
312 314 315 316 315 313 315 314 313 312 311 311 311 310 313 310 313 314 317 317 316 313 311 308 305 302 300 298 297 296 296 295 295 295 295 293 293 293 292 290 289 288 288 288
313 315 316 318 318 316 318 316 313 312 314 314 313 312 311 311 314 314 315 316 315 314 311 308 305 302 299 297 296 295 294 294 294 294 294 293 293 292 290 289 288 288 288 287
314 316 316 315 315 317 318 315 314 314 312 314 313 314 313 313 315 316 316 314 314 314 311 309 305 301 298 296 295 294 294 294 294 294 293 292 291 290 289 288 288 287 287 287
315 317 315 317 317 317 320 318 314 316 312 315 318 317 315 313 314 313 314 315 315 314 311 309 305 300 297 296 294 293 293 294 294 293 292 291 290 289 288 287 287 287 287 286
316 316 319 323 320 322 324 322 316 317 315 314 320 317 314 314 314 315 314 315 315 314 311 308 305 301 299 295 294 293 294 293 293 293 291 290 289 288 287 287 287 287 286 286
317 319 318 324 321 327 321 320 318 319 319 318 318 318 317 317 312 312 312 314 313 312 310 308 304 301 297 295 294 294 293 293 292 291 290 289 288 287 287 287 287 286 286 285
316 320 324 327 320 320 316 319 319 319 319 318 319 318 314 312 312 312 309 310 311 311 309 306 303 298 295 294 294 293 292 292 291 290 289 288 287 287 286 286 286 286 285 284
317 319 322 321 320 324 318 314 311 313 324 317 318 316 313 313 319 316 308 308 308 307 305 300 297 295 293 292 293 292 291 290 290 289 288 287 287 286 286 286 285 285 284 283
322 321 323 319 322 318 315 313 311 319 315 313 313 312 311 315 313 304 301 300 301 301 298 296 295 293 291 292 293 290 290 290 289 288 287 286 286 286 286 285 285 284 283 283
322 319 321 322 322 318 311 311 316 312 312 311 310 310 307 303 301 300 298 297 297 295 294 293 291 289 290 292 293 289 289 288 288 287 286 286 286 286 286 285 284 283 283 282
320 317 319 319 318 313 311 313 312 310 311 309 308 306 304 302 300 298 296 294 293 292 292 291 289 288 290 292 293 289 287 287 287 286 285 286 286 286 285 284 283 283 282 282
314 313 318 319 315 314 312 311 310 308 307 305 305 305 303 300 298 295 294 293 292 291 290 290 289 288 287 290 290 289 287 287 286 285 285 285 285 285 284 283 283 282 282 282
314 314 315 315 313 311 310 310 307 305 304 304 302 303 301 300 298 296 294 292 291 290 289 289 288 287 286 288 287 287 286 286 285 285 285 285 284 284 283 282 282 282 282 282
310 315 318 320 314 313 311 308 306 306 305 303 302 301 300 299 297 295 293 291 290 288 288 287 286 286 286 286 286 286 285 285 285 285 284 284 284 283 282 282 282 281 281 282

GFSCGP_925_thetae_036.txt.gz
Theta_e
311 312 314 313 311 311 314 315 315 314 313 314 315 315 315 314 315 316 317 317 316 316 315 315 317 317 318 319 322 323 327 329 332 331 327 323 323 321 321 320 318 319 313 309
312 313 310 309 310 312 313 315 315 312 312 314 314 314 313 312 313 314 315 317 317 317 313 312 315 317 319 319 321 322 325 327 328 327 324 321 318 313 314 312 310 308 304 303
312 310 310 312 312 312 312 313 313 312 311 312 313 313 309 309 310 311 311 312 316 317 316 312 313 318 321 322 322 322 323 325 325 325 321 315 313 307 303 302 300 300 302 302
311 311 311 311 311 311 313 311 312 312 313 313 312 315 310 311 309 308 310 313 316 316 314 312 312 317 321 323 324 323 322 322 322 321 319 318 308 302 299 299 298 299 299 299
312 311 312 313 311 310 312 311 312 313 314 313 313 313 309 309 310 311 312 313 314 316 315 312 313 318 321 324 325 323 320 319 318 317 316 311 304 302 298 297 297 297 297 296
312 310 311 310 310 310 311 312 313 314 317 318 313 313 312 309 308 309 311 312 315 315 312 312 314 318 320 322 322 320 318 316 315 315 312 312 308 300 297 296 296 296 295 294
313 314 312 311 313 310 310 314 314 314 316 314 311 313 312 308 308 309 310 312 313 313 311 312 314 315 313 316 317 316 316 312 312 312 311 310 305 301 299 298 297 295 293 292
312 308 312 312 312 311 311 312 311 310 314 313 311 314 311 309 309 309 309 309 312 312 311 314 315 315 314 313 314 313 313 311 311 311 309 306 303 301 299 298 296 295 293 291
312 308 307 309 310 311 313 314 310 313 311 314 314 312 310 309 308 308 310 308 307 310 312 313 314 314 312 311 311 312 310 308 308 307 304 302 301 299 297 296 295 293 291 290
307 305 307 310 309 310 312 311 315 314 315 314 312 311 311 310 309 307 308 309 311 311 312 313 312 309 309 307 308 309 309 306 304 303 302 299 298 297 296 294 293 291 290 289
307 308 309 312 313 312 314 314 314 312 313 310 310 309 308 312 313 315 311 305 309 312 313 312 309 305 302 303 303 303 302 302 300 299 298 296 295 295 294 293 291 290 289 289
309 312 312 310 310 311 311 313 313 315 311 310 308 310 312 312 312 314 313 311 311 312 311 307 304 302 301 299 299 298 297 298 298 297 296 295 294 293 293 291 290 289 289 288
310 313 311 309 315 312 314 313 313 313 314 312 309 309 307 308 309 313 315 314 312 310 307 304 303 301 298 296 295 295 295 295 295 295 294 293 293 293 291 290 289 288 288 288
311 314 313 315 315 315 315 315 313 313 315 312 311 309 307 308 312 312 314 315 313 310 308 305 302 299 297 295 293 293 293 294 294 294 293 293 292 291 290 289 288 288 288 288
313 316 315 315 315 315 316 317 314 314 313 312 311 310 310 311 312 312 313 315 316 311 308 305 301 298 296 293 292 292 293 293 293 293 293 292 291 290 289 288 287 287 287 287
314 317 316 317 317 317 317 317 317 315 315 312 311 311 310 312 312 312 311 314 316 312 309 305 301 297 295 293 292 291 292 292 293 293 292 290 290 289 288 287 287 287 287 286
316 316 318 320 319 320 325 318 318 316 313 313 313 312 310 313 315 314 313 315 316 313 309 305 300 298 296 293 292 291 292 292 293 292 290 290 289 288 287 287 287 287 286 286
316 317 317 320 322 327 321 319 317 316 315 313 312 312 315 316 314 312 312 313 313 312 309 304 300 297 294 293 293 293 293 292 292 291 289 289 288 287 286 287 287 286 286 285
313 318 323 325 324 320 317 319 318 316 318 315 316 314 314 314 311 312 310 311 312 310 307 303 300 296 293 293 293 293 292 292 291 289 289 288 287 286 286 287 286 286 285 284
314 316 322 322 325 325 318 312 315 316 325 318 316 316 315 312 316 315 309 309 308 307 305 300 296 294 293 292 293 292 290 291 290 289 288 287 286 286 286 286 286 285 284 283
321 322 323 323 323 319 315 313 313 319 315 314 316 316 317 315 312 305 304 304 304 302 298 296 295 293 291 292 292 290 290 289 289 288 287 286 286 286 286 285 285 284 283 283
320 321 320 319 321 318 312 311 315 311 311 312 311 310 313 305 302 301 300 299 298 296 296 293 291 290 290 291 292 289 289 288 288 287 286 286 286 286 285 285 284 283 283 282
318 316 318 317 317 313 311 312 312 310 310 309 308 305 303 301 299 298 296 295 294 292 292 291 289 288 289 291 292 288 286 287 286 286 286 285 285 285 285 284 283 283 282 281
314 312 317 317 315 313 311 310 307 307 306 304 303 302 301 298 296 294 294 293 292 291 290 289 289 288 286 290 290 288 287 287 286 285 285 285 285 285 284 283 283 282 282 281
313 313 315 315 313 311 311 309 305 304 303 303 301 300 298 296 295 294 293 291 290 290 290 289 288 286 285 288 287 287 286 286 285 285 285 284 284 284 283 283 282 282 281 282
309 315 316 317 315 313 310 306 304 304 303 301 301 299 297 297 295 293 292 290 289 288 287 286 285 284 285 286 285 285 285 286 285 284 284 284 284 283 282 282 282 281 281 281

GFSCGP_925_thetae_039.txt.gz
Theta_e
311 314 315 314 312 311 313 315 315 314 313 313 314 315 314 314 313 314 314 315 316 317 317 317 318 318 318 318 319 322 324 328 330 332 332 327 328 326 325 326 324 321 320 313
312 314 311 310 310 311 312 313 313 312 311 312 313 313 312 311 312 312 312 313 314 315 316 317 316 317 317 318 318 321 325 328 329 328 325 322 321 314 318 316 314 312 309 305
312 310 310 311 311 312 312 314 313 312 311 311 311 312 310 309 309 309 311 311 312 314 315 317 315 315 318 317 318 320 324 326 326 327 325 320 314 310 307 305 305 301 302 301
311 311 311 311 312 311 313 310 312 312 313 313 310 314 310 309 309 309 308 309 311 311 312 315 316 315 317 319 319 320 322 324 324 324 323 321 312 306 301 300 299 298 299 300
311 311 312 312 311 310 312 310 311 312 314 313 313 315 313 309 310 309 309 309 308 310 312 314 316 316 317 319 321 321 321 321 321 320 320 314 309 303 299 297 297 296 295 297
311 309 310 310 310 310 310 311 313 314 316 317 313 314 313 311 310 310 308 309 310 311 313 315 315 315 317 319 322 321 319 317 316 316 314 313 310 300 296 295 295 294 294 293
314 314 313 311 312 311 311 315 314 313 315 313 310 314 313 309 308 308 308 308 308 311 314 314 314 317 317 318 318 317 316 312 312 312 310 309 305 300 298 295 294 293 292 292
313 310 312 312 313 311 312 313 313 310 311 312 310 315 312 308 309 309 309 308 308 310 312 313 315 317 317 317 314 313 311 308 308 308 306 304 301 299 297 297 295 294 293 292
312 311 306 309 310 311 312 313 311 311 310 312 311 310 309 309 308 308 308 309 310 308 311 313 314 316 317 315 314 312 309 307 307 306 305 302 301 300 297 295 295 293 292 291
310 312 305 308 309 310 310 310 313 313 315 315 312 311 310 309 308 309 313 314 311 308 309 313 315 315 315 314 310 308 307 305 305 304 304 301 298 297 295 294 293 292 291 290
309 308 307 310 311 310 312 312 314 314 315 315 313 310 306 307 309 314 313 314 312 307 312 314 314 312 310 307 306 303 303 302 300 300 299 297 295 295 294 293 292 291 290 289
309 311 309 308 308 309 310 312 312 315 316 314 314 312 310 311 313 313 315 315 313 311 312 312 307 305 305 303 301 301 298 297 296 296 296 295 294 293 293 291 290 290 289 289
309 313 312 307 311 310 313 312 312 313 313 315 314 311 307 307 307 310 313 315 311 308 306 304 304 304 302 300 298 297 294 293 294 294 294 292 292 292 291 290 289 289 288 288
309 312 309 312 311 313 315 315 312 313 315 313 314 311 308 307 308 310 311 315 311 308 305 305 303 301 298 297 296 293 292 292 292 293 292 292 292 291 290 289 288 288 288 288
311 315 313 312 313 314 315 315 315 314 313 315 312 312 310 309 311 310 311 314 313 308 306 303 300 299 296 294 293 292 291 291 292 292 292 291 290 290 289 288 287 287 288 287
312 316 316 316 316 316 318 318 316 317 314 314 313 313 310 308 311 312 312 315 315 309 306 302 299 297 295 293 292 291 290 290 293 292 291 290 289 288 288 287 287 287 287 286
315 316 318 318 317 319 325 321 318 317 314 314 315 313 310 310 311 313 315 315 316 310 305 301 298 296 294 293 292 291 290 291 292 291 289 289 288 287 287 287 287 287 286 286
315 315 317 319 320 324 320 318 319 318 316 314 313 311 311 312 312 313 311 313 315 309 304 300 298 295 292 292 291 290 291 291 291 289 289 288 287 287 286 287 287 286 286 285
313 315 321 323 324 320 318 314 319 319 319 315 314 312 311 312 312 311 310 311 312 308 304 301 297 294 292 291 291 290 290 290 289 288 288 287 287 286 287 287 286 286 285 284
313 313 318 320 324 325 317 313 314 314 324 315 313 314 315 314 317 313 307 310 309 306 302 298 295 293 292 290 291 290 289 289 288 288 287 287 287 287 287 286 286 285 284 284
318 316 317 320 323 317 315 311 314 319 321 311 314 315 315 316 310 305 305 305 305 302 298 296 295 293 291 290 291 289 289 287 288 287 287 286 286 287 286 286 285 284 284 283
320 322 321 320 321 319 312 310 314 311 310 311 311 313 315 305 303 301 300 299 299 297 296 294 292 290 290 290 291 289 287 287 287 287 286 286 286 286 285 285 284 283 283 282
317 315 315 315 316 312 311 312 310 309 309 309 308 307 308 303 301 300 298 296 295 294 293 291 290 289 289 290 290 287 285 287 287 286 286 286 285 285 285 284 283 283 282 281
312 310 316 316 315 312 312 309 307 305 306 303 303 302 301 298 297 295 294 293 292 291 290 289 289 288 287 288 288 288 287 287 286 285 285 285 285 284 284 283 283 282 281 281
311 311 314 315 313 312 310 308 306 304 303 301 299 298 297 296 295 294 292 291 290 290 290 289 288 286 284 287 287 287 287 286 285 285 285 284 284 284 283 282 282 281 281 282
309 313 316 317 314 312 310 307 304 304 302 300 299 297 296 295 293 292 291 290 289 288 287 286 285 284 284 286 285 285 286 286 285 284 284 284 283 283 282 281 281 281 281 281

GFSCGP_925_thetae_042.txt.gz
Theta_e
314 316 317 316 316 316 315 316 317 315 314 314 314 314 314 313 314 314 315 316 317 318 319 319 320 321 322 321 321 322 323 327 331 333 335 337 334 329 325 324 327 323 321 322
315 315 314 313 314 314 315 316 316 314 312 313 313 314 313 313 313 314 314 314 313 314 315 317 318 320 321 321 321 323 324 328 331 332 331 331 326 318 319 320 318 314 317 318
315 313 311 313 314 314 315 315 315 314 313 312 314 316 316 313 312 312 312 312 313 313 313 314 315 318 321 321 322 322 325 329 330 330 330 322 314 310 309 306 310 308 309 307
314 313 312 313 313 313 315 312 313 314 314 317 313 318 315 314 314 314 313 313 313 313 313 313 314 315 319 321 322 322 325 328 328 325 320 318 321 316 308 305 305 303 303 301
314 313 314 313 313 312 313 311 312 313 314 314 315 316 314 313 313 313 313 313 313 313 313 314 314 313 316 319 322 322 324 325 323 321 323 323 321 315 305 300 299 298 297 298
312 311 312 312 312 312 312 313 313 313 315 317 313 316 314 312 311 312 312 312 312 312 313 313 313 314 315 318 323 323 322 322 321 322 322 324 318 307 300 297 296 296 295 295
314 314 312 312 313 312 312 316 317 317 317 316 311 314 314 312 312 312 312 311 312 312 313 314 315 316 316 318 323 322 321 320 319 320 321 318 310 306 302 296 296 294 294 293
316 318 314 313 313 314 314 313 315 316 314 311 312 314 312 312 311 312 311 311 313 314 314 313 315 318 318 319 322 321 320 318 317 317 316 313 307 300 296 295 294 294 294 295
316 314 309 312 312 312 312 315 312 315 313 314 311 311 311 311 311 310 311 313 314 314 314 314 314 317 318 320 322 321 319 316 315 314 311 306 299 297 295 295 295 293 293 292
313 316 309 310 311 312 312 311 313 315 314 316 314 313 313 312 311 311 311 313 313 315 316 314 313 317 319 321 321 320 317 314 312 308 306 301 296 297 296 295 294 293 292 291
311 311 312 310 311 312 312 313 313 313 315 316 317 315 312 310 309 310 313 313 314 316 316 313 313 317 319 321 319 317 314 310 307 304 300 297 296 296 296 294 294 293 292 291
311 311 312 312 310 310 310 312 312 316 317 315 316 317 311 310 311 313 312 311 313 315 315 315 316 318 319 317 315 312 309 306 303 298 297 294 295 294 294 293 292 291 291 290
311 312 315 316 314 310 312 312 312 314 314 317 318 317 310 310 313 312 310 311 313 315 314 312 313 314 315 313 311 308 303 299 298 296 294 293 294 293 293 292 291 290 290 289
310 313 315 318 314 314 316 315 314 313 317 316 318 315 313 310 311 311 310 310 315 315 312 311 312 312 312 308 304 300 296 293 293 293 293 293 294 292 291 291 290 290 289 289
311 316 313 313 313 314 316 316 316 316 314 316 316 315 313 312 311 310 310 312 316 315 311 310 310 309 305 300 296 294 293 292 292 292 293 293 292 291 290 289 289 289 289 288
312 315 315 316 314 316 318 319 320 320 320 317 316 316 313 313 311 311 313 313 315 315 309 307 306 303 299 296 294 293 292 291 292 292 291 291 290 290 289 289 288 288 287 287
314 313 316 318 316 318 325 322 321 320 316 316 319 315 313 313 314 312 313 314 315 313 307 305 302 299 296 295 293 292 292 292 292 292 291 290 290 289 289 288 288 288 287 287
315 315 318 320 319 325 320 319 319 320 319 315 315 315 314 313 311 313 313 314 316 312 307 303 299 297 295 294 293 292 292 293 293 292 291 290 289 288 288 288 287 286 286 286
313 315 319 321 321 319 319 318 318 321 321 319 318 316 315 313 314 314 312 315 313 309 305 301 298 296 296 295 294 294 294 293 292 291 290 289 288 288 288 287 286 286 286 286
313 313 317 318 320 323 321 316 315 317 327 315 316 317 316 317 322 316 311 311 308 306 304 300 298 297 296 294 294 294 293 292 291 290 288 288 288 288 287 286 286 285 285 285
317 317 317 316 320 320 318 313 316 323 324 313 314 317 317 319 313 309 310 309 306 303 301 298 297 297 295 294 294 293 292 291 289 288 287 287 286 286 286 286 285 285 285 284
319 320 318 318 323 323 315 316 320 315 314 313 313 314 315 310 307 305 305 304 302 299 297 295 293 293 292 293 292 291 289 287 287 287 286 286 286 285 285 285 285 284 284 284
319 319 320 319 320 317 314 316 314 312 313 312 310 310 311 307 305 304 302 300 298 297 296 296 295 293 293 292 290 287 286 287 287 286 285 285 285 285 285 285 285 285 284 284
317 315 319 320 319 318 316 312 310 308 309 306 305 307 309 307 302 299 297 297 297 296 295 294 293 293 291 289 288 288 286 286 286 286 286 285 285 285 284 284 283 284 284 284
317 315 319 319 319 318 314 311 309 306 304 302 301 302 303 302 302 300 297 295 294 294 293 293 292 291 288 287 286 286 286 286 286 286 286 286 285 285 284 283 283 283 283 283
315 319 320 321 317 316 313 308 306 306 303 301 300 299 299 299 298 296 295 294 293 292 291 290 289 288 287 286 285 285 286 286 286 286 285 285 284 284 283 283 283 281 281 280

GFSCGP_925_thetae_045.txt.gz
Theta_e
315 317 318 318 317 318 317 318 319 318 317 316 316 316 316 316 316 316 317 317 317 318 320 320 321 322 322 322 324 324 325 325 326 330 335 338 339 338 339 338 335 332 326 317
316 318 316 316 316 317 318 318 318 316 316 314 315 316 315 316 316 316 316 316 316 316 317 318 319 320 321 322 324 323 324 325 328 331 334 336 338 334 330 326 327 322 316 312
318 316 314 315 316 316 316 317 317 317 315 314 315 317 318 317 317 316 316 316 316 316 316 316 316 318 320 321 323 323 324 325 329 331 334 335 329 320 319 317 313 311 313 314
316 314 313 314 315 315 317 315 314 315 316 319 315 321 317 316 316 315 315 315 315 315 315 315 315 316 317 320 323 323 324 326 330 332 333 331 323 317 311 310 308 307 305 306
316 315 315 314 314 313 315 313 313 314 314 315 316 318 316 315 314 314 315 314 314 314 314 314 315 315 314 316 322 324 324 326 331 331 332 327 322 321 309 307 305 304 302 300
314 312 313 314 313 313 313 313 313 313 315 319 316 317 316 313 313 313 313 313 313 313 313 313 314 314 315 315 319 324 325 327 330 330 326 323 326 313 305 302 301 300 299 298
314 314 312 312 314 313 313 315 319 321 319 318 313 314 314 313 313 313 313 313 312 312 313 313 314 315 314 315 316 324 325 326 328 326 326 325 325 310 305 302 300 298 297 296
316 319 314 313 313 315 314 315 318 320 318 316 313 314 313 313 313 312 313 313 312 312 313 315 316 316 315 317 317 323 325 325 324 325 325 327 316 310 305 302 298 297 297 297
317 317 312 314 313 313 315 316 313 315 313 315 312 311 312 313 313 312 312 312 312 313 314 315 316 316 316 318 318 322 324 323 323 324 325 318 313 307 301 298 297 296 296 295
315 318 312 312 312 313 313 312 314 315 316 316 315 315 316 315 314 313 312 312 312 313 314 315 315 316 315 317 319 323 323 321 321 322 319 312 304 299 296 296 296 296 295 294
313 314 313 311 313 314 314 314 313 313 315 317 319 317 315 313 313 311 311 312 313 313 314 315 315 314 315 318 321 322 322 320 319 316 309 303 299 295 295 295 295 294 294 294
312 313 315 314 311 311 312 313 313 316 316 316 317 318 313 313 312 311 311 312 312 312 315 315 316 316 318 321 323 322 319 316 313 308 303 299 295 295 295 295 294 294 294 293
312 314 316 318 314 312 312 312 312 314 315 318 319 318 313 313 313 312 312 312 311 311 314 315 315 318 319 321 320 318 314 311 306 303 298 295 295 295 295 294 294 293 293 292
312 313 316 320 317 315 316 315 315 314 317 317 318 316 314 314 315 314 311 312 312 311 315 315 315 315 316 317 315 312 309 304 301 299 296 295 295 294 294 293 293 292 292 291
312 316 314 314 313 313 315 317 317 318 316 317 316 316 316 316 316 314 313 311 311 314 316 313 314 313 313 312 309 304 302 300 297 296 295 294 295 293 293 292 292 291 291 290
312 315 314 315 314 315 319 318 318 320 321 320 320 319 316 315 313 314 312 311 313 313 312 310 311 310 306 301 299 297 295 295 295 295 294 294 293 292 292 291 291 290 289 289
314 314 316 317 316 317 324 323 322 321 320 320 320 318 315 314 314 315 314 314 314 315 310 308 307 303 298 296 295 294 293 293 293 293 292 293 292 291 291 290 290 290 289 289
315 315 315 317 318 325 319 319 319 320 320 320 319 318 317 316 315 314 312 316 314 310 307 305 301 299 295 294 293 293 293 293 293 292 292 292 291 291 290 290 289 288 288 288
314 316 318 318 318 317 317 319 318 321 322 317 319 320 318 316 315 314 313 314 311 308 304 301 297 295 294 293 294 294 294 293 293 292 292 291 291 290 290 289 288 288 288 287
313 314 317 317 319 319 320 318 315 318 327 318 316 319 320 320 320 316 312 310 307 301 299 297 296 295 295 295 296 295 295 294 293 292 291 290 290 289 289 288 288 287 287 286
315 316 316 314 318 316 316 316 317 323 324 316 314 315 319 316 314 312 309 306 305 300 299 298 297 296 296 296 296 295 294 293 291 290 289 289 288 288 288 287 287 287 286 286
318 317 317 319 320 320 317 319 322 319 316 315 314 313 312 311 309 307 307 304 302 301 301 300 299 298 297 297 295 294 291 289 288 287 287 287 287 287 287 287 286 286 286 286
319 318 322 317 318 317 317 317 317 315 315 314 312 312 309 308 306 305 304 302 299 296 295 294 294 294 293 292 290 288 287 287 287 287 286 286 286 287 287 287 286 287 286 286
317 316 319 319 320 319 319 318 313 311 311 309 307 310 311 308 306 305 302 300 299 299 298 296 295 293 290 288 287 287 287 287 287 287 287 286 286 286 286 285 285 286 285 285
318 317 319 319 319 320 315 313 311 308 306 305 304 306 311 305 302 300 299 299 298 297 296 296 294 290 287 287 286 286 287 287 287 287 287 287 286 286 286 285 285 285 284 283
317 318 321 320 318 318 316 311 309 308 304 303 303 304 305 305 303 301 299 297 297 296 294 291 288 287 286 286 286 287 288 288 287 287 287 286 286 286 285 285 285 284 282 281

GFSCGP_925_thetae_048.txt.gz
Theta_e
320 321 320 318 318 318 317 318 318 317 316 315 315 315 314 314 314 314 315 315 316 317 317 319 320 321 320 321 323 327 326 325 324 326 338 340 340 339 338 337 336 334 333 329
316 317 316 316 316 317 316 318 318 316 315 315 314 314 314 314 313 313 313 313 314 314 313 314 318 320 321 321 322 322 325 325 324 324 330 338 339 338 338 338 336 334 330 325
317 315 315 315 316 316 317 317 316 315 314 313 313 315 314 315 314 313 314 313 313 313 313 312 312 316 318 320 321 322 323 325 325 326 331 336 336 335 334 334 332 329 322 319
315 314 313 315 316 315 317 315 315 315 315 317 313 317 314 313 313 314 312 312 312 313 313 312 312 312 315 318 320 321 323 324 324 327 333 335 331 325 325 325 321 316 316 315
316 315 314 315 315 314 315 313 314 314 314 313 314 314 314 314 313 312 311 311 311 311 311 311 311 313 314 314 319 320 321 323 324 328 333 332 328 323 319 317 316 315 312 309
315 313 314 314 313 313 313 313 314 313 314 317 314 314 314 313 312 310 309 311 311 311 311 312 312 314 314 315 314 315 322 324 324 330 333 330 324 320 314 310 310 307 305 302
313 314 312 313 314 313 314 314 315 319 317 314 313 315 314 312 311 311 310 312 311 311 310 310 311 310 312 313 315 314 318 324 326 332 331 327 320 320 312 308 306 303 300 299
315 317 314 312 313 314 315 315 316 317 317 316 313 313 310 311 310 312 312 312 311 310 308 311 313 311 313 314 314 315 318 325 329 331 327 324 319 313 309 308 305 301 299 298
316 318 314 313 312 313 315 316 313 314 312 310 310 309 308 309 309 309 310 310 309 308 309 313 312 312 313 314 315 315 320 325 328 328 325 318 314 309 306 304 301 299 298 297
315 318 313 314 313 313 313 312 313 311 308 312 313 311 312 312 312 310 309 310 309 310 312 312 312 312 312 313 317 316 322 325 326 325 320 311 309 307 304 300 300 298 297 296
312 314 313 312 313 313 314 315 312 312 311 311 314 313 312 312 311 310 309 308 309 312 310 311 312 313 314 314 318 318 324 324 324 321 311 307 304 302 299 297 297 296 295 295
312 314 316 313 311 311 313 313 312 309 309 311 311 314 312 310 311 312 311 309 308 310 310 312 312 312 314 316 319 322 323 321 314 305 303 299 298 296 295 295 295 295 295 294
312 314 313 315 313 311 311 312 312 312 312 312 315 313 311 310 312 312 312 311 309 309 309 312 312 312 315 320 321 320 318 308 303 301 298 296 295 295 295 295 294 294 294 293
312 314 312 314 316 315 312 313 312 313 316 314 315 313 312 313 315 315 314 313 310 310 311 312 312 312 316 316 314 311 305 302 299 296 295 295 295 295 294 294 293 293 292 292
312 313 313 313 313 312 313 314 314 315 314 315 314 315 316 317 315 314 313 313 313 311 314 312 312 312 313 312 309 304 301 298 296 296 295 295 294 294 293 293 292 292 291 291
312 313 313 311 312 313 314 314 314 316 317 319 320 321 317 315 313 314 314 314 314 312 312 311 311 311 306 303 302 300 298 297 296 295 295 294 293 292 292 291 291 291 290 289
314 313 315 316 314 315 319 318 318 321 321 321 323 320 317 316 316 315 314 314 314 313 311 310 308 301 298 298 297 296 296 296 295 294 293 293 292 291 291 291 290 289 289 289
314 314 315 314 314 322 316 319 319 319 320 320 319 319 319 317 314 312 313 314 311 311 310 307 301 297 295 295 294 294 294 294 294 293 292 292 291 290 290 290 289 289 289 288
313 316 319 317 315 315 318 319 318 319 322 318 317 319 319 317 316 312 309 307 307 304 302 299 296 294 294 293 294 294 293 293 292 292 291 291 290 290 289 289 289 288 288 288
313 314 317 316 317 318 317 316 315 317 324 318 317 317 318 314 322 314 307 301 299 297 296 295 294 294 294 294 294 293 293 293 292 291 291 291 290 289 289 288 288 288 288 287
316 316 318 316 317 314 312 316 316 326 322 317 315 315 313 313 314 309 303 301 299 298 296 296 296 296 296 296 295 295 294 293 292 291 291 290 289 288 288 288 287 287 287 287
314 315 315 315 317 316 315 316 321 318 316 316 314 313 311 309 307 305 302 300 299 298 297 296 295 295 296 297 295 292 291 290 289 288 288 288 288 289 288 287 287 286 286 286
318 314 315 315 314 312 315 315 315 313 313 313 312 312 309 307 306 303 300 297 296 295 296 296 294 292 292 291 289 287 287 288 288 287 288 288 287 287 287 287 286 286 286 285
315 313 316 317 317 315 315 313 311 309 308 307 307 310 309 307 305 302 301 299 297 295 295 293 292 290 289 289 288 287 287 287 287 287 287 287 287 286 286 286 286 286 285 284
316 316 316 316 315 315 313 311 309 307 305 304 304 307 309 305 303 300 300 299 299 297 296 292 290 288 286 286 286 286 287 288 287 287 287 287 286 286 286 285 285 284 284 283
314 316 317 319 315 316 312 309 308 306 303 303 304 305 303 302 301 299 298 297 296 294 290 288 287 286 286 286 287 288 288 288 287 287 286 286 286 285 285 285 284 284 283 282

GFSCGP_925_thetae_051.txt.gz
Theta_e
322 322 320 317 316 316 317 316 317 315 314 313 314 314 312 311 311 312 312 310 313 314 313 316 317 318 319 320 320 322 326 333 337 340 341 340 338 338 339 337 334 334 331 332
318 320 318 316 317 318 317 315 316 315 314 313 312 313 312 312 312 312 312 310 311 313 312 311 315 317 317 319 319 320 324 326 335 338 340 340 340 338 339 337 335 335 333 333
316 314 314 314 315 316 316 316 315 315 313 311 311 312 312 312 311 311 312 311 310 311 310 309 309 313 315 317 319 320 321 324 325 328 338 339 338 337 337 336 335 334 333 332
315 314 314 315 316 314 316 312 314 314 313 315 311 315 311 311 310 311 309 309 311 310 308 309 309 309 313 314 316 318 320 321 324 323 326 337 336 332 334 335 334 333 332 328
315 315 314 314 315 314 314 312 312 312 312 310 311 312 310 309 312 311 309 306 307 308 309 310 308 310 313 314 314 315 318 320 322 324 324 329 332 332 331 329 329 324 321 321
314 312 313 313 312 312 312 312 312 312 311 311 310 312 310 311 311 310 308 307 308 308 308 308 309 310 311 312 312 313 316 319 321 323 326 329 332 330 321 316 315 314 313 313
313 313 311 312 313 312 312 311 306 318 316 311 311 312 310 310 310 310 308 307 308 307 306 307 309 309 312 313 314 313 313 315 319 322 328 330 330 329 324 315 312 310 308 307
310 313 312 311 312 312 313 311 307 311 311 315 311 314 311 308 309 307 309 309 307 309 306 308 310 309 311 312 313 313 313 314 315 324 328 329 327 321 319 313 311 309 305 304
312 314 312 311 311 312 314 312 310 309 309 305 309 307 306 307 307 306 307 308 306 305 305 308 310 310 312 313 313 313 313 314 318 327 326 323 320 321 318 312 309 307 303 301
314 315 314 313 313 313 311 310 309 302 304 309 310 309 310 311 310 308 307 307 306 307 306 308 310 311 312 312 314 314 313 314 325 325 323 317 318 318 314 309 305 303 300 298
312 311 314 313 314 313 314 315 311 307 306 306 310 311 307 310 310 310 309 309 307 307 306 306 309 311 312 312 314 315 313 319 324 318 313 315 312 311 307 305 302 300 297 298
312 313 312 310 309 310 311 312 310 302 303 303 309 312 309 309 309 309 310 312 311 310 308 305 309 311 311 313 315 316 319 320 313 311 312 308 307 304 303 301 298 297 296 296
311 313 312 315 312 312 311 313 310 308 307 303 309 310 308 307 309 310 313 312 312 312 308 309 310 310 311 316 318 317 311 306 305 307 303 300 298 299 297 297 296 295 295 295
311 312 306 310 312 311 309 311 309 312 310 311 309 311 310 310 311 313 314 310 310 311 312 310 310 310 312 312 309 304 301 300 299 298 297 296 296 295 295 295 295 294 294 293
311 308 311 311 311 312 312 311 311 307 311 313 312 312 311 313 315 316 315 311 314 314 313 313 311 310 309 305 303 300 297 297 297 297 296 295 295 294 294 293 293 293 293 292
310 308 311 308 311 312 312 312 312 312 312 313 313 314 314 316 315 316 313 314 314 314 312 311 309 306 302 302 300 297 297 296 296 295 295 295 294 293 292 291 291 292 292 291
312 310 310 310 312 313 313 314 313 313 314 316 320 319 319 319 317 313 313 312 312 311 312 309 299 298 297 297 297 296 296 295 295 294 293 293 292 291 291 292 291 290 290 290
313 312 310 309 312 319 315 315 316 316 317 319 320 320 318 318 313 310 305 308 306 304 306 299 296 295 294 294 295 295 295 294 293 292 292 292 291 291 290 290 290 290 290 290
312 312 317 315 316 312 316 319 317 317 320 319 319 317 318 314 314 310 302 299 298 297 296 295 294 294 294 294 294 293 293 292 292 291 291 291 290 290 290 289 289 288 288 288
313 313 314 313 313 315 318 316 315 316 324 318 317 317 315 312 321 313 302 298 296 295 294 294 294 294 294 293 293 293 292 291 291 290 290 290 290 289 289 290 290 289 288 287
316 315 317 312 314 313 310 314 315 321 318 315 315 317 312 314 311 303 301 298 297 296 296 296 295 295 294 293 293 293 292 291 291 291 291 291 293 293 291 288 288 287 287 287
313 313 314 314 316 312 311 315 319 315 314 316 314 313 310 307 303 301 300 299 298 297 295 295 294 293 294 294 293 292 292 292 292 292 292 292 290 288 287 287 287 287 286 286
315 310 313 311 311 308 311 314 311 311 311 311 312 310 307 306 301 299 298 299 298 297 295 293 293 294 293 292 293 292 291 293 291 287 287 288 289 287 287 287 286 286 285 285
312 309 314 314 315 312 311 310 309 307 307 306 306 308 308 306 303 300 297 296 295 294 293 292 292 290 288 288 287 287 286 287 288 290 290 287 287 286 286 286 286 285 284 283
313 312 313 314 314 313 311 310 308 306 303 303 303 306 308 305 302 301 299 297 296 294 293 291 290 289 287 287 287 288 288 290 289 287 286 287 286 286 285 285 284 284 283 282
311 313 316 317 315 314 312 308 306 305 303 303 304 303 304 301 301 300 299 298 296 293 290 289 287 287 286 287 287 287 288 288 287 286 286 286 285 285 284 284 283 283 282 282

GFSCGP_925_thetae_054.txt.gz
Theta_e
322 322 323 318 320 315 316 317 316 314 314 313 312 312 312 312 310 311 311 309 310 311 312 313 315 316 317 318 318 319 319 335 338 339 339 339 339 340 339 338 336 334 332 330
321 322 319 317 316 318 318 318 316 314 313 313 311 311 311 311 311 311 312 312 310 309 309 309 313 315 316 316 317 318 319 319 336 338 338 338 338 340 340 338 337 334 333 331
320 319 316 315 315 318 315 315 315 315 312 310 310 311 310 309 309 310 311 310 310 310 310 308 308 311 314 314 316 317 317 319 323 337 338 338 337 336 338 337 336 335 333 332
316 314 315 315 315 313 316 312 313 313 313 313 310 313 310 309 309 308 308 307 309 309 307 308 307 308 312 313 315 316 317 318 320 330 338 336 335 334 335 336 337 336 332 331
315 314 314 315 315 312 314 311 312 311 311 309 310 312 309 308 311 311 309 305 304 307 307 306 305 308 311 312 313 313 314 315 319 322 330 335 334 334 335 335 335 335 331 327
313 311 312 312 312 312 311 311 310 310 308 305 309 311 309 310 310 309 307 306 305 306 306 305 307 309 310 311 312 312 312 314 315 320 322 328 333 333 331 330 328 327 325 323
314 313 311 311 312 311 310 307 303 305 305 308 309 311 310 309 309 308 308 306 305 304 304 306 308 307 310 311 312 313 313 312 313 316 321 326 331 333 332 329 325 320 318 316
313 314 312 310 312 312 311 308 306 307 312 312 309 313 310 308 306 305 305 304 304 304 303 304 308 308 310 311 312 312 312 313 313 313 317 323 326 329 327 325 323 319 314 312
311 311 311 310 311 310 313 309 308 306 303 303 308 306 304 307 306 306 306 306 306 305 305 304 307 309 310 311 311 311 312 313 313 313 316 323 325 323 324 321 319 314 311 309
310 311 313 313 312 312 310 309 309 299 301 306 308 308 307 309 310 308 307 307 308 310 309 306 307 309 311 311 310 311 313 314 314 313 318 322 323 321 320 317 313 311 309 306
312 309 316 314 313 311 313 312 307 305 304 305 308 309 305 308 309 308 307 307 309 309 308 306 307 307 311 311 310 310 313 315 314 318 319 316 315 315 315 311 309 308 306 304
311 310 313 315 310 309 310 311 307 302 301 299 309 309 308 307 307 307 309 310 311 309 309 307 304 306 308 309 312 314 316 317 318 317 314 312 312 310 309 308 306 304 302 299
310 311 309 311 310 311 311 310 309 305 303 301 305 308 306 306 309 309 309 312 311 309 308 309 308 308 309 313 314 315 316 315 312 310 310 308 307 305 304 302 300 299 297 296
311 309 305 308 309 308 306 310 309 310 305 307 306 308 309 308 310 312 314 314 313 309 311 312 310 310 311 307 305 302 302 302 304 305 304 302 301 301 300 298 296 295 295 295
309 308 307 309 310 311 311 309 309 309 310 308 310 309 309 310 311 313 316 313 314 314 314 313 312 311 307 300 298 297 297 298 298 297 297 296 296 296 295 294 293 293 293 293
309 306 310 307 309 311 311 311 310 310 309 310 310 310 310 311 316 317 313 311 312 310 310 312 308 304 300 296 297 298 298 298 297 296 296 295 295 294 293 292 291 292 291 292
310 308 309 309 310 311 311 312 311 311 310 312 314 313 314 318 318 312 306 306 306 302 309 304 297 296 295 296 296 296 295 295 294 294 294 293 292 291 290 291 292 292 292 292
310 310 310 308 310 316 312 312 311 311 312 312 315 318 318 318 311 304 301 301 300 298 297 296 295 294 295 295 295 294 293 292 292 291 291 291 291 291 292 293 292 291 290 289
309 309 315 315 313 310 315 318 317 317 317 316 319 319 317 315 310 306 302 298 296 295 295 294 294 294 294 293 293 292 292 291 291 291 291 291 293 292 291 289 289 289 289 287
313 313 312 314 310 313 315 315 314 316 319 316 317 317 317 313 320 314 301 297 295 295 294 294 294 293 293 293 292 292 291 291 291 291 291 293 294 291 289 288 288 288 290 291
316 316 317 313 314 310 308 309 314 319 315 315 315 315 313 314 311 304 300 297 296 296 296 295 294 293 293 293 293 293 292 290 290 290 291 290 289 290 290 291 292 289 287 285
313 314 315 313 314 311 308 314 319 314 312 315 313 312 308 305 303 302 300 298 297 296 295 294 293 292 293 293 292 290 289 290 290 290 290 291 292 292 292 291 287 286 285 285
314 308 309 310 310 307 308 312 311 309 310 310 311 309 305 302 302 300 299 299 297 295 294 294 293 292 291 292 293 290 290 292 292 292 292 291 290 288 286 286 285 285 285 284
309 308 312 312 314 310 309 308 309 307 307 305 306 306 304 302 300 298 297 298 297 296 296 295 294 292 290 292 292 292 292 291 290 288 288 288 287 286 286 285 285 285 283 282
311 310 312 312 312 312 311 310 308 306 303 303 303 305 305 301 299 298 297 296 294 293 292 291 289 288 287 290 290 290 288 288 289 289 287 286 285 285 285 284 283 283 282 282
308 311 313 315 314 315 313 308 306 305 303 302 304 305 304 303 300 298 297 296 294 293 292 290 288 287 287 288 288 287 288 290 289 286 286 285 285 284 284 284 283 284 283 283

GFSCGP_925_thetae_057.txt.gz
Theta_e
323 323 325 324 322 316 315 316 317 314 313 312 312 311 311 310 309 309 310 311 311 310 311 311 313 314 316 316 315 316 317 324 338 338 339 339 338 338 338 338 337 336 334 333
322 323 321 320 322 320 318 318 317 314 312 312 311 310 310 310 310 310 311 311 310 308 307 307 310 312 314 316 315 315 315 318 331 337 338 338 338 338 339 338 338 336 335 333
322 319 317 317 318 319 317 316 315 315 312 309 309 310 310 309 309 308 309 309 309 309 309 308 306 310 312 313 315 316 315 315 319 334 337 337 337 336 336 336 337 337 336 333
317 314 316 315 316 315 317 312 313 312 313 314 309 312 309 308 307 307 306 305 306 306 307 306 306 306 309 311 313 313 314 315 315 321 336 336 335 334 334 335 336 337 336 333
318 314 316 317 315 312 314 311 311 310 310 309 310 312 309 306 310 309 307 305 303 302 303 305 305 306 308 309 310 311 312 313 315 317 332 336 333 333 333 334 334 335 335 332
312 312 312 312 312 312 310 309 308 308 307 305 308 310 307 308 309 306 306 303 302 301 302 303 306 306 307 309 310 312 312 312 312 314 321 333 334 333 333 332 331 333 333 331
313 312 311 311 312 310 308 308 306 305 304 308 308 311 309 308 308 308 306 303 304 304 304 304 303 305 308 309 310 311 311 312 312 313 315 321 331 332 333 332 330 328 328 327
314 317 312 310 311 312 311 308 306 306 308 310 308 312 310 306 304 303 305 306 306 305 303 305 304 306 308 309 310 310 311 312 312 312 312 315 320 326 330 330 329 327 325 323
310 310 310 310 310 310 312 307 307 306 302 304 307 305 302 307 306 306 306 307 307 308 307 305 305 308 309 310 311 310 310 311 311 311 311 312 316 323 326 328 326 323 323 321
309 311 312 311 311 310 310 308 308 300 303 307 306 306 305 308 308 307 306 305 306 309 309 307 304 306 309 310 311 311 310 310 311 312 313 312 314 319 324 324 321 320 317 314
309 309 316 313 313 313 311 309 305 305 304 306 309 306 303 305 308 307 305 305 307 308 307 307 306 307 307 307 306 309 309 310 312 314 314 314 316 320 320 318 316 314 312 310
310 309 316 315 310 308 309 310 306 303 302 299 306 306 306 306 305 307 306 307 309 309 308 306 305 308 309 309 312 312 313 314 315 315 315 314 315 314 314 312 310 309 307 305
309 307 304 313 311 311 311 310 305 303 300 298 303 306 304 303 305 306 310 312 314 313 311 308 309 310 308 309 306 305 304 306 308 309 310 310 309 309 308 306 305 304 302 300
309 307 304 307 308 308 305 310 307 309 306 305 305 306 306 307 307 309 310 312 311 312 311 309 309 310 310 303 300 299 299 300 302 303 304 304 304 303 303 301 300 298 297 296
308 307 307 308 309 310 309 309 309 308 308 305 308 308 308 308 308 309 313 311 310 310 306 306 310 310 302 298 298 298 298 298 299 299 299 299 299 298 297 295 294 293 292 291
307 306 308 306 308 309 311 310 309 309 310 310 310 310 309 309 309 316 311 307 307 305 300 306 301 298 296 296 295 296 296 296 296 295 295 295 294 293 292 291 290 291 291 291
310 307 308 306 308 310 310 310 310 310 308 310 312 311 311 314 317 315 307 304 303 301 299 296 295 295 295 294 295 294 293 293 293 292 291 291 291 291 291 291 291 291 291 291
308 308 310 310 309 317 310 308 310 310 310 309 311 311 312 316 314 305 302 300 299 297 297 296 295 295 295 295 294 294 293 293 292 292 291 292 292 291 291 291 292 292 293 293
307 309 313 315 312 309 314 315 311 312 316 311 311 313 317 314 308 309 302 297 296 295 295 294 294 294 294 293 293 293 292 292 292 292 292 292 291 291 291 290 290 291 291 291
310 312 311 313 312 312 311 314 313 314 319 314 315 317 316 313 318 314 299 296 295 295 294 294 294 293 292 292 292 292 292 292 291 291 290 290 291 291 290 291 291 291 292 291
316 316 316 312 313 308 306 307 314 317 315 314 314 314 315 314 310 302 297 296 296 296 295 294 294 294 293 293 292 291 290 289 290 290 291 291 291 291 292 291 291 290 289 286
313 314 315 314 314 310 307 314 318 313 312 313 313 313 312 306 303 301 298 297 296 296 294 294 293 293 293 292 292 290 289 290 291 291 292 291 291 291 291 291 288 286 284 284
313 309 309 309 308 305 307 311 310 310 310 309 309 309 305 303 302 301 300 298 295 294 294 294 293 292 293 292 291 290 289 291 291 291 291 291 291 290 287 286 285 284 284 284
308 307 309 310 311 308 308 307 306 308 307 305 304 307 302 302 302 300 299 298 296 295 294 294 293 292 292 291 291 291 291 292 292 291 289 287 286 285 285 285 284 284 283 282
309 308 311 311 309 310 310 309 309 306 304 303 302 305 302 301 300 298 298 296 296 295 294 292 291 289 290 292 291 292 292 292 289 287 286 285 285 285 284 283 283 282 282 282
306 309 310 311 310 312 311 310 307 305 304 302 303 305 302 301 299 298 297 295 294 291 290 289 290 289 289 290 290 290 289 289 288 286 286 285 284 284 284 283 284 284 284 283

GFSCGP_925_thetae_060.txt.gz
Theta_e
322 323 326 323 322 317 316 317 317 314 313 313 312 310 310 309 308 308 309 309 310 311 310 311 313 313 314 314 315 315 316 322 338 339 337 337 336 336 337 336 336 335 335 332
319 317 321 322 320 317 317 317 317 314 312 312 311 310 310 310 309 309 309 309 308 308 307 306 309 311 311 313 314 314 315 316 329 337 337 337 337 336 337 337 337 337 336 334
321 317 321 322 321 321 318 318 316 316 311 308 308 309 309 308 308 308 307 307 306 306 307 307 305 308 309 310 312 313 314 314 317 330 335 337 337 336 334 336 336 337 336 335
318 317 322 321 321 318 318 313 313 312 313 315 308 314 309 307 306 306 304 302 302 301 300 302 304 305 307 309 310 311 312 313 314 324 334 335 335 335 334 335 336 336 336 336
318 317 317 319 317 313 314 311 310 309 309 309 310 311 309 306 309 304 303 302 302 303 302 303 304 305 306 307 307 309 310 311 313 314 331 334 334 334 334 334 334 333 334 335
313 312 313 312 311 311 308 308 307 305 306 304 308 309 306 307 307 307 304 304 304 304 305 305 305 307 308 308 308 308 308 310 311 313 316 329 332 333 333 333 333 333 332 333
314 313 310 311 312 310 309 309 304 303 304 307 308 310 308 307 307 307 306 306 305 305 305 305 306 304 307 309 309 310 309 309 310 311 312 316 326 331 332 332 332 330 328 329
312 316 312 310 311 312 309 309 307 304 308 309 307 311 308 304 302 304 306 305 306 307 306 305 304 306 308 309 310 310 309 310 310 310 311 314 318 327 331 331 330 329 328 326
311 313 310 310 310 310 310 306 305 304 301 303 307 305 302 305 306 306 305 306 305 306 307 306 305 306 307 310 310 308 307 309 309 309 310 310 311 314 317 322 327 328 327 325
308 311 312 311 311 309 309 306 309 301 306 306 305 305 304 307 308 306 305 305 305 306 307 307 306 306 308 309 310 311 308 308 309 309 311 312 312 312 314 317 321 323 323 320
308 309 315 313 313 312 310 309 305 304 303 305 308 305 302 304 306 307 305 305 305 307 307 307 306 306 308 309 311 311 311 311 313 313 313 313 313 314 316 318 319 319 318 316
309 311 316 314 309 308 309 309 305 304 304 302 304 306 303 304 305 305 305 306 310 310 308 307 305 306 308 309 306 304 305 306 308 310 311 312 311 311 312 313 313 313 312 310
309 307 310 314 311 310 311 309 304 302 300 306 304 304 303 303 302 303 306 310 310 309 309 307 306 306 307 303 300 300 301 303 306 308 309 307 307 306 307 309 309 308 306 304
308 305 305 308 308 307 305 309 305 304 302 304 303 305 305 305 305 305 306 311 308 309 304 301 302 304 301 299 298 298 299 299 301 304 304 304 304 304 302 302 300 299 298 298
308 308 306 307 309 309 308 309 307 305 305 305 306 305 306 306 307 307 309 309 307 305 299 298 298 296 296 297 296 297 297 297 298 299 300 298 298 299 298 296 296 294 293 292
306 306 306 305 308 309 310 309 308 308 309 307 308 310 309 309 308 309 312 306 304 302 299 298 295 296 296 295 295 294 295 295 296 295 293 293 293 292 292 292 292 292 291 291
308 306 305 305 307 309 310 309 309 308 307 309 310 310 309 311 312 315 308 303 301 299 298 297 295 296 295 294 294 293 293 293 292 292 292 292 292 291 291 291 291 290 290 290
307 308 308 310 308 315 309 307 309 309 309 307 309 310 310 310 313 305 301 300 298 296 296 295 295 295 295 294 294 294 293 293 292 292 292 291 291 291 291 291 290 291 292 293
308 310 313 313 312 309 313 313 309 312 316 308 309 310 310 314 310 307 299 296 294 294 295 294 294 293 293 293 293 293 293 292 292 291 291 291 291 291 291 291 291 292 293 292
311 310 308 312 311 312 309 313 310 313 323 314 311 311 314 313 317 314 299 295 294 294 294 294 293 293 292 292 292 292 291 291 290 290 290 291 290 291 291 291 291 291 291 290
314 314 313 311 313 307 305 307 311 320 316 313 314 312 314 314 310 302 297 296 295 295 294 294 294 294 293 292 292 290 290 290 290 290 290 290 291 292 291 291 291 291 290 287
314 313 315 313 313 309 305 314 318 314 311 312 311 312 313 305 302 300 297 297 295 295 294 294 294 293 292 291 291 290 289 290 291 291 291 292 292 291 291 291 289 285 284 283
312 308 310 309 308 304 306 310 310 309 310 309 308 309 308 304 303 300 298 297 294 293 294 293 293 293 292 292 290 290 290 291 292 292 291 291 291 290 288 285 284 284 284 283
307 305 309 309 310 306 307 306 305 307 307 306 304 306 303 303 302 301 298 295 294 294 293 293 293 293 291 291 291 291 291 292 292 291 290 287 285 284 284 284 284 284 283 282
307 306 309 309 308 309 310 310 309 307 304 303 302 305 303 302 301 300 298 296 295 295 295 293 292 292 291 291 291 291 292 292 290 286 285 285 284 284 283 282 282 282 282 281
305 308 309 309 308 309 309 309 308 306 305 302 302 304 302 301 300 299 297 296 294 293 292 290 290 291 291 291 291 292 291 290 287 285 284 284 284 283 283 284 284 284 284 284

GFSCGP_925_thetae_063.txt.gz
Theta_e
319 322 324 322 320 316 317 317 318 316 313 313 314 313 312 311 309 310 310 311 311 312 311 311 313 314 313 314 313 314 315 318 335 338 336 335 336 336 335 335 335 335 334 333
319 321 318 320 321 317 317 317 317 314 311 313 311 311 311 311 311 311 311 311 309 308 308 307 308 309 310 312 313 313 314 315 323 335 335 336 336 336 336 335 335 335 335 335
319 315 318 322 322 319 317 318 315 316 311 308 309 312 310 308 307 306 305 305 305 304 304 303 304 306 308 308 310 311 313 314 315 327 335 336 336 335 335 334 334 337 336 336
317 317 318 318 319 318 322 315 314 313 315 319 309 318 312 307 306 305 305 306 306 305 305 304 305 305 305 306 307 308 310 311 313 315 333 334 334 334 334 333 334 336 336 335
317 319 319 315 314 316 318 313 311 310 310 311 311 314 311 306 306 306 306 307 307 306 306 307 306 306 306 307 307 307 308 309 311 312 325 331 333 333 333 333 333 334 335 334
314 313 316 314 316 315 309 309 307 306 307 311 308 310 309 308 307 307 306 307 307 308 308 307 306 307 308 309 309 308 307 307 308 309 311 328 332 333 332 333 333 333 334 331
314 314 311 312 312 310 309 311 311 310 312 312 307 310 309 306 307 307 308 308 307 308 309 309 308 307 308 309 309 309 309 309 308 309 309 313 329 331 332 331 331 331 330 329
316 318 313 310 312 313 310 313 312 309 311 309 307 312 309 304 302 305 306 305 305 308 309 309 308 306 308 310 310 310 309 308 309 308 309 310 313 320 328 330 330 330 330 329
312 315 310 310 309 310 310 311 304 304 301 307 308 306 304 305 306 306 306 306 307 308 309 309 308 307 307 309 310 311 311 310 309 309 309 310 310 310 314 321 326 328 328 328
309 316 313 310 310 309 309 306 310 304 307 311 305 305 307 307 308 307 307 307 307 308 309 309 308 307 307 308 309 309 309 310 310 311 312 312 312 312 312 312 315 318 321 323
307 310 314 312 313 311 310 309 305 305 305 308 308 305 302 307 307 307 306 306 308 311 310 309 307 306 308 308 306 305 305 307 308 309 310 311 312 312 313 314 315 316 316 317
308 310 315 314 308 308 308 309 304 306 307 304 306 307 303 302 304 304 305 305 311 309 308 305 304 305 306 302 302 301 302 303 305 307 308 308 309 309 310 310 312 311 313 313
308 307 313 314 311 309 311 308 304 303 303 306 307 307 302 303 304 303 304 306 310 308 303 302 304 305 301 298 298 298 299 300 302 305 306 306 307 309 309 309 308 309 309 308
307 305 307 310 309 309 307 309 305 305 308 307 305 305 305 306 305 306 306 309 308 304 301 299 299 298 297 297 296 296 296 297 299 301 302 302 302 302 301 300 299 299 299 298
307 308 306 307 309 308 308 310 306 304 305 309 307 305 306 305 305 306 307 309 307 303 300 299 297 297 296 295 294 294 294 294 295 295 295 295 296 297 296 295 294 294 292 292
305 308 306 307 308 308 310 309 308 307 308 306 306 308 308 308 308 308 310 307 305 302 300 298 296 296 295 294 293 293 293 293 293 293 293 293 293 293 293 293 293 293 292 292
307 306 306 307 307 309 310 309 309 308 307 309 311 310 309 309 310 314 309 305 302 298 299 297 296 295 294 294 294 293 293 293 293 292 292 292 292 292 292 292 292 291 291 292
306 308 307 309 308 315 308 306 308 309 308 307 308 309 310 309 312 305 302 301 298 296 296 295 295 295 294 294 294 294 293 293 293 292 292 291 291 291 291 291 291 291 291 291
308 311 312 311 311 308 314 310 308 311 315 307 308 309 309 310 311 308 299 297 295 294 294 294 294 293 293 293 293 293 293 292 292 291 291 291 290 290 290 290 290 291 292 292
310 308 308 307 308 311 308 312 309 311 322 314 309 312 312 314 319 315 299 295 294 294 294 294 293 293 293 292 293 292 291 291 290 290 290 291 291 291 291 291 291 291 290 289
313 313 311 310 308 308 304 307 307 319 319 312 313 313 313 314 311 302 297 296 295 295 294 294 294 293 293 292 291 291 290 290 290 291 291 291 291 291 291 291 290 290 289 287
311 312 313 312 309 309 304 311 317 315 310 311 310 310 313 307 302 299 297 296 295 295 295 294 294 293 292 291 291 290 289 290 291 292 291 291 291 291 291 290 286 284 283 283
312 306 310 307 308 305 305 309 309 307 307 307 308 307 308 304 303 299 297 295 294 294 294 294 294 293 292 290 291 291 290 291 291 291 291 291 291 289 285 284 284 283 283 283
307 304 308 309 309 305 306 306 305 306 308 306 304 304 304 304 302 300 298 295 294 294 293 293 293 292 291 291 291 292 291 292 292 291 288 286 285 284 284 284 284 283 283 282
306 305 308 307 307 308 310 308 309 309 306 304 302 303 304 302 301 300 297 295 295 294 294 294 293 292 290 291 291 292 292 293 291 286 285 284 284 283 282 282 282 282 281 281
303 306 308 309 307 308 308 307 308 308 307 304 302 303 302 301 301 300 298 295 295 295 293 292 293 292 292 292 292 292 292 291 286 285 284 284 283 283 283 284 284 284 284 284

GFSCGP_925_thetae_066.txt.gz
Theta_e
318 321 323 323 321 318 317 319 319 318 316 321 321 320 318 318 318 318 317 317 317 317 316 315 315 315 316 316 316 317 317 323 333 339 337 336 336 338 336 338 338 336 334 332
319 321 318 320 321 319 318 320 318 316 317 316 317 318 317 317 317 316 316 316 316 315 314 313 311 311 313 314 315 316 316 317 322 332 337 337 338 337 337 335 336 337 336 334
319 318 319 319 322 321 320 318 318 318 314 314 315 318 318 312 310 310 309 310 311 311 311 310 310 309 310 311 312 314 315 315 317 323 330 335 335 336 336 335 335 334 335 335
317 316 319 318 322 321 322 318 318 316 319 322 313 319 315 310 311 312 313 313 313 313 312 312 312 310 309 310 309 309 310 312 313 317 325 331 332 334 334 335 335 336 334 334
315 316 315 314 321 319 321 315 317 317 318 317 316 319 314 311 313 314 314 315 314 314 313 313 312 311 311 311 310 309 308 309 311 312 319 328 331 331 332 334 334 335 334 333
315 315 315 316 315 315 313 312 312 313 316 322 316 316 313 311 312 313 314 314 315 315 315 313 312 313 313 313 312 311 310 309 308 311 313 321 327 330 331 332 333 333 333 331
314 314 313 313 313 313 313 319 322 323 322 320 311 314 313 311 310 313 314 315 315 316 316 315 314 313 313 314 313 311 311 311 310 310 310 312 319 326 329 330 331 332 332 330
320 319 313 311 313 315 316 317 320 319 319 315 311 315 312 308 308 311 311 311 313 316 316 315 315 314 312 313 313 314 313 312 310 310 310 311 313 316 324 328 329 330 330 330
318 318 312 313 311 312 314 319 309 313 309 314 313 311 309 308 309 310 311 312 315 316 315 315 314 313 311 312 312 312 311 312 312 313 313 312 312 312 314 320 324 326 327 328
313 318 313 311 312 310 314 310 316 316 318 316 311 311 314 311 312 312 313 313 313 315 315 313 312 312 312 312 310 308 308 309 310 310 311 312 313 313 314 315 316 318 320 321
312 315 315 313 315 314 312 314 311 312 311 314 311 310 311 312 313 311 311 310 313 315 314 311 311 310 311 308 306 306 305 306 307 308 309 309 310 310 311 312 312 312 313 313
312 314 317 316 310 310 311 313 311 318 315 311 314 311 308 312 309 308 309 310 313 313 310 310 311 311 307 305 304 304 303 304 305 306 308 308 309 310 310 310 309 310 311 311
311 314 316 315 312 311 313 312 309 309 312 315 315 311 307 308 308 309 309 310 313 310 309 309 308 306 304 303 302 302 301 302 303 305 306 306 306 306 306 305 305 304 304 303
310 311 315 315 313 313 315 312 310 315 317 313 314 310 309 310 310 311 312 312 313 309 307 307 306 304 302 300 299 299 299 299 300 301 301 301 299 300 299 298 297 297 296 295
311 314 311 310 311 311 312 313 310 311 313 318 312 311 311 310 311 312 312 313 311 308 306 304 302 303 301 300 298 298 297 297 298 298 298 297 296 295 295 295 294 293 293 293
310 315 311 311 310 311 312 311 312 311 311 310 311 312 311 311 311 311 315 312 309 305 304 302 300 300 300 299 298 297 296 296 296 296 296 295 294 294 293 293 293 292 292 292
311 312 313 315 310 312 315 313 312 311 310 311 314 313 312 311 311 312 313 309 306 303 303 300 299 298 298 298 297 297 296 296 295 294 294 294 294 293 292 292 291 292 292 292
311 312 312 314 312 317 310 309 310 311 311 310 311 311 311 311 310 309 307 307 303 300 301 299 298 297 297 297 297 296 296 295 294 294 293 293 292 292 290 291 291 291 292 292
310 312 314 314 314 312 316 311 311 314 319 312 311 311 310 310 312 312 303 300 299 298 299 297 296 296 295 296 295 295 295 294 294 293 292 292 291 291 291 291 290 291 291 290
310 310 312 313 314 314 313 314 312 312 323 315 310 312 313 314 321 320 302 297 296 297 297 296 295 295 295 294 294 294 293 292 292 291 291 291 291 291 290 290 290 290 290 289
313 313 313 313 313 311 308 308 309 320 322 315 313 313 314 316 313 306 298 297 297 297 296 295 295 295 294 293 293 292 291 291 291 291 291 291 291 291 291 291 291 290 289 288
313 313 313 313 312 313 307 312 317 317 313 311 311 312 313 312 303 300 299 299 298 297 296 295 295 294 293 293 291 291 290 291 291 292 291 291 291 291 290 290 287 286 285 285
314 311 311 311 312 308 308 312 311 310 310 310 311 310 310 308 303 300 299 299 297 296 295 294 294 294 293 292 291 291 291 291 291 292 291 291 290 287 285 285 285 284 284 284
311 309 311 312 312 310 310 310 309 309 310 308 308 307 308 308 306 301 299 297 296 295 295 294 294 293 292 292 292 292 291 291 292 290 289 286 285 284 284 284 284 284 284 284
311 309 312 312 311 311 311 311 311 310 309 307 306 306 307 307 305 302 299 298 297 295 294 294 294 293 292 292 292 292 292 292 290 287 286 285 284 284 283 283 283 283 282 283
309 310 311 311 310 312 312 310 308 309 310 308 307 306 306 306 305 302 299 298 297 296 295 295 295 293 293 293 293 292 290 290 287 286 285 284 284 285 285 286 286 285 284 284

GFSCGP_925_thetae_069.txt.gz
Theta_e
320 321 319 322 319 320 317 318 318 318 319 320 319 318 318 317 318 318 318 318 318 318 318 317 317 318 318 319 319 320 321 322 331 336 341 338 339 339 340 340 339 338 336 335
319 320 319 320 318 319 318 317 318 318 317 318 319 319 318 318 318 318 317 317 317 317 317 317 316 315 316 317 318 318 319 320 321 328 338 338 337 336 337 338 338 339 338 336
318 317 317 319 321 321 322 318 318 318 318 317 317 318 318 317 317 316 315 314 315 315 315 314 313 313 313 314 315 316 318 318 319 320 326 337 337 338 338 337 336 336 337 338
316 317 317 319 321 321 322 318 317 317 318 317 316 316 317 317 314 312 313 314 315 314 313 313 314 313 312 312 312 313 314 316 317 318 319 325 333 336 336 336 336 335 336 335
316 319 321 322 319 318 322 319 319 318 319 320 318 319 318 314 314 314 315 316 315 315 315 315 314 314 314 314 313 312 311 312 313 314 316 320 325 331 332 332 333 335 336 335
317 315 315 316 316 317 314 318 318 319 320 325 320 319 315 315 315 315 315 316 316 316 315 315 315 315 316 316 315 314 313 311 311 312 314 315 321 327 330 330 331 332 333 335
314 314 312 312 313 314 316 320 325 327 325 323 316 317 316 312 314 315 315 316 317 317 317 317 316 315 315 316 316 315 314 313 312 312 312 313 317 322 326 328 330 330 332 332
321 319 311 311 315 316 318 320 329 326 324 320 313 318 316 311 311 314 315 315 317 318 318 317 317 316 315 315 315 315 315 315 314 313 313 312 314 314 317 323 327 329 329 330
320 319 312 312 312 315 318 320 313 315 314 317 314 313 311 309 311 313 313 314 317 318 317 317 316 315 315 315 314 312 312 313 313 314 314 315 314 314 314 317 321 324 326 327
315 319 314 314 313 313 316 313 318 321 319 318 315 314 315 310 312 313 314 315 316 317 317 315 314 313 314 313 311 310 310 310 311 312 312 313 314 314 315 316 317 318 319 320
315 317 317 315 318 317 315 316 314 314 315 318 314 312 314 312 313 314 314 313 315 316 316 314 314 313 312 310 309 308 308 308 309 310 311 312 312 312 313 314 313 313 314 314
314 316 318 317 312 312 313 316 315 320 319 315 318 313 312 313 313 311 312 312 315 315 313 313 313 311 309 308 307 306 306 306 307 309 310 310 310 311 310 310 309 309 310 310
313 316 318 316 314 313 314 314 313 312 317 319 317 313 312 313 311 310 311 313 314 314 312 311 310 309 307 306 305 304 303 304 304 306 307 305 305 305 304 302 301 302 302 300
311 314 317 318 316 316 318 314 312 313 319 316 316 311 310 312 311 311 313 313 315 313 311 310 309 308 306 304 303 302 301 301 302 303 303 301 301 300 299 298 297 296 295 295
313 315 313 312 312 313 314 314 313 313 315 321 313 313 311 311 312 312 315 315 316 313 310 308 308 306 305 303 302 301 300 300 300 301 300 299 298 296 296 295 295 294 294 293
312 316 313 314 312 312 314 313 313 313 312 312 312 312 312 311 313 314 315 316 314 311 307 305 304 304 304 302 301 300 300 299 299 299 298 297 297 296 295 295 295 294 294 294
313 314 315 317 312 313 316 314 313 313 312 313 314 313 313 313 313 313 314 313 312 307 306 304 303 302 301 301 300 300 299 298 297 297 297 296 295 294 294 293 293 291 291 292
313 313 314 315 313 318 313 311 312 313 312 312 312 312 312 312 312 312 311 312 308 305 303 303 302 300 300 300 300 299 298 297 296 296 295 295 294 292 291 291 290 290 291 291
311 312 314 316 315 314 315 312 312 314 317 312 312 312 313 313 313 313 309 307 304 301 302 301 300 299 298 299 298 297 297 296 296 294 293 294 292 291 290 290 290 290 290 289
311 311 313 314 316 315 318 315 313 314 323 315 313 314 315 315 320 320 306 301 299 300 300 299 297 297 297 296 296 296 296 295 294 293 292 291 291 291 291 291 290 289 289 289
313 313 314 314 314 313 311 310 310 321 322 314 313 314 314 317 315 309 301 299 300 300 298 296 296 296 295 295 295 294 293 292 291 291 291 291 290 290 290 291 290 290 290 288
313 313 313 312 313 314 313 313 315 317 315 314 313 314 314 313 306 303 301 300 300 299 297 296 296 295 295 294 293 291 291 291 291 291 291 291 291 290 290 291 289 287 287 286
313 312 312 312 313 311 310 313 311 311 313 313 312 312 311 311 305 303 301 301 301 299 298 296 295 295 293 292 292 291 291 291 291 291 291 291 291 289 287 287 287 286 286 286
312 311 311 312 312 311 311 311 313 311 312 310 310 309 309 311 308 304 302 301 300 298 297 297 296 294 293 292 292 292 292 292 293 293 292 289 287 286 286 286 286 286 285 285
312 312 312 313 312 312 312 312 313 310 310 309 308 308 309 310 309 304 302 301 299 298 297 296 295 294 293 293 292 293 293 293 293 290 287 287 286 286 285 285 285 284 284 284
310 311 313 312 311 312 313 312 310 310 310 309 309 309 308 308 309 305 302 300 300 298 297 295 296 294 293 293 294 294 294 293 290 288 287 286 285 286 287 286 286 285 285 283

GFSCGP_925_thetae_072.txt.gz
Theta_e
317 320 322 320 318 320 322 320 319 318 317 321 320 320 318 316 316 316 316 315 315 316 317 317 317 317 317 319 321 322 323 326 339 342 342 340 340 342 342 341 339 337 335 333
316 320 317 317 318 320 321 320 320 318 318 318 319 319 318 317 316 316 316 315 314 314 314 315 316 316 316 316 318 318 319 321 322 330 341 341 339 338 339 340 341 340 338 336
317 316 315 320 319 320 319 319 320 318 318 317 316 316 318 316 316 315 316 315 313 313 312 311 312 313 313 313 314 316 318 318 319 320 324 340 338 336 336 335 337 339 339 339
317 317 318 320 321 319 321 318 320 319 318 319 315 317 316 317 317 317 313 311 311 313 313 312 312 313 312 313 312 313 314 315 317 318 319 327 338 337 338 338 336 335 335 335
317 318 319 319 319 320 320 320 320 320 317 316 316 315 317 315 316 313 310 311 313 313 311 312 313 314 314 314 313 312 311 312 314 315 315 317 318 323 335 337 336 336 335 335
317 314 316 317 317 316 316 317 321 320 319 323 317 315 315 314 314 312 313 313 314 313 312 313 315 316 316 316 314 314 312 311 311 311 312 313 315 318 324 330 331 330 331 333
314 314 313 313 317 315 314 316 324 324 323 319 317 317 315 312 313 313 314 314 314 315 314 313 314 314 315 316 316 316 315 314 313 312 312 312 313 315 319 324 329 330 331 331
317 316 314 312 315 316 315 320 326 325 320 317 314 317 312 311 312 313 314 315 316 315 315 315 315 315 315 315 314 313 313 314 314 314 314 313 312 313 314 316 320 325 328 329
316 315 311 312 313 316 318 320 316 316 313 314 313 312 309 309 313 313 313 314 316 316 315 314 314 315 315 314 312 311 311 312 312 313 313 314 315 315 315 315 316 319 323 324
315 317 314 313 314 313 317 315 317 319 321 321 313 312 312 308 312 312 312 313 316 315 315 313 312 313 313 311 310 309 309 310 310 311 311 312 312 313 314 315 316 317 317 318
315 317 318 315 318 318 316 317 315 314 315 319 313 311 310 309 310 311 312 313 314 315 313 312 312 312 310 309 308 307 307 307 308 310 311 311 312 312 312 311 311 312 313 313
315 315 319 318 313 312 313 317 316 314 315 314 314 309 309 308 309 311 312 312 313 313 311 312 311 310 308 307 306 304 305 305 306 308 308 307 307 306 305 304 305 306 306 306
313 315 316 315 314 313 314 314 314 312 316 319 315 310 310 308 308 309 310 310 313 313 311 311 308 307 306 305 303 303 302 302 304 304 303 302 302 301 299 299 299 299 300 300
312 314 314 313 316 315 313 314 313 312 315 316 314 310 311 309 309 308 309 310 313 312 310 309 307 305 304 303 302 301 301 301 302 302 300 299 298 297 297 296 296 296 296 297
313 312 312 312 312 313 315 314 313 307 312 310 312 311 309 310 309 308 312 312 313 311 309 308 306 304 304 302 301 301 300 300 300 300 298 297 297 296 295 295 294 294 294 294
312 313 313 311 312 312 313 313 313 312 311 311 311 312 309 309 309 312 312 314 314 311 308 305 304 303 302 302 301 300 299 298 298 298 297 297 296 295 294 294 294 294 293 293
313 312 312 313 312 312 313 313 313 313 311 311 312 311 312 312 312 312 313 313 312 309 307 305 302 302 302 301 301 299 298 298 297 297 296 295 294 293 293 292 291 290 291 291
312 312 313 312 312 316 312 311 312 312 312 311 311 311 311 312 312 311 310 311 308 305 305 303 302 300 300 300 300 299 298 297 296 295 295 294 292 291 291 291 289 290 290 289
310 312 313 313 313 313 314 312 312 312 314 310 310 311 310 312 312 311 309 306 304 302 302 302 301 300 300 300 299 298 297 296 294 294 294 292 291 290 290 290 289 289 289 289
311 310 311 314 314 316 318 313 312 312 321 311 310 311 314 314 317 314 303 300 300 301 300 299 298 298 298 297 297 296 296 295 294 293 292 291 291 290 290 290 289 290 289 288
313 312 312 312 313 312 314 312 311 321 320 313 313 313 313 314 312 306 300 299 299 300 298 297 297 297 296 296 296 295 293 292 292 291 291 290 290 291 290 289 290 290 288 288
312 312 312 312 313 312 311 311 314 316 314 313 313 313 313 308 305 302 300 300 300 298 297 296 296 296 295 295 294 292 291 291 291 291 291 290 290 290 291 290 289 287 287 287
312 310 311 309 310 310 311 311 310 310 312 312 311 310 310 309 306 302 301 301 300 298 297 296 295 295 294 293 293 292 291 291 291 291 291 291 291 290 288 287 287 286 286 285
310 310 310 311 311 309 309 311 310 310 310 310 309 309 309 310 305 303 301 301 300 299 297 296 295 294 292 292 292 292 292 292 292 292 292 290 288 287 287 286 286 286 285 284
310 310 310 310 310 311 311 310 310 309 310 309 308 308 308 309 307 304 302 301 299 298 297 296 295 294 292 292 292 292 292 293 293 293 289 287 287 286 285 285 285 285 284 284
308 309 310 311 309 309 311 309 309 309 309 307 307 308 307 308 308 303 301 301 299 298 297 296 295 294 292 292 293 293 293 293 292 288 287 286 286 285 285 285 285 285 283 283

GFSCGP_925_thetae_075.txt.gz
Theta_e
313 317 321 318 316 316 317 319 319 318 316 318 318 319 318 316 314 314 313 313 313 313 313 315 317 318 319 319 323 336 335 342 342 341 340 338 341 340 339 338 338 336 334 333
311 318 316 318 316 319 319 318 317 316 317 319 318 319 318 317 315 314 314 314 313 312 310 310 313 315 316 316 317 319 320 326 341 341 341 341 339 341 341 340 340 338 336 334
312 315 317 318 318 319 321 318 319 319 317 316 315 316 317 317 316 313 315 314 313 312 311 309 310 311 312 313 313 314 316 317 318 328 341 341 341 339 338 338 339 340 339 338
309 311 317 318 318 318 322 317 319 320 318 321 313 316 312 315 317 314 314 313 310 310 310 310 311 312 312 312 312 312 313 315 316 317 318 336 339 338 338 335 333 330 334 337
311 316 317 320 318 317 318 319 320 321 322 315 316 313 310 312 316 316 312 309 309 309 310 311 311 313 314 314 313 312 311 312 313 314 314 315 328 335 335 336 336 337 336 334
315 314 316 317 317 316 315 318 319 320 321 322 315 313 310 313 316 313 309 309 310 310 311 312 313 315 315 315 314 314 312 312 311 311 311 312 313 314 315 321 332 337 335 335
315 313 313 315 317 315 316 318 323 323 324 316 314 314 311 310 312 311 311 311 310 310 311 312 312 313 315 315 314 314 314 314 313 313 312 312 312 313 314 317 322 328 329 330
317 317 315 313 315 317 316 317 323 325 317 316 314 316 314 307 309 312 313 312 312 312 311 313 312 313 314 313 312 312 312 313 313 313 314 314 312 313 314 315 317 322 325 327
313 316 311 314 314 315 318 319 315 316 314 312 312 311 308 308 311 312 315 315 313 313 312 312 312 312 312 311 310 310 310 310 311 312 312 313 314 314 315 315 316 318 320 323
311 316 314 313 314 313 317 314 319 315 320 318 312 311 311 309 312 312 314 315 314 313 312 310 310 310 310 309 308 308 308 309 310 311 311 312 312 312 313 314 314 315 316 316
312 312 317 314 317 316 317 319 317 315 317 317 311 310 306 308 311 311 310 313 314 313 311 309 309 309 308 307 306 306 306 307 308 309 309 309 309 309 310 310 310 311 312 312
314 315 318 318 315 313 315 318 315 313 315 312 309 312 307 305 308 308 310 312 313 311 310 310 308 307 306 305 304 304 304 305 306 306 306 305 305 304 304 303 304 305 306 307
312 312 314 315 313 312 312 315 315 311 312 313 314 310 307 307 308 309 309 311 312 310 310 308 306 304 304 303 302 302 302 303 303 303 303 302 301 300 299 299 299 300 301 301
311 312 308 311 312 310 310 313 310 306 306 312 310 310 310 309 308 307 308 309 311 310 310 307 304 303 303 302 301 301 301 301 301 301 300 298 298 297 297 297 297 298 298 298
310 309 310 311 312 313 312 313 310 304 310 309 312 310 310 309 307 306 306 308 311 310 309 307 304 301 302 301 300 300 300 300 300 299 298 296 296 295 295 295 295 295 295 294
309 309 309 307 311 311 312 312 312 310 311 310 310 311 307 308 307 307 308 310 312 309 308 306 304 301 301 300 300 299 298 298 298 297 296 295 295 294 294 294 294 293 292 292
310 308 307 308 311 311 311 311 311 311 310 310 311 309 311 309 309 310 310 312 312 309 305 304 302 301 300 300 300 299 298 297 297 296 295 294 294 293 292 292 291 290 291 292
310 310 309 309 310 313 309 310 311 311 311 309 310 310 310 310 309 309 310 310 309 306 304 302 301 301 300 300 299 298 297 296 296 295 294 293 292 291 290 290 289 289 290 290
308 309 311 310 310 310 313 311 311 311 311 309 309 309 310 311 311 311 307 306 305 302 302 302 301 300 300 300 298 297 296 295 295 294 293 292 291 290 290 290 290 290 289 288
309 307 308 311 310 315 317 311 310 312 319 310 308 309 310 312 314 313 301 300 300 300 300 300 300 299 299 298 298 297 295 294 293 293 292 291 291 291 290 290 289 289 288 288
310 309 307 309 308 310 314 312 310 320 316 312 311 311 312 313 311 306 299 298 299 299 298 298 298 298 297 297 297 295 294 293 293 292 292 291 291 290 290 290 289 288 289 289
309 313 313 311 312 310 309 310 313 314 312 313 312 312 311 307 302 300 299 299 299 297 297 297 296 296 296 296 296 294 293 292 292 292 290 290 291 290 289 290 288 288 287 287
310 308 308 308 308 307 309 310 309 310 311 311 310 310 310 307 305 302 300 300 299 297 296 296 296 295 295 295 294 292 292 292 291 291 290 291 291 291 291 289 287 286 286 285
309 307 308 309 309 308 308 310 309 309 309 309 308 308 308 309 305 302 301 300 299 297 295 296 295 294 293 293 292 292 292 291 291 291 292 291 291 289 287 287 286 286 285 284
307 308 309 308 308 309 308 310 309 308 308 308 308 308 307 307 305 302 301 300 299 297 296 296 294 293 293 292 292 292 292 292 292 292 292 290 288 286 286 286 286 285 285 284
306 308 309 310 307 309 309 307 307 307 307 306 306 306 307 306 307 302 300 300 299 297 296 295 294 294 292 292 292 292 292 292 293 293 290 286 286 286 285 285 284 284 284 284

GFSCGP_925_thetae_078.txt.gz
Theta_e
311 315 317 317 317 316 315 318 321 318 316 319 318 318 317 317 315 313 313 313 313 313 311 314 315 317 321 324 335 339 341 340 340 340 339 339 340 340 338 336 336 335 334 332
310 314 315 316 316 317 317 317 318 316 317 319 318 319 317 316 315 313 313 313 313 313 310 309 312 313 315 316 325 335 338 339 340 341 340 339 338 340 340 339 338 336 335 334
309 311 314 318 316 318 318 317 316 317 315 315 317 319 318 316 315 313 313 312 312 310 310 309 309 311 312 313 314 317 319 322 336 340 340 340 339 338 339 340 339 339 337 336
307 308 313 314 317 317 321 318 318 320 317 319 315 320 314 317 317 316 313 311 310 309 308 308 309 311 312 312 312 312 313 314 316 319 330 340 340 339 339 338 337 337 337 338
306 309 313 315 317 316 318 318 319 320 322 316 315 316 313 310 316 316 316 313 310 307 308 309 310 312 313 313 312 312 312 312 312 312 314 320 337 338 338 336 336 336 334 333
309 312 315 315 316 316 316 318 320 320 322 323 315 316 313 310 312 313 315 312 307 307 309 310 313 314 314 314 314 311 311 312 311 311 311 312 314 320 325 324 324 328 333 335
311 315 314 316 316 315 315 318 319 322 324 317 312 315 316 308 309 310 312 308 309 309 310 311 312 313 314 313 313 313 313 313 313 313 312 311 311 312 313 314 316 322 329 333
316 316 315 314 316 319 318 313 310 316 318 315 312 316 314 308 305 307 308 310 309 309 309 310 311 312 313 312 311 312 312 312 312 313 313 313 312 313 313 314 317 321 326 327
313 316 313 314 314 314 318 320 314 312 312 308 312 311 307 309 310 310 311 311 310 311 311 310 310 311 310 310 310 310 310 310 311 311 312 313 313 314 314 315 317 320 323 324
311 316 314 315 314 313 317 314 319 318 321 316 312 311 313 312 312 312 312 312 312 313 311 309 309 309 308 308 308 308 309 309 310 311 311 311 312 312 312 313 314 315 316 317
310 312 316 313 316 318 317 318 317 314 312 313 311 311 306 308 312 313 312 312 312 312 310 309 308 307 307 306 306 306 307 308 309 308 308 309 309 309 309 309 309 310 311 312
312 313 315 315 313 313 314 316 314 308 316 305 305 310 304 304 309 310 311 313 311 310 309 308 306 305 305 304 304 304 304 306 305 305 306 305 304 304 305 304 304 304 306 307
312 312 316 317 314 314 316 317 316 310 305 305 308 310 307 306 307 309 310 312 310 309 309 307 304 303 303 302 302 302 303 303 303 303 302 301 300 300 300 299 300 301 301 302
311 310 308 311 311 310 310 314 315 307 303 308 307 309 309 309 309 308 309 311 309 309 309 306 304 302 302 301 301 301 301 301 301 300 299 299 298 297 297 297 297 298 298 299
308 309 309 310 312 311 310 311 309 306 307 309 310 310 310 309 308 308 308 310 310 309 309 306 304 301 301 300 300 300 300 300 299 299 298 296 296 296 295 295 295 295 295 295
308 310 307 306 310 311 312 311 310 308 309 310 309 310 309 308 306 305 305 307 311 309 308 306 303 301 300 300 299 299 299 299 298 298 296 295 295 295 295 294 293 293 293 293
309 308 306 307 310 310 309 309 310 310 309 310 310 309 308 308 307 307 306 307 310 309 307 305 303 301 300 300 300 298 298 297 297 296 295 295 294 294 293 293 292 292 292 292
308 308 307 307 309 313 307 309 309 310 310 308 309 309 309 308 308 308 309 308 309 307 305 303 301 301 300 300 299 298 297 296 296 295 294 294 293 292 291 291 290 291 291 291
307 308 310 309 309 307 310 310 310 310 310 308 308 308 310 309 309 310 308 308 308 306 303 302 302 301 300 299 298 297 296 296 295 294 294 293 292 291 290 289 289 289 289 290
306 305 307 306 309 313 312 310 309 311 315 310 307 307 310 310 311 309 303 302 301 301 301 301 300 300 299 298 298 297 295 295 294 293 293 292 291 290 290 290 289 289 289 289
308 310 308 308 306 308 307 311 311 318 312 311 306 306 309 311 308 306 299 299 299 299 299 300 299 299 299 298 297 296 295 294 294 293 292 291 291 290 290 289 289 288 288 287
308 308 309 308 309 307 309 309 315 312 312 312 311 311 310 307 302 300 299 298 298 297 298 298 297 297 297 297 297 295 294 294 293 292 291 291 290 290 290 288 288 288 288 288
310 306 308 307 306 305 307 310 309 311 311 311 311 309 309 306 304 301 300 300 298 297 297 296 296 296 296 296 296 295 294 293 292 292 291 290 290 290 290 288 288 287 287 286
308 305 308 308 308 307 308 309 309 309 310 308 308 308 308 308 305 303 300 300 298 297 296 296 295 295 294 295 295 294 293 292 291 291 290 291 290 290 290 288 287 286 285 284
305 306 307 307 306 307 307 308 308 307 306 307 307 307 307 307 306 302 301 299 298 297 296 296 295 294 294 293 293 293 292 292 291 291 291 290 291 290 287 286 286 285 285 284
305 307 309 309 306 307 308 307 306 307 306 305 305 306 305 306 306 303 301 299 299 297 296 295 294 294 293 293 293 292 292 292 292 292 292 291 290 288 286 285 285 284 285 285

GFSCGP_925_thetae_081.txt.gz
Theta_e
311 315 317 316 317 314 316 316 318 317 316 319 318 318 317 315 315 315 316 319 313 312 313 313 314 322 333 337 338 339 340 340 339 339 338 337 339 338 336 334 335 333 332 332
309 314 312 314 316 316 317 317 318 316 316 317 318 318 317 316 316 314 313 314 312 312 311 310 311 313 317 324 333 337 339 340 339 339 339 339 339 339 339 337 334 333 333 333
309 309 311 316 317 318 316 317 315 317 315 315 317 318 318 317 314 314 312 312 311 310 308 308 308 309 313 315 317 329 337 339 339 338 339 338 338 338 339 340 339 337 334 333
306 308 313 314 317 318 320 315 316 318 315 317 315 318 314 318 317 315 315 312 310 309 307 307 308 310 311 312 313 314 316 320 325 334 338 339 339 338 338 338 339 339 338 338
307 308 313 313 317 316 319 318 318 319 317 316 314 316 314 309 315 316 315 315 310 308 306 307 308 311 312 312 312 312 312 312 313 314 319 332 338 339 339 339 338 337 337 336
307 308 313 314 315 316 317 319 319 319 318 319 314 316 315 311 311 313 313 312 311 307 307 308 311 312 312 313 311 311 311 311 311 311 312 313 318 327 334 335 336 335 334 334
310 313 313 314 312 316 317 317 320 322 323 319 312 316 318 311 307 308 309 309 307 305 307 309 311 312 312 312 312 312 312 312 312 312 310 310 311 313 315 318 319 318 321 327
314 315 314 311 314 319 316 313 310 315 320 317 311 316 315 308 307 305 305 307 306 307 308 310 311 312 311 311 312 312 312 312 312 312 312 312 312 311 311 312 313 315 318 322
315 316 312 313 314 315 318 314 311 310 308 306 311 310 308 306 308 308 307 308 308 308 309 310 310 311 310 310 310 310 310 310 311 311 311 312 313 313 314 315 317 321 323 325
310 318 315 314 314 313 314 313 315 317 309 314 311 309 312 309 310 309 309 308 308 309 309 308 308 308 308 308 308 308 309 309 310 310 311 311 311 312 313 313 314 316 318 319
310 313 316 315 317 317 317 318 316 312 310 312 311 310 304 306 308 309 309 309 310 310 309 308 306 306 307 306 307 307 307 308 308 308 308 308 308 308 309 310 310 311 312 313
311 313 316 316 313 313 314 315 314 307 316 310 301 309 305 303 305 309 310 311 310 309 308 306 305 304 304 304 304 305 306 306 305 305 305 304 304 304 304 304 305 305 307 308
312 312 317 315 314 313 315 315 315 309 304 304 307 310 306 305 307 309 311 311 310 308 307 305 303 303 302 302 302 303 303 303 303 303 303 302 301 300 300 299 300 301 302 302
310 310 308 311 311 314 316 315 314 314 313 309 305 310 307 308 309 309 312 312 309 309 309 305 303 302 302 301 301 301 302 302 301 301 300 299 298 298 298 298 298 299 299 299
308 310 308 309 311 310 310 311 314 314 312 310 311 308 308 307 307 308 310 311 309 309 308 306 303 301 301 300 300 300 301 300 300 299 298 297 297 296 296 296 296 296 296 296
307 308 307 306 310 311 312 310 312 313 312 310 309 309 307 307 305 307 307 310 310 310 309 306 303 301 300 300 299 299 300 299 299 298 297 296 296 295 295 294 293 293 293 293
308 307 305 304 309 310 308 309 309 310 308 310 311 310 307 308 307 307 305 309 310 309 307 307 304 302 300 300 300 299 299 298 298 297 296 295 295 295 294 293 293 293 293 293
307 306 307 307 308 309 304 308 308 310 309 307 308 308 307 306 306 305 305 306 307 308 306 304 303 302 302 301 299 299 298 297 297 296 295 295 294 293 292 292 292 292 292 292
305 307 309 309 308 306 309 309 309 309 309 308 308 307 309 308 308 310 308 307 305 306 305 304 304 303 301 300 299 298 296 296 296 295 294 294 293 292 291 291 291 291 292 292
304 304 306 304 308 311 309 310 307 308 311 310 307 307 309 309 310 308 306 304 304 303 303 302 302 301 300 299 298 297 296 295 295 294 294 294 293 291 290 290 290 290 290 290
308 309 311 308 305 307 304 310 308 315 309 310 306 306 308 310 306 305 300 300 300 300 300 301 300 300 300 299 298 296 296 295 295 294 293 292 291 291 290 290 290 289 289 288
307 306 307 308 311 306 307 309 312 309 312 311 308 307 308 308 304 301 300 299 299 298 299 299 299 298 298 298 297 296 295 295 294 294 292 291 291 290 290 289 288 288 287 286
308 305 307 305 305 303 305 308 308 311 311 311 311 310 308 305 304 301 300 299 298 298 298 298 298 297 297 297 297 296 296 295 294 292 292 291 290 290 290 289 288 288 288 287
307 304 308 308 307 305 307 308 308 308 309 308 307 308 309 309 305 304 301 299 298 298 297 297 296 295 295 296 296 296 295 294 293 292 291 290 290 290 289 288 288 288 287 285
305 306 307 306 306 305 306 307 308 307 306 306 307 307 307 308 307 305 302 300 298 297 297 296 296 295 295 295 295 295 294 293 292 291 291 290 290 289 289 288 287 286 286 285
305 307 308 308 306 306 306 306 306 307 307 305 306 306 304 305 306 304 302 301 299 297 297 296 295 295 295 294 294 293 292 292 292 291 291 290 290 289 289 287 286 285 284 284

GFSCGP_925_thetae_084.txt.gz
Theta_e
303 312 312 314 317 312 312 316 317 316 316 318 316 317 316 315 321 321 322 322 320 316 313 315 315 318 335 337 338 339 342 341 341 340 337 338 339 339 340 339 337 335 336 336
306 311 311 314 314 316 312 317 317 316 316 318 316 317 316 313 315 317 321 321 319 318 313 312 313 314 315 333 337 338 338 339 339 340 339 337 338 339 338 336 335 333 334 335
306 310 313 313 315 318 313 315 315 316 315 314 315 317 317 316 314 312 313 317 318 318 317 309 309 311 312 316 329 333 337 338 339 338 339 338 337 337 337 338 338 337 333 332
307 310 312 312 313 316 318 313 315 314 315 320 315 319 312 316 316 313 313 311 313 315 309 307 307 308 310 312 315 319 328 335 337 338 338 337 337 337 338 338 338 338 338 337
307 309 311 312 313 316 318 315 316 315 314 313 314 316 313 310 315 317 315 313 312 310 308 306 306 309 310 311 311 313 316 317 320 322 331 336 337 338 338 337 337 337 336 337
307 307 310 310 309 316 316 318 318 316 315 314 312 315 313 311 311 311 311 312 312 311 308 306 308 310 311 311 310 310 311 311 311 312 312 314 317 325 331 334 335 336 336 336
309 311 312 312 311 316 318 315 322 323 322 316 311 314 316 310 307 308 308 309 310 309 307 307 309 310 310 310 311 311 311 311 312 311 310 310 311 312 314 320 325 327 326 326
310 314 313 312 312 317 318 313 309 313 317 316 311 315 314 309 308 307 306 306 306 306 306 308 310 310 310 311 311 311 311 311 312 312 312 311 311 310 310 311 312 313 315 317
312 315 311 312 314 315 317 317 308 307 305 308 311 309 307 307 306 305 305 305 305 305 307 309 309 309 309 310 310 311 311 311 311 311 312 312 312 313 313 314 315 318 319 321
311 317 313 311 314 313 314 312 313 312 309 314 311 309 311 310 308 307 307 306 306 307 308 308 308 307 308 309 309 309 309 310 310 310 310 311 311 312 312 313 314 315 317 319
311 313 316 311 314 316 317 314 314 311 307 310 311 311 303 307 305 304 307 306 307 308 307 307 305 306 306 307 307 308 308 308 308 308 308 308 308 308 309 309 310 311 311 313
311 314 316 316 313 312 313 314 313 309 312 307 302 310 305 303 302 303 307 308 308 308 307 305 304 304 304 305 305 306 306 306 306 305 305 305 304 304 305 305 305 306 307 309
311 312 317 316 313 313 315 313 311 306 305 311 308 311 305 305 305 307 308 308 308 307 306 303 302 301 302 303 303 304 304 304 304 303 303 302 302 301 301 301 301 302 302 303
311 310 310 312 311 312 314 313 312 306 304 309 306 308 308 307 307 308 309 309 307 307 307 303 301 301 301 302 302 303 302 302 302 302 301 300 299 299 299 299 299 299 299 300
309 310 308 309 310 311 312 312 312 310 310 310 310 309 309 307 305 306 309 309 308 308 307 305 303 300 300 300 300 301 301 301 300 300 299 299 298 297 297 297 297 297 297 297
306 310 307 307 310 310 311 309 311 312 312 310 309 308 305 305 305 306 308 309 310 309 308 305 303 300 300 300 300 300 300 300 299 299 298 297 296 296 296 295 294 295 294 294
308 306 305 305 309 309 308 308 310 312 310 312 312 312 309 307 306 306 306 309 311 309 308 307 304 302 301 301 300 300 300 299 298 298 297 296 296 296 295 294 294 294 294 293
306 306 306 308 307 309 305 307 307 309 309 308 308 307 306 306 305 304 304 307 308 308 307 306 304 303 303 302 300 300 299 299 298 297 296 295 295 295 294 293 293 293 292 292
304 306 308 308 308 306 308 308 308 309 309 307 307 308 307 308 306 306 303 303 305 305 305 306 306 305 303 302 300 299 298 297 297 296 295 295 295 294 293 292 292 292 292 292
303 303 306 305 307 309 307 310 306 307 310 308 306 307 306 307 308 307 306 305 305 305 305 304 304 303 302 300 299 298 297 296 296 295 295 294 294 293 292 291 291 291 292 291
308 310 308 310 307 306 303 305 306 313 308 309 306 305 306 308 305 303 301 301 301 301 301 302 301 301 301 299 298 297 296 296 296 295 295 294 293 292 291 291 290 290 290 290
307 305 307 310 312 307 304 308 311 307 310 311 308 305 306 307 305 302 300 300 299 298 299 299 299 299 299 299 298 297 296 296 295 295 294 293 292 291 290 290 290 290 289 287
308 304 306 305 306 302 303 307 307 309 311 310 310 308 306 306 305 302 301 299 298 299 298 298 299 298 298 298 298 296 296 295 295 294 293 292 291 291 290 290 289 288 287 286
306 303 306 307 306 304 303 305 307 308 310 307 307 308 308 307 305 304 301 299 299 298 297 298 297 297 297 297 297 297 296 296 294 293 292 291 290 290 290 290 288 287 287 286
305 305 306 306 305 304 304 305 307 307 306 306 305 306 306 307 307 306 304 301 299 298 297 297 297 296 296 296 296 296 296 295 293 293 292 291 290 290 290 289 288 288 288 287
304 307 307 307 305 305 304 305 306 306 307 305 305 305 303 303 304 305 303 302 300 298 297 296 296 296 296 295 295 294 294 294 293 292 291 290 290 290 290 288 287 287 286 285

GFSCGP_925_thetae_087.txt.gz
Theta_e
304 308 314 313 312 313 315 317 319 317 316 320 319 318 317 319 321 320 322 323 322 322 320 317 315 317 332 336 338 336 336 337 338 339 339 340 340 340 339 338 339 338 336 335
305 308 311 311 313 316 315 317 318 316 316 320 318 319 317 315 321 321 322 322 322 321 320 315 315 313 314 330 335 335 338 339 339 339 339 338 339 339 340 340 339 339 338 335
305 308 310 313 312 313 314 317 316 317 316 314 317 320 318 316 314 316 318 321 320 321 320 318 313 315 313 313 326 335 337 338 339 339 339 338 336 336 337 338 338 337 335 334
307 309 311 311 315 313 315 314 315 317 319 321 314 321 314 317 316 315 317 315 319 319 318 311 309 311 313 313 313 322 332 336 337 337 337 338 337 336 337 337 337 337 338 338
308 311 313 312 312 309 317 313 315 313 314 314 316 320 316 310 318 317 314 312 312 314 314 314 310 310 310 310 310 314 319 329 335 337 337 337 337 337 336 336 336 336 336 336
306 306 310 311 309 309 309 316 316 316 314 318 313 318 316 313 313 316 317 314 314 313 312 311 309 309 310 311 310 311 315 317 318 322 328 333 335 335 335 335 336 336 336 336
310 309 312 309 311 309 309 317 321 320 319 316 310 316 317 311 309 309 311 312 312 313 314 312 309 310 310 310 309 310 310 311 310 310 311 311 311 312 313 316 321 325 327 328
308 310 311 311 309 313 317 313 314 316 318 316 311 318 316 310 309 307 307 306 306 310 309 309 309 310 310 310 310 311 311 311 311 311 311 311 311 310 310 310 311 313 315 317
312 315 310 312 310 310 318 313 307 308 305 314 314 310 308 307 307 306 306 306 306 305 306 308 310 310 309 310 310 311 311 311 311 311 312 312 312 312 312 312 313 314 315 315
311 314 312 312 312 313 315 312 315 310 313 317 312 310 313 310 309 306 307 307 306 306 306 309 309 308 309 309 309 310 310 310 310 310 311 311 311 311 311 312 313 315 316 318
311 313 314 312 313 317 316 318 312 311 310 314 314 312 306 308 306 304 303 305 306 307 308 309 307 306 307 307 308 308 309 309 309 309 309 309 309 309 309 310 310 310 312 313
309 314 316 314 313 313 313 314 311 312 315 303 307 313 305 304 303 302 304 307 307 308 308 307 305 304 305 305 306 307 307 307 307 307 307 307 306 306 306 306 306 306 308 308
311 313 317 316 312 313 315 313 308 306 307 311 314 313 304 304 306 306 308 308 308 308 307 305 304 303 303 304 305 305 305 305 304 304 304 303 303 303 302 302 302 302 303 304
312 310 309 310 309 311 314 313 309 307 309 311 309 311 310 309 308 305 309 308 308 308 307 305 303 302 302 303 304 304 303 303 302 303 301 301 301 301 300 300 300 300 300 301
310 313 308 309 309 311 312 312 311 306 308 311 309 309 310 307 306 304 306 308 308 308 307 306 304 302 301 301 302 302 302 302 301 301 301 299 299 298 298 298 298 298 298 298
306 311 307 308 309 310 312 310 310 311 311 310 309 310 305 305 304 305 307 309 309 309 309 306 304 302 300 300 301 301 301 301 300 300 300 299 298 297 297 296 296 296 295 295
308 308 307 307 308 308 307 307 309 311 309 311 312 311 307 307 306 306 306 309 310 310 309 307 306 304 301 301 301 301 301 300 299 299 298 297 297 296 296 296 295 295 294 293
306 305 307 309 307 308 304 306 307 309 309 309 310 308 308 308 306 304 304 307 309 309 308 308 306 304 304 303 301 301 300 299 298 298 297 296 296 296 295 295 294 294 293 293
304 306 308 310 308 306 308 308 308 309 309 307 309 309 306 307 306 306 303 303 307 307 307 307 308 307 306 304 302 300 299 299 298 297 296 296 295 295 294 293 293 293 292 292
303 303 307 306 308 309 306 309 306 306 311 307 306 306 305 306 309 307 304 304 304 304 305 306 307 306 305 303 301 299 298 298 297 297 296 295 295 295 294 293 292 292 292 292
307 309 309 309 308 306 303 303 305 312 309 308 307 305 304 307 305 303 302 301 301 301 302 303 303 303 303 302 300 298 298 297 298 297 296 295 295 294 293 292 292 291 291 290
306 306 307 309 310 306 302 308 311 307 309 311 309 304 305 305 304 302 300 300 300 300 300 300 300 300 300 300 299 298 297 298 297 296 295 294 294 293 292 291 291 291 290 289
307 304 305 305 305 302 301 307 306 306 310 310 310 307 305 305 305 302 301 300 299 299 299 299 299 298 298 298 298 298 298 297 296 295 294 294 293 292 291 290 290 289 289 288
305 301 305 305 305 303 303 302 303 307 309 307 307 307 306 306 304 303 301 300 299 298 298 298 298 297 297 298 298 298 297 296 295 294 294 293 292 291 290 290 290 289 289 287
304 304 305 305 304 304 304 303 306 307 306 305 305 305 305 306 306 305 304 301 300 299 298 298 298 298 298 297 297 297 297 296 295 294 293 292 291 290 290 290 290 289 289 286
302 305 306 307 304 304 304 303 305 306 306 305 305 303 301 302 303 303 302 301 301 299 298 297 297 297 297 297 296 296 296 295 295 293 292 291 291 290 290 289 289 289 288 287

GFSCGP_925_thetae_090.txt.gz
Theta_e
305 312 313 314 313 313 313 314 315 316 320 322 321 320 320 319 321 321 321 322 323 324 324 322 319 317 335 338 339 339 337 339 339 339 340 341 340 340 339 339 339 339 338 337
307 311 310 311 311 315 316 314 317 315 320 321 320 321 320 320 320 320 321 320 322 324 325 323 320 316 324 336 338 339 336 334 337 339 338 337 338 338 339 339 338 338 338 338
308 310 309 312 314 313 316 314 316 318 319 319 320 321 319 319 319 319 320 321 321 324 324 323 321 318 316 316 331 335 335 325 330 335 335 335 336 336 336 337 337 338 337 337
307 309 311 313 313 312 317 313 316 318 319 320 320 319 319 319 320 320 320 321 322 324 324 323 320 317 315 314 314 319 333 334 329 324 335 336 336 337 336 336 338 338 337 336
310 313 313 314 313 311 317 315 315 317 318 319 321 322 318 317 321 321 320 320 321 322 322 322 318 317 314 314 312 313 318 331 334 335 328 336 337 337 337 336 336 336 336 337
307 308 311 312 311 312 310 315 317 317 319 321 317 320 316 317 317 319 319 320 320 319 320 320 319 314 314 313 313 311 313 319 327 330 332 336 336 337 336 335 335 336 336 336
308 310 311 311 313 310 309 317 321 321 321 318 314 319 317 316 315 316 317 319 320 319 319 319 319 315 314 313 313 312 312 314 317 319 324 330 328 327 327 328 327 328 327 328
311 311 312 310 312 314 312 316 317 315 316 314 315 319 314 315 315 315 314 314 314 318 319 319 318 317 314 312 313 312 313 313 312 311 312 311 311 311 311 311 312 315 317 320
314 314 311 310 308 311 317 319 312 316 313 315 315 315 314 313 314 313 313 313 313 313 314 317 317 315 314 313 313 313 313 313 313 313 312 312 311 311 312 311 312 312 313 314
313 315 311 312 310 309 310 314 319 319 320 317 316 315 311 314 314 312 312 313 313 312 312 311 313 314 313 312 312 312 312 312 312 311 311 310 310 311 311 311 312 314 315 316
309 314 315 312 313 315 315 319 315 316 318 317 317 315 312 311 312 311 310 310 310 312 312 312 312 312 312 311 310 310 310 310 309 308 308 307 307 308 309 309 310 311 312 313
308 314 315 317 313 313 314 317 315 320 319 313 317 315 308 310 310 310 312 312 311 311 312 312 312 311 311 310 310 309 308 307 306 305 305 304 304 304 304 304 306 307 307 309
312 317 318 318 315 314 314 315 313 313 316 318 317 315 309 308 310 311 312 313 312 312 313 312 311 311 311 310 310 308 307 305 304 304 303 303 302 302 302 301 302 303 304 305
313 313 313 316 314 315 317 317 314 317 320 317 317 314 313 311 312 312 310 313 313 313 313 313 312 311 310 309 308 307 306 304 303 302 302 301 301 301 300 300 299 299 300 300
313 317 312 312 312 313 314 316 314 315 316 320 315 314 314 313 312 311 310 312 313 314 313 313 312 311 309 308 307 306 305 303 302 302 301 300 299 298 298 298 298 298 298 298
311 314 311 312 312 313 314 314 315 315 315 314 312 313 310 311 311 310 311 312 313 314 313 313 312 311 309 308 307 306 304 303 301 301 300 299 298 297 297 297 296 296 296 296
311 313 314 315 310 311 312 310 313 313 313 314 316 314 312 311 310 311 312 311 314 313 314 313 312 311 309 308 306 305 304 302 301 300 299 298 298 297 297 297 296 296 296 295
309 309 311 312 310 310 307 308 309 311 311 312 312 312 312 312 312 310 309 310 312 314 313 314 313 311 309 307 305 304 303 301 301 300 299 298 298 297 296 296 295 295 295 294
307 310 312 313 311 310 312 311 311 311 312 310 311 311 311 311 310 311 309 307 309 313 314 313 313 312 310 307 305 303 301 301 300 300 299 298 297 297 296 295 295 294 293 293
307 308 311 312 312 310 311 310 308 309 317 311 311 311 310 309 312 311 307 307 306 308 311 312 311 310 309 307 304 302 301 300 300 299 299 298 296 296 295 295 294 293 293 292
311 312 313 311 311 309 307 308 308 315 316 312 311 309 308 310 310 307 305 305 304 305 305 305 306 307 307 304 302 302 301 300 299 298 297 296 295 295 295 294 293 292 292 292
310 310 311 311 310 310 305 310 313 312 311 313 312 307 308 309 307 306 304 304 304 304 303 302 304 303 301 301 301 301 300 299 298 297 296 295 294 294 294 293 292 291 291 290
310 309 310 309 309 307 305 310 309 309 311 312 312 308 308 308 308 306 306 304 303 303 302 301 302 301 300 299 300 299 299 298 297 296 296 295 293 293 293 292 291 290 290 288
308 305 308 308 308 307 307 306 305 308 311 309 310 310 309 309 308 307 306 305 304 302 302 301 301 300 300 299 298 299 298 297 296 296 295 294 293 292 292 291 291 290 289 288
308 306 309 309 308 309 307 307 307 309 308 308 308 308 309 309 308 308 306 304 303 301 299 299 301 301 300 298 298 297 297 296 296 296 295 292 292 292 291 290 290 290 290 290
307 309 310 310 307 307 308 307 306 308 308 307 307 306 304 306 306 306 305 304 303 302 300 299 298 299 299 298 298 297 297 296 296 295 294 292 292 291 291 289 289 290 290 290

GFSCGP_925_thetae_093.txt.gz
Theta_e
306 310 314 314 313 314 317 316 315 313 318 319 321 319 320 321 322 322 321 322 323 324 325 324 323 333 337 338 339 340 341 341 341 340 341 340 339 339 340 339 340 340 338 338
308 310 310 311 313 315 315 318 315 313 319 319 320 320 320 320 321 321 321 321 321 322 324 325 323 325 336 338 339 339 338 340 341 341 341 340 340 340 340 339 340 340 340 339
308 310 309 311 314 314 315 318 317 314 319 319 320 320 320 319 320 320 320 320 320 321 323 325 323 322 333 337 338 338 335 337 339 340 338 338 338 337 338 339 339 338 338 339
308 308 311 313 314 313 318 315 316 316 319 319 318 321 318 318 319 319 320 320 320 321 322 325 324 322 320 321 330 337 337 336 335 337 338 336 335 334 333 331 329 336 337 336
311 311 311 314 314 313 318 316 315 317 318 317 319 319 317 317 319 319 319 319 319 321 323 324 324 322 320 318 318 321 328 334 334 332 331 334 331 331 330 328 334 336 336 334
310 309 312 313 312 312 311 317 318 317 318 323 318 317 315 319 318 319 319 319 319 320 323 324 321 320 319 319 317 318 320 327 333 334 328 325 325 327 331 332 331 329 329 337
311 313 312 312 312 310 311 318 323 321 322 317 315 318 317 316 316 317 319 319 319 320 322 323 323 320 318 318 317 315 316 317 322 325 330 333 332 325 324 326 326 327 332 334
312 313 313 312 313 315 313 317 321 320 321 317 315 316 316 315 315 315 316 317 319 320 320 320 321 321 318 317 314 313 313 314 314 317 319 325 328 328 328 327 323 323 322 322
312 314 312 310 310 312 315 317 315 318 315 317 315 313 314 315 315 315 316 315 315 317 318 320 319 319 319 316 315 315 315 315 314 315 315 314 314 314 313 313 313 314 315 316
314 314 311 311 310 310 311 311 318 321 318 317 315 312 315 315 315 315 315 315 315 315 315 316 318 319 318 317 315 315 315 315 315 314 314 313 313 312 313 313 313 313 313 314
310 314 314 311 312 314 314 318 319 318 320 317 317 314 314 314 313 313 313 312 313 315 314 314 314 316 316 315 315 314 314 313 312 312 311 310 309 309 309 309 309 309 309 310
310 314 316 317 314 312 314 316 317 321 320 318 319 316 313 313 313 313 314 314 314 314 314 314 314 314 315 314 313 313 312 311 310 309 309 308 307 307 307 306 306 306 306 306
313 317 319 317 316 314 315 316 318 315 320 322 321 316 312 312 313 313 313 315 315 314 314 314 314 314 313 313 313 312 311 309 308 307 307 307 306 306 305 304 304 304 304 304
314 316 316 319 317 316 317 317 316 317 322 317 317 315 313 312 313 313 313 314 315 315 315 314 314 314 313 313 312 311 310 308 306 306 306 305 304 304 303 302 302 301 301 302
314 319 314 313 314 314 316 318 316 317 317 321 316 316 314 314 314 313 313 313 315 315 315 314 314 314 313 312 311 310 309 307 306 305 305 304 302 301 301 300 300 300 300 300
313 316 313 314 314 314 316 315 316 315 315 315 315 315 314 313 312 313 312 313 314 315 315 315 314 313 312 312 311 310 308 306 305 305 304 302 301 300 300 300 299 299 298 298
313 314 315 317 312 313 316 315 315 315 315 315 317 315 313 313 313 312 313 312 313 314 315 315 314 313 313 312 311 309 307 306 305 304 303 302 301 301 300 299 298 298 298 298
312 312 312 313 311 313 310 309 311 313 312 312 313 313 312 312 312 312 312 311 312 313 314 315 314 313 313 312 310 309 307 305 304 304 302 301 301 300 300 299 298 297 296 296
310 312 313 314 312 310 313 312 312 313 314 312 313 313 312 312 312 311 311 310 310 311 314 314 314 314 313 311 309 308 306 305 304 303 302 301 301 300 299 298 296 295 296 295
310 311 313 313 313 310 313 310 310 311 316 314 313 313 312 311 314 313 309 308 308 308 313 314 314 314 313 311 309 307 306 304 304 303 302 301 300 299 298 297 295 295 294 294
311 312 313 313 313 310 309 310 310 316 319 314 314 311 310 312 311 309 308 307 307 307 307 308 312 313 312 311 308 306 306 305 303 302 301 300 299 298 297 295 295 295 294 293
310 311 311 312 312 311 308 311 314 313 313 314 314 310 310 311 310 309 307 307 307 306 306 306 307 307 306 306 305 305 304 303 301 300 299 298 297 296 295 294 294 293 292 292
311 310 311 310 310 308 307 308 309 310 311 314 314 310 309 310 310 309 308 307 306 305 304 304 305 304 303 303 304 305 303 301 300 299 298 298 296 295 293 292 293 291 291 290
310 308 309 309 310 309 309 309 308 308 312 311 311 311 311 311 310 309 309 307 307 305 304 303 303 304 303 302 301 303 301 300 299 299 298 297 296 294 292 293 292 291 290 289
310 308 310 310 310 310 310 310 308 310 310 310 310 310 311 309 308 309 307 307 304 303 302 302 303 303 303 301 300 300 299 298 298 299 298 296 295 293 292 292 292 291 291 291
309 310 311 312 308 308 309 307 308 310 310 309 309 308 307 308 308 308 307 305 305 304 302 302 301 301 301 300 299 298 298 298 297 298 298 296 294 293 292 291 291 291 291 291

GFSCGP_925_thetae_096.txt.gz
Theta_e
306 308 310 310 310 314 315 315 315 314 315 316 319 319 318 318 319 318 319 320 319 320 321 324 326 336 339 340 341 343 342 341 341 342 340 340 339 340 339 339 337 337 338 337
306 306 306 309 310 314 314 319 316 316 316 317 319 320 318 317 320 319 319 318 318 319 320 321 326 332 337 339 339 341 341 342 342 341 341 341 339 338 339 339 338 339 339 338
308 307 308 310 312 314 313 316 318 319 318 319 318 320 320 317 318 318 319 317 317 317 319 320 321 329 336 338 339 340 340 339 341 340 339 340 339 338 338 337 336 337 337 337
306 306 310 312 314 314 315 314 314 317 319 325 320 323 322 319 318 318 316 316 316 317 317 318 321 324 335 337 338 339 338 339 340 338 338 337 336 336 335 335 335 333 332 334
308 310 310 314 315 313 315 314 317 319 319 318 320 320 319 319 317 317 317 316 316 316 317 318 319 321 323 328 336 337 335 337 339 337 335 335 334 332 330 330 330 331 329 328
307 309 313 312 313 312 312 316 318 318 319 322 319 317 313 314 316 316 316 316 316 315 316 319 322 322 320 318 320 322 335 335 332 328 326 325 325 324 328 328 328 328 332 332
313 313 312 312 313 311 312 317 321 322 321 322 317 317 313 314 315 315 316 316 315 314 316 319 319 319 319 318 317 317 322 331 334 331 330 326 323 323 323 324 323 322 323 323
312 311 312 311 313 314 313 316 320 317 317 314 316 322 314 313 313 314 314 315 314 315 316 318 318 318 318 319 317 317 316 318 322 326 328 328 324 322 322 323 321 322 322 322
313 314 311 312 312 312 314 317 314 319 315 316 313 312 311 312 313 314 314 314 314 316 315 317 317 318 318 318 317 314 315 314 315 317 320 320 319 322 326 325 324 321 320 319
311 313 311 311 310 310 311 310 318 319 321 324 314 311 314 313 312 313 313 313 313 314 315 314 315 317 318 317 315 314 315 314 314 315 315 314 314 314 314 313 313 314 314 313
310 313 314 311 311 312 311 313 316 318 318 318 315 313 312 311 312 312 311 311 312 312 312 311 312 316 317 316 315 315 315 315 314 314 314 313 311 311 311 311 311 311 311 312
310 314 313 313 312 311 313 313 316 320 319 317 318 313 310 311 311 312 313 313 312 312 311 311 310 314 315 315 315 314 313 313 312 311 311 311 310 310 309 309 309 308 308 309
311 315 317 316 315 314 315 314 317 317 316 320 323 313 311 311 311 311 311 312 312 313 313 312 310 312 313 313 313 313 312 310 310 309 309 309 308 307 306 306 306 306 306 305
313 315 315 319 317 314 313 314 316 315 319 317 319 312 311 310 311 311 311 313 312 312 312 311 310 310 312 313 312 311 310 308 308 308 307 307 306 305 305 304 304 303 303 303
313 317 315 314 314 315 315 316 316 314 316 317 316 315 312 311 311 311 311 312 313 313 313 311 310 309 312 312 311 310 308 307 307 306 305 305 304 304 303 303 302 302 302 302
312 316 313 313 314 314 316 317 316 315 315 314 314 315 312 310 309 310 310 311 313 314 313 312 311 310 310 311 311 309 308 306 306 305 304 303 303 302 302 302 301 301 301 300
313 316 314 318 313 313 315 315 315 315 314 315 316 314 311 312 311 312 310 311 312 313 313 312 311 310 311 311 310 309 307 306 305 305 304 303 302 301 301 300 300 299 299 299
310 312 311 311 311 314 309 308 310 314 313 312 312 311 311 311 310 310 309 309 309 312 312 312 311 312 312 311 310 309 307 305 305 304 303 302 301 301 300 300 299 299 298 297
309 310 312 313 311 310 311 311 311 312 313 312 312 312 311 310 310 310 309 308 307 306 309 312 313 313 312 311 310 308 306 305 304 304 303 302 301 301 300 299 298 296 296 297
309 309 311 311 313 312 312 310 309 310 315 313 313 312 310 309 311 309 307 306 306 307 308 311 314 314 313 311 309 308 306 305 304 304 303 302 301 301 300 299 297 295 295 296
310 310 310 311 311 309 309 309 309 314 316 314 313 309 309 310 308 307 306 305 306 306 306 309 312 313 313 311 309 307 306 305 304 304 302 301 301 300 299 298 296 296 294 294
309 309 310 311 311 310 309 310 314 312 313 313 312 308 309 309 308 307 306 305 305 304 305 307 307 307 308 308 308 306 306 305 304 303 301 300 300 299 298 296 295 294 294 293
310 308 309 309 310 307 307 307 307 307 308 312 312 308 309 309 308 307 306 304 304 304 304 304 305 304 304 304 305 305 304 304 303 301 300 299 298 297 296 294 293 293 293 292
310 307 307 308 309 308 307 307 307 307 310 310 310 310 309 308 308 307 306 305 303 303 302 303 303 303 302 302 303 304 303 302 301 300 299 298 297 296 294 293 292 292 292 291
307 307 309 308 308 308 307 306 307 309 309 309 308 307 309 308 307 307 306 305 303 303 302 302 302 302 302 301 301 301 301 300 299 299 299 298 297 295 294 292 292 292 292 293
307 307 308 312 305 304 305 304 307 307 309 309 307 306 305 306 306 305 303 303 303 302 302 302 301 301 301 301 300 299 299 299 299 299 298 297 296 295 294 293 292 291 292 292

GFSCGP_925_thetae_099.txt.gz
Theta_e
304 305 305 310 308 310 313 315 316 314 315 321 323 321 319 320 323 323 322 323 316 321 320 325 332 335 339 341 341 341 342 341 341 342 341 340 339 338 338 338 338 337 336 335
302 304 305 309 309 310 313 315 314 313 314 315 317 319 318 316 317 319 319 319 316 316 317 320 330 336 339 341 341 340 340 340 342 340 341 341 340 340 338 339 338 338 337 336
303 306 305 308 311 311 312 317 314 315 316 316 316 319 320 318 315 318 317 316 315 315 316 320 325 335 338 339 340 340 339 340 340 341 340 340 339 339 339 339 338 337 336 336
304 306 307 310 312 312 317 315 314 318 319 321 319 322 319 318 317 316 315 315 315 314 315 319 324 330 336 338 338 339 339 337 340 338 339 338 338 337 337 338 336 335 334 335
305 307 309 314 314 312 316 314 317 317 318 317 321 322 318 318 318 317 316 313 313 312 313 316 318 328 335 337 338 339 340 340 339 340 338 337 335 335 335 334 332 330 328 329
306 306 311 312 312 313 312 317 318 318 320 318 320 320 312 319 319 316 314 313 313 313 313 315 320 326 332 334 336 337 336 339 339 337 336 335 333 331 332 332 331 330 330 329
310 312 312 311 312 311 312 316 321 321 322 317 318 318 313 313 315 315 314 312 312 312 313 315 317 316 319 323 331 331 334 336 337 335 331 331 328 328 327 325 326 325 327 328
304 313 313 311 312 311 313 314 315 321 320 314 316 318 315 310 311 313 312 311 312 312 311 316 317 317 318 318 320 323 329 333 332 328 326 325 326 326 327 326 323 322 322 322
307 313 312 311 311 312 314 315 314 317 316 312 316 312 309 311 311 310 311 310 311 311 311 315 316 317 317 317 317 317 319 325 330 331 331 330 325 323 322 322 322 323 322 322
310 313 310 311 310 308 312 310 317 314 318 319 311 311 310 311 312 312 312 311 311 311 311 314 316 316 317 317 317 316 316 316 318 322 323 324 325 325 324 323 321 320 319 319
309 309 312 310 311 309 309 310 315 317 313 316 312 310 310 311 309 310 309 310 311 311 310 309 311 314 316 317 316 314 314 314 314 315 316 318 317 317 317 316 315 314 313 313
310 311 309 310 313 310 309 311 317 313 318 310 307 310 309 309 309 311 311 311 310 310 309 308 310 313 314 314 314 314 314 314 314 314 314 314 313 313 312 311 311 311 310 310
310 315 312 313 314 313 314 313 316 316 312 315 318 312 309 308 308 310 312 312 310 311 310 307 309 310 312 313 313 314 314 314 313 313 312 310 309 308 308 309 307 306 306 306
312 313 313 311 311 311 312 313 314 310 311 319 318 313 311 310 310 310 310 312 312 311 311 309 308 308 311 312 312 312 311 312 311 310 309 308 307 306 306 306 306 306 305 305
312 315 313 313 313 314 313 313 315 314 315 317 317 313 313 310 309 310 309 311 312 312 311 309 308 307 310 310 310 310 309 308 308 307 307 306 305 305 305 305 304 303 302 302
309 312 313 309 313 314 315 315 315 315 315 314 314 314 310 309 308 309 309 311 312 312 311 310 309 307 308 310 309 309 308 307 307 306 305 305 304 304 304 303 302 302 302 302
312 314 312 312 311 312 314 314 315 314 314 314 315 312 310 310 311 310 309 309 311 312 311 310 308 308 309 310 309 308 307 306 306 305 305 304 304 303 302 302 301 301 300 300
310 309 308 308 308 313 309 307 310 313 312 311 310 310 310 310 310 307 307 309 307 306 311 310 309 309 310 311 309 308 307 306 305 305 304 303 302 302 301 301 300 300 300 299
307 308 310 310 308 309 311 310 310 311 313 311 311 311 309 309 309 308 306 305 305 305 308 310 312 311 310 310 310 308 306 306 305 304 303 302 302 301 301 300 300 299 298 297
307 307 309 308 310 311 311 309 308 309 313 312 311 309 308 308 310 308 305 305 304 305 305 307 312 312 311 310 309 308 306 305 304 304 303 303 302 301 301 300 299 297 295 296
308 307 308 309 309 308 309 308 308 310 313 313 310 308 308 309 306 305 305 304 304 304 306 308 310 310 310 309 308 307 305 304 305 304 303 302 302 301 301 300 298 295 295 294
307 306 307 306 310 309 309 310 313 310 310 312 309 307 308 307 307 306 304 303 303 302 304 305 306 305 307 308 307 306 305 305 304 304 303 302 301 300 300 299 296 294 293 293
308 306 309 307 308 305 305 306 306 305 306 311 309 308 307 307 306 305 304 303 302 302 302 303 303 303 304 306 306 305 305 305 304 303 302 301 300 299 298 297 295 293 292 293
308 304 305 307 307 307 306 306 305 307 309 309 309 309 307 307 307 305 304 302 301 301 301 302 302 302 302 303 303 304 304 303 302 302 301 300 299 298 297 296 294 292 292 292
305 306 307 308 305 306 304 304 306 306 308 307 306 307 307 308 307 305 304 303 302 301 301 301 300 300 300 301 301 302 302 301 301 300 299 299 298 297 296 295 294 292 292 293
302 304 307 308 304 305 304 303 305 306 307 307 306 304 304 304 304 302 301 301 301 300 300 300 300 300 300 300 300 300 299 299 299 299 298 298 298 297 296 295 294 293 292 292

GFSCGP_925_thetae_102.txt.gz
Theta_e
302 300 302 309 309 309 311 314 316 315 318 322 321 320 325 325 324 323 323 322 322 320 323 330 336 339 339 340 341 342 343 342 343 341 339 338 338 337 336 335 336 336 335 331
300 302 306 305 309 310 312 313 315 315 315 320 321 321 320 324 322 321 322 321 321 320 318 321 329 336 338 340 339 340 341 341 342 342 340 339 338 338 337 336 337 335 336 335
301 304 305 306 311 310 312 313 314 316 317 316 318 321 321 319 320 320 320 319 319 317 318 318 326 333 337 339 340 341 339 340 341 341 340 340 340 338 338 337 337 338 336 336
302 305 307 308 312 311 313 313 313 314 317 322 318 321 318 318 318 316 319 320 318 316 314 317 322 331 336 339 340 339 339 339 340 340 341 339 339 339 338 338 338 337 337 337
300 306 309 311 311 310 314 315 314 315 317 317 321 319 317 315 318 316 315 315 315 312 311 316 320 330 336 338 339 339 339 339 339 340 340 338 339 338 337 337 337 336 335 334
305 305 308 312 312 312 312 316 318 318 318 317 319 319 315 318 317 316 314 313 313 312 311 313 321 327 332 335 337 338 339 339 339 339 337 337 337 335 335 334 333 332 329 329
307 309 312 311 312 310 312 317 320 321 321 315 318 322 318 313 315 316 315 313 313 312 311 313 316 322 327 331 334 336 337 338 338 337 336 336 335 332 330 330 329 329 331 329
310 312 313 311 310 309 313 314 318 321 316 318 318 320 315 310 310 314 314 312 312 311 310 313 315 319 325 328 330 335 336 336 336 336 335 334 332 330 329 328 327 326 325 327
308 314 311 311 311 310 313 315 314 314 312 313 317 312 308 309 310 309 311 310 310 310 310 314 315 319 323 324 327 332 334 335 334 334 332 330 328 327 326 325 326 324 322 322
309 312 311 310 309 308 311 311 312 311 317 315 313 310 310 312 312 310 310 310 308 308 308 312 314 316 319 321 320 323 329 332 332 329 327 325 325 325 325 325 322 321 321 321
308 307 310 309 309 310 311 313 314 315 309 311 310 309 308 307 310 310 309 310 310 310 309 311 313 315 316 317 317 316 319 324 328 328 328 328 326 324 324 323 322 322 321 320
309 308 307 307 311 309 308 310 315 307 314 305 302 310 307 306 309 309 310 309 309 308 307 308 311 313 314 315 315 314 314 315 316 319 319 318 318 319 318 318 316 314 314 313
310 311 310 308 313 310 312 312 314 311 307 311 305 310 308 306 307 309 310 310 309 309 307 309 309 310 312 313 313 313 313 313 313 314 314 314 313 313 312 310 310 309 309 309
312 313 308 304 308 309 310 312 314 307 305 313 309 314 310 308 310 309 311 311 310 310 308 309 308 308 310 311 312 312 312 313 313 312 312 311 310 309 309 308 307 306 306 307
312 313 313 313 312 312 311 312 313 308 314 318 317 315 312 309 308 309 309 311 312 312 309 309 309 307 309 310 311 311 312 311 312 311 310 309 308 307 307 306 305 304 304 304
307 311 310 308 311 313 314 313 313 315 314 315 315 314 310 309 308 308 309 311 312 312 311 308 308 307 308 309 310 310 310 309 309 309 308 307 306 305 305 304 303 303 303 303
311 310 310 310 309 311 310 314 313 314 313 312 314 311 310 311 310 309 308 308 310 311 310 309 307 307 309 309 309 309 309 308 307 307 306 305 305 304 303 302 302 302 302 301
308 307 307 307 306 311 308 306 311 313 310 310 310 310 310 310 307 307 306 306 306 306 310 309 308 308 309 310 309 309 307 306 306 305 305 304 303 303 302 301 301 301 301 301
305 307 309 308 307 307 311 310 310 311 313 311 311 310 309 307 308 308 305 305 305 305 306 307 310 310 310 310 309 308 306 306 305 305 304 303 303 302 301 301 301 300 300 299
305 305 307 307 309 311 310 308 307 308 314 312 310 308 308 307 309 308 304 304 303 303 305 306 309 310 310 310 309 308 306 305 305 304 304 303 303 302 302 301 300 300 299 297
307 306 307 308 310 307 307 308 307 309 310 313 308 307 308 308 306 304 304 303 303 303 305 306 308 309 309 309 309 307 306 305 306 305 304 303 302 302 301 301 300 299 297 295
306 305 306 305 309 309 307 309 313 308 308 311 308 307 308 306 306 305 303 302 301 301 303 304 304 305 307 307 308 307 306 307 305 304 304 303 302 301 301 300 299 298 295 294
307 305 308 306 306 303 303 305 304 304 305 310 308 307 306 306 306 304 303 301 300 300 301 302 302 303 304 305 305 305 305 305 304 304 303 302 301 301 300 299 298 296 294 293
307 304 304 306 306 305 304 304 304 305 308 308 308 308 305 306 306 304 302 301 300 300 300 301 301 300 301 302 303 304 304 304 303 302 302 301 300 300 299 298 297 296 294 293
303 304 305 306 305 304 303 302 304 305 307 306 305 307 307 307 306 305 303 301 301 300 300 300 300 300 299 300 301 302 302 302 302 301 300 300 299 298 298 297 297 295 295 294
301 303 306 306 303 304 304 303 302 304 304 305 305 304 303 305 303 301 300 300 299 298 298 299 299 299 299 299 299 299 299 299 299 299 299 299 299 298 298 297 296 295 294 294

GFSCGP_925_thetae_105.txt.gz
Theta_e
301 299 300 304 309 309 310 313 314 315 319 320 319 318 317 318 317 324 322 319 319 319 317 319 333 339 338 338 340 341 341 342 341 339 339 337 337 338 337 334 329 327 326 327
298 300 305 305 309 310 310 313 314 315 316 320 320 320 319 318 318 322 322 320 319 318 317 316 325 335 337 338 338 340 340 341 340 339 339 338 338 337 336 332 330 335 329 331
301 302 304 305 310 310 311 313 314 317 319 318 321 322 322 321 320 321 320 320 319 318 317 315 322 331 336 337 338 339 340 339 340 340 339 338 338 337 336 335 334 335 334 334
301 303 307 307 312 310 312 311 314 316 319 323 318 323 321 320 321 321 320 320 319 318 316 314 318 328 334 336 336 338 338 339 339 338 339 338 337 337 336 337 336 336 337 335
299 305 308 311 310 310 314 313 313 314 319 320 320 318 317 318 320 320 318 319 320 319 317 315 315 326 332 335 337 337 338 338 339 338 339 338 338 336 336 337 337 337 337 336
303 305 307 311 311 311 309 315 315 316 318 315 319 318 315 319 317 316 316 319 320 319 318 314 314 321 330 334 336 338 337 338 338 339 339 338 338 337 337 337 337 337 335 335
307 308 308 311 312 309 309 315 319 319 318 315 318 319 315 314 314 314 314 314 318 318 312 311 316 322 327 331 334 336 337 337 338 337 338 338 338 337 335 335 334 333 331 330
310 312 313 311 310 310 312 314 308 317 316 318 318 319 316 312 309 311 313 314 313 313 311 311 314 320 326 330 332 334 336 336 336 335 335 336 335 335 334 333 330 330 329 329
309 310 311 309 309 310 312 314 314 310 310 314 316 313 308 309 309 309 312 312 311 311 310 310 313 318 323 328 331 333 334 334 333 332 334 334 334 332 331 329 328 328 328 326
307 308 309 310 308 308 312 311 317 305 309 318 315 310 310 309 308 309 310 311 310 310 310 309 313 316 321 327 329 330 331 332 331 332 333 333 331 329 328 328 327 326 325 323
308 304 306 307 308 308 309 309 314 314 307 312 313 311 307 308 307 309 308 308 309 308 308 308 313 315 317 322 325 326 329 330 330 330 329 328 327 326 325 324 325 322 321 320
308 304 303 306 308 310 308 309 312 309 313 307 302 312 305 305 308 309 309 309 308 307 306 307 312 314 314 315 317 318 320 325 327 327 325 324 323 323 322 321 320 319 318 317
310 308 301 303 310 310 311 311 312 308 305 313 303 310 306 306 307 308 310 308 308 308 309 308 309 310 312 313 313 313 314 316 320 322 322 320 319 319 318 317 315 313 312 311
312 313 305 303 307 308 310 311 313 302 303 313 307 312 309 307 308 308 310 309 308 308 308 308 307 307 310 311 312 312 312 313 313 314 314 314 313 313 312 311 310 309 308 308
311 313 315 313 311 310 310 311 313 304 310 307 314 313 310 307 307 307 307 310 310 310 309 309 308 306 308 309 310 311 311 311 312 312 311 311 310 309 308 307 307 306 306 305
309 311 309 307 310 312 313 311 312 314 313 314 313 314 309 309 307 306 306 309 311 311 310 309 309 307 307 308 309 310 310 310 311 310 309 308 307 306 306 305 304 304 304 303
310 307 306 308 306 311 309 309 312 313 312 313 315 313 310 310 309 307 306 305 305 306 310 309 308 308 309 309 310 309 309 309 308 308 307 306 305 305 304 304 303 302 302 302
307 306 306 307 305 310 307 306 310 311 310 310 309 310 309 309 307 306 304 305 304 303 306 307 307 308 309 310 309 309 308 307 307 305 305 304 304 304 303 303 302 302 301 301
303 306 308 308 307 306 311 309 311 311 313 311 311 310 308 306 307 307 304 303 303 303 304 305 307 308 309 309 309 308 306 306 305 305 304 304 304 303 302 302 301 301 300 300
304 304 306 306 308 311 309 307 306 308 314 311 309 308 307 307 308 307 303 303 302 303 304 305 307 308 309 309 308 307 306 305 305 305 305 304 303 302 302 301 301 300 300 299
305 305 306 307 306 306 304 307 306 309 307 312 308 307 308 307 305 304 302 302 301 302 303 304 306 307 308 309 308 307 305 305 306 305 304 304 303 302 302 301 300 300 299 298
306 304 306 304 308 308 302 307 311 305 308 310 307 306 308 306 305 304 302 300 300 300 301 302 303 303 305 306 307 306 305 306 305 304 304 303 302 302 301 301 300 299 298 297
306 303 306 304 305 302 303 305 304 305 304 309 307 306 306 306 305 303 302 300 299 299 300 301 302 302 302 304 305 305 305 305 304 304 303 303 302 301 301 300 299 298 297 295
305 302 303 305 305 304 302 303 303 303 306 306 307 307 305 305 305 303 301 300 299 299 299 300 300 299 299 301 303 303 304 304 303 303 302 302 301 300 300 299 298 298 296 295
301 302 304 304 304 303 303 302 302 303 304 305 304 306 306 306 305 304 302 300 299 299 299 299 299 299 298 299 300 301 301 302 302 301 301 300 300 299 299 298 298 297 297 296
299 302 304 308 302 303 304 304 302 302 302 302 304 305 304 306 304 301 300 299 298 297 297 298 298 298 298 298 298 298 298 298 299 299 299 299 299 299 298 298 297 297 296 296

GFSCGP_925_thetae_108.txt.gz
Theta_e
300 299 298 301 304 309 309 309 311 314 317 316 319 317 316 317 312 316 321 320 321 322 320 323 335 337 337 339 341 342 341 341 339 338 337 336 336 335 335 334 331 330 330 330
298 299 302 305 305 309 309 310 314 314 315 318 319 318 318 315 314 315 320 319 319 320 320 319 331 336 336 337 339 340 341 341 340 338 338 337 336 336 336 337 336 331 329 329
301 301 302 305 306 310 310 312 314 317 319 319 320 322 321 318 318 318 318 319 318 319 319 318 325 333 336 337 337 338 338 339 339 338 337 337 336 335 336 336 335 330 327 327
300 301 305 308 307 310 310 311 316 318 318 323 316 323 322 320 320 319 320 319 318 317 317 315 317 327 334 336 336 334 333 337 338 338 337 332 332 336 335 334 333 331 330 330
297 304 306 310 311 310 314 313 314 316 316 321 319 317 320 320 321 319 317 318 319 317 317 316 315 319 329 333 335 336 336 337 337 336 332 326 331 336 335 335 335 333 333 334
301 304 305 308 310 309 309 314 315 315 315 316 319 316 317 321 319 318 316 318 317 317 317 316 312 313 323 331 332 329 333 334 337 336 336 334 334 334 334 333 334 335 336 336
307 307 307 307 312 308 307 309 314 312 312 318 316 317 314 317 316 317 316 317 318 318 318 315 310 317 324 329 331 333 334 334 335 335 334 335 334 334 334 334 334 335 334 334
309 311 312 310 310 311 311 308 309 317 318 319 318 319 314 310 312 314 315 314 317 317 318 312 310 314 321 326 331 333 334 334 333 333 333 334 333 334 335 335 333 333 334 332
310 311 311 309 309 310 313 314 312 311 309 310 314 312 309 308 307 308 310 313 313 315 311 311 310 314 320 325 330 332 333 333 333 333 334 334 335 335 334 333 330 330 329 329
308 301 307 310 308 309 312 312 311 308 313 319 315 310 310 309 308 307 310 312 311 310 310 310 310 313 318 324 328 329 331 332 331 332 332 333 333 332 331 329 328 328 327 325
307 303 304 305 309 310 312 313 313 311 309 314 314 312 307 307 306 308 308 308 308 309 308 308 309 314 317 321 325 327 330 330 330 330 331 331 330 329 328 327 326 325 324 321
308 303 305 310 308 310 308 309 312 308 313 305 305 312 305 304 307 308 308 309 307 307 308 308 307 312 314 317 322 325 327 328 327 328 328 327 327 325 325 324 323 322 320 319
310 305 296 301 304 308 310 311 312 306 305 313 310 312 306 305 307 308 309 308 308 307 309 308 308 310 311 313 316 318 319 323 325 324 324 323 322 322 320 319 319 318 317 316
311 312 304 306 309 307 307 310 309 300 305 311 308 311 308 306 306 305 308 308 308 307 308 308 307 307 309 311 312 312 313 317 320 320 320 319 318 318 317 316 315 314 311 309
310 310 312 313 311 310 310 310 312 303 309 305 311 312 309 308 306 305 305 308 309 309 308 307 307 305 307 308 309 310 311 311 312 313 314 313 312 312 311 310 308 307 306 306
309 308 308 307 307 311 311 310 312 311 313 312 311 312 309 307 306 305 304 305 306 307 308 307 307 306 306 308 308 309 309 310 310 310 310 309 309 308 306 305 305 305 305 304
309 305 304 306 305 310 307 307 311 312 311 312 314 312 309 308 307 306 305 304 303 304 306 307 306 307 308 308 309 308 308 308 309 309 307 306 306 305 305 304 304 304 303 303
306 305 305 306 304 309 306 306 308 310 309 308 309 309 308 308 306 305 303 304 304 303 303 303 304 306 308 309 309 308 308 308 307 307 306 305 305 304 303 303 302 302 302 301
303 304 307 307 306 306 310 308 313 312 312 311 310 309 307 306 306 306 303 303 302 302 302 304 305 307 308 308 308 308 306 306 306 305 304 304 303 303 302 302 301 301 301 300
303 302 304 305 306 311 308 306 305 307 313 311 309 307 307 306 307 305 303 302 301 301 302 303 305 307 307 308 308 307 306 305 304 304 304 304 303 302 302 301 301 301 300 300
304 304 305 306 305 306 303 305 305 308 305 310 308 306 307 306 304 303 301 301 300 301 301 303 304 305 306 307 307 306 305 305 305 304 304 303 303 303 302 301 301 300 300 299
305 303 305 304 307 307 302 305 309 304 305 309 307 306 307 305 304 302 301 300 299 299 300 301 301 302 303 305 306 305 304 305 305 304 303 302 302 301 301 301 300 300 299 298
305 302 304 303 304 302 303 305 303 303 304 307 307 305 306 306 305 302 301 300 299 298 299 300 300 300 302 303 305 304 304 304 304 304 303 302 302 301 300 300 300 299 298 298
304 301 302 304 304 303 303 303 302 303 304 304 304 305 305 304 303 303 300 298 298 298 298 299 299 298 298 301 302 302 302 302 303 302 302 301 301 300 300 300 299 299 298 297
300 302 302 302 303 302 302 302 301 302 301 302 302 304 305 305 305 303 301 299 298 298 298 298 298 297 297 298 298 299 300 301 301 301 300 300 300 300 299 299 299 299 299 298
297 301 303 304 301 302 302 301 300 301 301 300 301 303 304 306 306 302 299 298 297 296 296 297 297 297 296 297 297 297 297 298 298 299 299 299 299 299 298 298 298 298 298 297

GFSCGP_925_thetae_111.txt.gz
Theta_e
300 303 303 301 302 304 305 308 308 307 308 312 313 311 315 316 314 311 311 313 316 321 319 325 336 337 336 339 340 341 341 339 338 337 336 334 332 329 331 331 331 329 329 331
299 302 302 302 304 306 305 310 310 309 310 313 313 314 316 314 312 311 313 315 316 318 319 324 335 336 337 338 340 341 340 340 339 337 337 335 333 331 332 333 330 327 328 330
302 302 302 304 306 307 307 310 310 314 315 315 316 319 320 316 314 314 315 316 316 318 320 321 333 336 336 336 338 341 341 340 339 338 336 336 334 334 333 334 333 332 330 329
301 301 303 307 308 307 311 311 313 316 318 321 317 323 321 318 316 317 317 317 318 319 318 317 326 334 334 330 334 337 338 336 338 336 336 336 335 335 334 334 335 335 334 329
299 302 305 305 311 310 313 308 314 317 320 318 320 320 321 319 318 318 319 318 318 318 318 317 320 326 332 334 334 336 335 333 333 336 336 335 334 334 335 334 335 333 332 329
302 302 305 306 309 308 309 313 314 316 316 320 319 317 319 321 319 318 317 318 319 318 318 316 313 315 325 332 335 334 328 329 329 331 335 334 329 330 333 334 334 332 331 330
307 308 306 307 310 308 310 308 311 316 316 320 317 318 315 316 317 318 317 318 318 317 318 314 315 318 325 330 333 333 333 333 331 328 327 329 330 330 331 333 332 328 330 332
303 308 312 310 311 311 311 308 313 315 317 320 316 319 312 307 307 314 315 317 317 318 316 313 312 316 323 328 331 330 332 331 330 329 333 333 331 329 329 330 329 332 332 331
309 305 310 309 307 307 313 312 313 311 309 316 314 310 308 308 308 307 310 317 317 316 312 312 311 314 319 326 330 331 331 331 331 332 330 328 327 329 329 332 332 331 331 331
308 305 305 309 307 309 311 312 313 311 314 320 313 311 312 309 309 308 310 313 316 313 312 312 310 313 318 322 328 329 330 331 331 331 331 330 331 330 331 330 329 330 329 329
306 302 306 306 311 313 311 314 312 310 309 317 316 316 308 307 307 309 309 308 312 311 309 311 308 312 316 321 325 327 329 329 329 329 330 330 330 330 328 328 328 327 326 325
307 303 307 309 307 310 308 310 311 310 314 306 312 315 305 305 308 309 309 309 308 309 310 310 309 310 313 317 321 324 325 327 327 328 328 328 328 327 327 326 325 323 322 320
311 306 302 305 306 307 309 310 310 305 307 311 312 314 306 304 306 307 309 309 308 309 309 309 310 310 311 313 317 319 322 323 324 326 326 323 322 323 322 321 319 318 317 317
310 312 306 314 312 309 310 310 309 302 312 312 310 310 308 307 307 307 308 308 308 308 309 308 308 308 309 310 312 314 317 320 321 322 321 321 320 319 318 317 316 316 316 315
308 310 312 311 311 311 310 311 311 309 309 309 311 310 309 307 306 305 304 305 307 308 308 308 308 307 307 308 309 309 312 316 318 318 317 317 316 316 316 314 313 311 309 308
306 306 307 306 309 309 309 309 310 312 311 311 310 311 308 306 306 306 305 304 305 306 307 306 306 306 306 307 308 309 310 311 313 315 315 313 312 310 310 309 308 306 306 305
307 305 304 306 305 309 307 307 311 311 309 311 313 311 307 308 307 306 305 305 304 304 304 304 305 305 307 307 308 308 308 308 309 309 307 307 307 307 306 305 305 304 303 302
305 305 305 305 303 309 305 306 307 310 309 307 308 308 307 307 305 304 303 303 303 303 302 303 303 304 306 307 307 307 307 307 307 306 306 305 305 305 303 303 303 302 302 301
301 303 306 307 305 305 309 307 312 312 313 309 309 306 306 305 305 305 303 302 301 301 301 302 303 304 306 307 307 307 306 306 305 304 304 304 304 303 303 302 302 301 301 301
303 300 304 305 306 310 308 305 304 307 313 309 307 306 307 305 306 305 302 300 300 300 300 301 303 305 306 306 306 306 305 304 304 304 304 303 303 303 302 301 301 301 300 300
303 303 304 307 305 305 303 303 304 307 307 309 306 306 306 306 304 302 300 300 299 300 300 301 302 302 304 306 306 305 304 304 304 304 303 302 302 302 302 301 301 301 300 300
304 303 305 303 306 307 303 304 308 303 304 308 306 305 305 303 302 302 301 299 299 298 299 300 300 301 303 304 305 305 305 304 304 304 304 303 302 302 301 301 300 300 299 298
305 301 304 303 304 300 303 304 303 303 303 306 306 304 305 305 304 302 301 299 298 298 298 299 299 300 301 303 304 303 302 303 303 303 302 302 301 301 300 300 300 299 298 298
303 299 301 304 304 303 303 302 302 303 304 304 304 304 304 304 303 303 300 298 298 298 298 298 298 297 297 299 300 300 301 302 302 302 301 301 301 300 300 300 299 299 298 297
300 300 300 301 302 302 301 302 301 302 300 301 302 304 305 303 304 303 301 299 298 297 297 297 297 296 296 296 297 297 299 300 301 301 300 300 299 299 299 298 298 299 299 299
296 300 302 303 300 301 300 300 299 301 301 300 301 302 303 305 305 302 299 298 296 295 295 296 296 296 295 295 295 296 296 297 297 298 298 298 299 298 298 298 298 298 298 298

GFSCGP_925_thetae_114.txt.gz
Theta_e
305 306 306 304 304 306 305 306 307 306 306 308 313 313 313 317 318 319 319 317 316 316 316 317 320 324 329 333 337 338 340 339 338 337 336 335 336 335 336 336 335 334 332 332
305 306 303 303 304 304 306 306 307 306 308 310 312 314 312 315 317 318 318 316 316 316 316 317 320 330 325 336 337 339 339 339 338 337 336 336 336 335 334 334 333 333 334 335
305 303 303 303 305 307 307 308 308 310 312 311 314 314 314 316 315 315 315 316 315 316 317 318 320 333 330 333 336 338 339 339 338 337 336 336 335 333 334 334 333 331 331 330
304 303 303 304 307 308 310 309 313 314 313 319 314 319 317 315 316 317 318 318 318 317 318 318 321 332 333 333 337 338 339 338 338 338 337 336 335 334 332 334 334 330 328 328
306 303 304 306 306 308 313 309 311 315 316 319 317 322 319 318 319 318 318 319 319 318 317 318 321 332 334 333 332 336 337 338 338 337 336 336 336 336 335 335 334 332 331 331
306 304 305 306 307 308 309 313 315 314 317 324 320 321 323 323 319 320 318 318 318 319 318 319 325 333 332 331 330 329 334 335 335 335 336 334 334 335 334 334 334 333 332 329
308 310 308 307 309 310 310 315 319 321 323 324 321 317 315 313 317 318 318 318 319 318 319 318 321 330 333 331 329 330 328 330 330 329 331 332 330 329 331 333 333 333 332 330
311 313 311 310 311 312 311 314 319 320 323 323 318 320 314 311 310 311 318 316 317 318 317 315 322 326 331 333 333 331 331 329 329 327 329 329 329 330 330 329 329 330 329 328
311 312 308 309 307 309 313 316 314 317 313 319 319 315 314 312 312 312 318 316 317 318 314 314 319 324 330 331 331 331 330 330 329 329 328 328 326 329 328 328 328 329 328 328
310 311 306 309 309 310 313 312 319 318 320 323 318 319 317 314 313 312 317 315 317 317 313 314 318 320 324 330 330 329 331 331 331 328 328 326 324 328 326 324 328 327 328 328
308 308 313 311 313 314 314 315 315 314 313 320 320 320 310 312 312 313 314 317 316 315 314 314 313 318 322 326 328 328 328 329 330 329 328 326 326 324 323 324 327 330 329 327
310 309 314 313 309 311 311 314 314 320 317 314 317 317 309 311 313 313 312 314 315 313 313 314 313 315 320 324 325 324 324 325 326 327 328 327 326 326 326 326 326 327 326 328
312 312 314 312 311 311 312 313 312 311 314 315 319 318 310 312 312 313 313 313 312 312 312 314 313 315 315 319 320 320 320 322 322 323 324 324 324 324 323 323 324 324 324 323
311 312 313 315 314 313 315 315 313 312 319 316 316 315 313 311 311 310 311 312 312 311 312 312 312 311 312 314 315 317 315 317 318 319 319 319 320 321 320 320 319 318 318 318
311 314 312 313 313 312 314 315 314 314 313 318 314 314 312 311 311 310 309 310 311 310 311 311 311 312 312 312 311 313 314 315 315 316 316 315 315 317 317 316 314 313 313 313
309 314 311 312 310 312 314 313 314 314 314 314 314 314 311 311 311 311 310 310 309 308 309 309 310 312 311 311 310 310 311 312 313 313 311 311 312 311 310 310 309 308 307 306
311 311 311 314 309 311 314 312 314 313 312 314 316 313 312 312 310 310 309 309 308 307 307 307 309 309 310 310 310 309 309 308 309 308 307 306 307 307 307 308 307 306 305 304
310 310 310 311 309 313 310 310 310 314 313 312 312 311 310 310 309 309 308 307 307 307 307 308 307 308 308 309 308 308 307 307 306 306 305 304 304 303 303 302 302 302 302 302
307 309 310 312 311 310 310 310 313 314 315 311 310 310 309 309 309 310 307 305 305 305 305 306 306 307 307 308 307 307 307 306 306 305 304 303 303 302 301 301 301 301 301 301
306 306 310 311 312 313 310 308 307 310 316 311 310 310 310 309 312 312 306 305 305 304 304 304 305 307 308 307 306 307 307 307 306 305 304 303 302 302 301 301 301 300 300 301
309 309 311 312 311 309 306 306 306 311 314 312 309 310 310 311 310 307 305 304 303 303 303 303 304 304 305 305 306 306 306 306 304 303 302 302 302 302 301 300 300 300 300 299
309 309 309 310 312 312 306 307 309 310 309 311 309 308 309 308 306 305 305 304 303 302 302 302 303 302 303 304 305 305 304 303 303 303 303 302 302 301 300 300 300 299 298 298
308 307 309 308 308 305 306 308 307 307 310 310 310 308 308 307 306 305 305 304 302 301 300 300 302 301 299 299 301 303 301 301 302 302 301 301 300 300 299 299 298 298 298 299
306 303 307 308 306 307 306 306 306 307 308 307 308 307 307 308 307 305 303 303 302 301 300 300 300 300 297 297 298 298 300 301 301 301 300 300 300 299 298 298 298 299 298 298
306 305 306 306 305 305 305 305 306 305 304 305 305 307 307 307 307 306 304 302 300 300 299 299 299 298 297 296 295 296 296 299 300 300 301 300 300 299 298 298 297 298 298 298
304 307 308 309 307 307 307 305 303 304 303 303 305 306 305 307 307 305 302 300 299 298 297 298 297 297 295 294 294 294 295 295 296 297 297 297 298 298 298 298 298 298 298 298

GFSCGP_925_thetae_117.txt.gz
Theta_e
305 307 307 307 305 305 305 306 306 305 305 305 306 308 313 312 314 314 314 316 316 319 317 317 319 325 328 327 327 334 338 337 337 336 336 336 333 329 327 327 328 329 328 328
306 307 305 304 303 304 304 304 305 305 305 306 308 309 310 312 315 317 317 317 319 318 317 317 319 324 325 328 327 329 336 337 337 336 337 337 338 336 333 331 328 327 327 328
306 306 304 304 304 305 305 306 307 307 308 310 312 313 310 312 314 315 316 317 318 318 318 318 319 323 326 324 327 327 332 337 337 337 337 337 336 336 336 336 335 333 333 333
306 305 304 304 305 306 310 307 310 310 311 314 311 318 315 313 314 316 316 317 318 318 318 318 319 322 327 325 325 330 330 336 338 337 336 335 336 335 335 335 334 334 334 335
307 306 306 307 308 310 310 309 312 314 314 315 316 317 318 315 317 316 317 319 319 319 318 318 320 322 330 328 325 331 332 335 338 337 337 337 336 335 333 334 334 333 332 332
307 306 307 308 308 309 310 312 313 312 315 319 318 317 320 318 319 318 319 319 319 320 320 319 320 322 332 328 330 331 332 333 337 336 335 336 336 336 334 335 334 333 331 330
310 311 309 308 311 312 311 315 322 322 320 322 320 319 319 314 313 319 318 317 319 319 319 320 321 329 332 331 330 328 329 334 332 334 335 335 334 336 337 336 335 332 331 330
312 316 312 311 312 312 311 316 320 322 325 322 317 321 319 314 314 316 315 316 318 317 315 316 323 331 333 330 329 327 327 326 330 327 329 330 330 331 331 332 333 332 332 331
312 314 310 310 309 310 314 319 315 318 318 320 321 319 316 315 318 315 315 317 318 316 314 316 321 330 331 329 328 328 328 327 327 327 326 328 329 329 329 329 329 329 329 329
309 312 310 310 310 312 315 314 320 321 324 324 322 318 316 317 317 315 315 318 317 315 315 314 323 331 331 330 330 330 330 329 327 328 327 327 327 327 326 327 328 327 327 327
308 311 316 314 315 315 316 316 315 315 314 324 322 319 315 316 314 317 316 317 316 314 314 314 321 330 330 330 331 331 330 330 329 328 327 327 327 326 326 326 327 326 326 327
310 311 317 314 311 311 313 315 314 323 319 319 317 318 314 315 314 315 315 316 314 313 313 315 319 327 327 327 327 328 329 330 329 329 328 327 325 325 326 326 325 324 323 323
312 313 319 318 313 313 315 314 314 314 319 319 318 320 312 312 314 314 315 314 313 313 313 313 314 318 320 322 322 323 325 327 328 329 327 326 325 325 325 325 325 325 326 325
312 311 315 317 315 314 317 315 315 317 320 318 319 316 314 313 312 313 313 313 313 312 313 313 314 313 314 316 319 318 320 323 324 325 326 324 324 324 323 323 324 324 323 321
312 313 312 313 314 314 315 315 315 317 316 319 316 315 314 313 312 311 311 311 310 311 311 312 313 313 313 314 316 316 316 318 320 321 320 320 320 319 318 318 317 316 315 315
311 314 312 313 312 314 314 315 315 315 315 315 315 315 313 312 311 311 310 310 310 309 310 310 311 313 313 312 312 313 314 315 317 317 315 316 316 315 314 315 314 313 312 313
312 313 314 315 312 312 314 314 314 315 314 315 316 314 312 312 311 311 310 310 309 309 309 310 310 311 311 311 311 311 311 312 312 311 310 310 310 310 310 309 309 308 309 309
312 312 312 313 311 315 312 312 313 315 314 313 312 311 311 311 311 309 309 309 308 308 309 309 309 310 310 311 310 310 309 309 309 309 308 308 308 307 306 306 305 305 304 304
309 311 312 314 313 312 312 312 314 316 314 311 311 311 310 310 312 310 308 307 307 308 308 308 308 309 310 309 309 309 309 308 307 307 306 306 305 304 304 304 304 303 303 302
308 309 313 312 313 314 311 310 310 311 316 312 311 311 311 311 314 311 308 306 306 306 306 307 308 309 309 308 309 309 309 309 307 306 305 305 304 304 304 303 302 301 301 301
309 310 312 312 313 311 308 309 309 313 316 312 311 311 311 311 310 308 307 306 305 305 305 306 306 306 307 307 309 308 307 306 305 305 304 303 303 303 303 302 302 301 301 300
309 310 310 310 311 313 308 309 312 313 313 312 311 311 310 309 308 308 307 306 305 304 303 305 304 303 302 304 307 305 304 304 304 304 303 303 302 302 301 301 300 300 299 299
309 309 310 310 310 308 308 310 309 309 311 311 311 310 310 309 309 308 307 306 305 304 303 303 303 301 299 299 301 300 300 301 303 304 303 303 302 301 301 300 300 300 300 301
307 306 309 309 308 309 309 309 309 309 310 310 310 309 309 309 309 307 306 305 304 303 302 302 302 301 299 297 297 298 300 302 302 301 301 300 301 301 300 300 300 301 300 301
308 307 308 309 308 308 308 308 309 308 307 308 308 309 308 309 308 308 306 305 303 302 301 301 301 300 298 298 297 296 297 298 299 300 301 301 300 299 299 298 299 299 300 300
307 308 308 308 308 309 309 307 307 307 306 306 307 307 307 308 309 308 306 304 302 301 300 300 300 299 297 296 295 295 295 296 297 298 297 297 297 298 299 299 299 299 300 299